GFSWCAN_850_dewp_000.txt.gz
Dewpoint
4 5 5 5 5 5 4 4 3 3 2 1 1 2 3 3 2 2 2 1 2 0 1 2 1 1 2 2 1 2 2 2 2 3 2 2 -2 0 2 1 -0 -1 -1 -0 2 3 3 -1 0 2 1 1 1 2
2 4 5 5 5 5 5 4 4 4 4 3 4 4 4 3 3 2 2 3 2 1 1 3 3 2 2 2 1 2 2 2 3 2 1 -0 0 0 1 4 -0 2 1 2 3 2 -1 -0 2 0 1 2 2 3
3 2 3 5 5 5 5 5 5 4 4 5 5 5 5 5 4 4 3 4 3 3 3 3 3 3 3 3 3 3 3 3 3 2 2 0 1 0 5 4 1 2 3 3 2 1 2 2 2 2 4 4 3 2
2 3 4 5 5 5 5 5 5 5 5 5 5 5 5 5 5 5 5 5 4 4 3 3 3 3 3 3 2 3 3 3 3 4 3 0 3 3 3 4 4 4 3 3 3 3 3 2 3 3 3 3 2 0
1 2 3 3 5 5 5 5 5 5 5 5 5 5 6 6 6 6 6 6 5 4 3 3 2 2 2 2 2 3 3 5 6 5 4 3 3 3 3 2 3 3 3 3 4 2 4 4 4 3 2 1 1 -6
0 1 3 4 4 5 5 5 5 5 5 5 5 5 6 6 6 6 6 5 5 5 5 3 3 2 2 2 2 3 4 5 5 5 5 4 3 3 3 4 2 1 2 2 3 3 2 3 3 1 0 -6 -6 -6
0 0 -0 3 3 5 5 4 5 5 5 5 5 6 6 6 6 6 4 3 4 5 4 3 3 3 3 3 3 3 3 4 5 5 5 3 3 4 2 4 2 2 3 2 0 1 3 2 0 -4 -4 -7 -10 -11
-2 -3 -2 1 2 3 4 5 5 5 5 5 6 6 6 6 6 6 5 3 2 5 4 2 2 2 2 2 3 3 4 4 5 5 4 3 4 4 3 3 2 1 -0 0 0 1 2 -1 -3 -6 -7 -7 -10 -13
-2 -4 -3 -2 1 2 2 3 4 5 5 5 5 6 6 5 5 5 5 6 5 4 4 3 3 4 3 3 3 3 3 2 2 2 2 3 1 4 3 -0 -1 -2 -1 0 0 -1 -2 -5 -3 -4 -5 -8 -11 -14
-2 -4 -3 -2 -1 -1 -1 -0 2 3 4 5 5 5 4 4 4 4 4 4 5 3 3 2 2 2 3 3 2 3 1 1 2 1 1 1 2 1 -1 0 0 -0 -1 -1 -1 -5 -4 -5 -6 -7 -7 -8 -9 -10
-2 -3 -4 -4 -3 -1 -0 -1 -2 1 3 3 4 3 2 3 3 3 2 2 2 2 1 1 2 2 2 2 1 1 0 -0 -1 -3 0 0 -1 -2 -3 -2 -3 -5 -5 -5 -5 -7 -8 -7 -6 -7 -7 -6 -7 -8
-3 -4 -4 -5 -2 1 2 2 2 3 3 3 2 2 2 2 2 2 1 -0 0 0 -0 0 1 1 1 2 1 -1 -0 -1 -0 -3 -1 -2 -4 -2 -3 -4 -5 -6 -6 -6 -8 -10 -13 -13 -10 -7 -7 -6 -6 -7
-3 -3 -4 -5 -1 0 2 2 2 2 1 1 0 1 1 1 1 2 0 1 0 -0 -0 -0 -0 1 0 1 -1 -2 -2 -3 -3 -3 -3 -4 -5 -11 -12 -13 -12 -11 -12 -14 -15 -14 -12 -10 -9 -10 -10 -10 -8 -7
-3 -2 -3 -3 -2 -0 1 2 2 2 -0 -1 -0 1 -1 -0 -0 -1 -2 -4 -2 -0 -0 0 -1 -1 -2 -2 -3 -5 -5 -5 -2 -3 -5 -6 -9 -10 -10 -9 -9 -9 -11 -11 -10 -9 -10 -10 -9 -9 -8 -6 -6 -6
-3 -2 -2 -3 -2 -0 -0 1 1 1 -4 -4 -4 -2 -1 -3 -2 -1 -1 -0 -0 0 0 -1 -2 -2 -4 -5 -5 -6 -4 -4 -5 -6 -8 -8 -9 -8 -7 -8 -11 -12 -10 -8 -8 -9 -10 -9 -9 -8 -8 -6 -6 -5
-2 -1 -1 -2 -1 -0 -0 -0 -0 -2 -4 -4 -4 -5 -3 -2 -2 -2 -1 -0 -0 -0 -1 -3 -6 -5 -6 -8 -7 -5 -5 -5 -8 -8 -9 -8 -7 -6 -9 -11 -11 -9 -8 -8 -9 -9 -8 -8 -7 -7 -7 -6 -6 -6
-1 -0 -1 -1 -2 -2 -2 -1 -1 -2 -2 -7 -4 -3 -3 -4 -4 -3 -3 -2 -0 -1 -4 -5 -7 -8 -8 -9 -7 -7 -8 -9 -7 -11 -8 -7 -8 -10 -12 -12 -10 -9 -8 -8 -8 -8 -8 -8 -8 -8 -7 -7 -6 -6
-1 -1 -1 -2 -2 -2 -2 -3 -3 -3 -6 -6 -4 -4 -3 -3 -3 -3 -3 -3 -2 -3 -6 -6 -7 -9 -10 -9 -9 -9 -7 -7 -10 -11 -8 -8 -10 -12 -10 -8 -7 -8 -8 -7 -7 -7 -8 -8 -7 -6 -6 -6 -7 -7
-1 -1 -2 -1 -2 -3 -3 -3 -4 -6 -8 -7 -6 -4 -3 -3 -3 -4 -3 -3 -3 -3 -3 -4 -10 -9 -8 -9 -10 -11 -12 -11 -9 -8 -8 -10 -11 -10 -8 -7 -7 -7 -7 -7 -8 -9 -9 -8 -6 -6 -6 -6 -7 -7
-2 -2 -2 -2 -3 -4 -5 -5 -5 -7 -6 -5 -5 -4 -4 -4 -5 -4 -4 -4 -3 -2 -2 -4 -6 -6 -8 -8 -8 -8 -7 -7 -7 -10 -11 -11 -9 -8 -7 -7 -6 -6 -7 -8 -8 -9 -11 -10 -7 -7 -6 -6 -5 -6
-2 -3 -2 -3 -5 -7 -7 -6 -5 -5 -5 -5 -5 -5 -5 -4 -4 -5 -5 -4 -3 -4 -3 -5 -6 -7 -7 -7 -8 -9 -12 -11 -10 -9 -9 -9 -9 -8 -7 -7 -7 -7 -7 -7 -7 -8 -10 -7 -7 -7 -6 -6 -6 -6
-3 -3 -3 -4 -5 -6 -7 -7 -7 -7 -7 -6 -6 -5 -5 -5 -5 -5 -5 -5 -5 -6 -8 -11 -14 -14 -13 -13 -12 -11 -10 -10 -10 -9 -9 -9 -8 -7 -7 -9 -9 -9 -7 -7 -6 -7 -8 -6 -6 -7 -7 -6 -6 -6
-4 -3 -4 -5 -6 -7 -5 -6 -6 -6 -7 -6 -6 -7 -7 -6 -6 -6 -6 -5 -5 -14 -16 -14 -13 -12 -11 -11 -10 -10 -11 -11 -10 -10 -9 -9 -7 -7 -9 -10 -9 -8 -7 -8 -8 -8 -7 -7 -7 -7 -7 -7 -6 -6
-4 -5 -5 -6 -7 -7 -6 -6 -5 -5 -5 -7 -11 -10 -11 -8 -7 -6 -8 -6 -12 -15 -14 -13 -11 -10 -11 -12 -12 -10 -10 -9 -10 -10 -10 -8 -8 -10 -10 -9 -8 -7 -7 -8 -8 -8 -7 -7 -7 -7 -7 -7 -6 -6
-5 -5 -7 -7 -7 -7 -9 -11 -8 -7 -7 -12 -11 -12 -9 -8 -11 -12 -11 -8 -12 -14 -14 -13 -13 -13 -12 -10 -10 -11 -11 -11 -11 -10 -11 -11 -11 -10 -9 -8 -7 -6 -6 -7 -7 -7 -7 -7 -7 -7 -7 -7 -6 -6
-9 -6 -8 -8 -7 -10 -11 -10 -8 -9 -16 -13 -10 -8 -9 -12 -12 -11 -11 -12 -14 -14 -14 -14 -12 -10 -9 -10 -10 -11 -11 -11 -10 -10 -11 -9 -8 -9 -8 -7 -6 -6 -6 -7 -7 -7 -7 -8 -8 -8 -6 -7 -7 -6
-9 -7 -7 -7 -7 -7 -8 -9 -8 -10 -15 -12 -13 -13 -15 -11 -12 -10 -12 -13 -14 -13 -12 -12 -11 -11 -11 -11 -11 -10 -9 -8 -7 -7 -7 -7 -6 -5 -5 -5 -6 -7 -7 -7 -7 -8 -8 -8 -8 -8 -8 -7 -7 -7
-6 -6 -8 -6 -6 -6 -10 -11 -15 -12 -13 -9 -10 -12 -11 -11 -11 -12 -12 -12 -11 -11 -11 -10 -10 -10 -10 -9 -9 -8 -7 -6 -6 -6 -5 -5 -5 -5 -6 -7 -7 -8 -8 -8 -8 -8 -7 -8 -8 -7 -8 -8 -8 -8
-5 -6 -7 -7 -6 -6 -6 -9 -9 -9 -10 -10 -10 -13 -10 -11 -11 -10 -10 -10 -10 -10 -9 -9 -9 -8 -9 -8 -7 -6 -6 -6 -5 -6 -6 -7 -8 -8 -7 -8 -8 -8 -8 -8 -8 -8 -8 -8 -8 -8 -8 -8 -8 -8
-6 -6 -6 -6 -9 -9 -7 -7 -8 -9 -9 -9 -9 -9 -9 -9 -9 -9 -9 -8 -8 -8 -8 -8 -7 -7 -7 -6 -6 -6 -6 -6 -6 -7 -7 -7 -8 -8 -9 -8 -9 -9 -9 -9 -9 -9 -9 -9 -9 -9 -9 -10 -10 -10
-6 -6 -6 -6 -6 -7 -8 -8 -8 -8 -9 -9 -9 -9 -8 -8 -8 -8 -8 -8 -8 -9 -8 -8 -8 -8 -8 -8 -8 -8 -8 -8 -8 -8 -8 -9 -9 -9 -9 -9 -9 -9 -10 -9 -9 -9 -9 -9 -9 -9 -10 -10 -10 -10
-6 -6 -6 -12 -8 -9 -8 -8 -8 -9 -12 -11 -12 -13 -11 -9 -8 -10 -12 -12 -12 -11 -11 -11 -11 -10 -10 -10 -10 -10 -10 -10 -10 -10 -10 -10 -10 -10 -10 -10 -10 -10 -11 -11 -12 -12 -11 -11 -10 -10 -11 -11 -11 -10
-6 -6 -6 -6 -7 -8 -9 -12 -12 -11 -12 -13 -14 -11 -9 -10 -14 -14 -14 -14 -14 -14 -13 -12 -12 -12 -12 -11 -11 -12 -12 -12 -12 -12 -11 -11 -11 -11 -11 -12 -12 -13 -13 -14 -14 -14 -13 -12 -12 -12 -12 -12 -12 -12

GFSWCAN_850_dewp_006.txt.gz
Dewpoint
4 5 5 5 5 4 4 3 2 1 -1 -3 -3 -4 -4 -1 2 3 2 1 -1 -2 1 0 -0 0 1 2 6 4 5 5 6 7 6 7 6 5 3 1 3 3 6 6 5 5 6 -1 -1 5 3 3 3 3
2 4 5 5 5 5 5 4 3 2 1 -1 -2 -2 -2 -1 1 2 2 1 1 -0 1 1 0 -1 -1 0 2 4 4 4 5 6 5 4 5 3 7 6 1 3 2 2 3 4 -0 0 1 2 3 3 3 3
2 3 4 4 5 5 5 5 4 3 2 1 -0 -0 1 1 2 2 2 2 2 1 3 4 3 1 1 0 -0 4 2 3 3 3 5 5 5 5 5 5 6 1 1 3 3 1 1 2 2 3 4 3 2 1
0 1 3 4 4 4 5 5 5 4 3 3 2 1 2 3 3 3 3 3 2 1 3 4 3 4 3 3 2 2 1 1 2 2 4 3 6 3 5 4 4 2 1 2 3 3 2 2 4 3 3 3 1 -1
0 -0 2 2 3 4 4 4 5 5 4 4 4 3 4 4 5 5 4 4 3 2 5 4 3 4 4 3 3 3 3 3 3 3 3 5 5 5 4 4 5 2 2 5 5 3 3 4 3 2 3 1 -2 -4
-1 -0 1 3 3 4 4 5 4 4 4 5 5 5 5 5 5 6 5 5 4 4 4 7 3 3 3 3 3 4 4 3 4 5 5 5 5 4 4 5 3 2 2 3 3 3 3 2 2 1 -1 -3 -4 -6
-2 -2 -3 0 3 3 3 5 5 4 4 4 5 5 5 5 6 6 6 4 5 5 5 5 5 3 3 3 4 4 4 6 5 5 5 5 5 4 3 5 2 3 3 3 2 1 2 1 0 -2 -3 -5 -5 -6
-2 -3 -3 -1 1 2 3 3 5 4 4 4 5 5 5 5 6 6 5 3 4 6 5 4 4 3 3 3 3 3 4 5 5 5 4 4 4 4 5 3 2 0 1 0 1 2 1 -1 -3 -4 -5 -6 -7 -9
-2 -2 -2 -1 -1 2 2 3 4 5 5 4 5 5 5 5 5 5 5 5 4 4 4 3 4 5 2 2 3 2 3 4 3 3 3 3 3 4 4 2 0 1 1 1 -1 -2 -3 -4 -5 -7 -8 -10 -10 -8
-2 -2 -2 -3 -2 -0 2 3 3 5 5 5 5 5 5 5 5 5 5 5 5 5 4 4 4 5 3 2 2 3 2 3 4 2 1 1 2 1 -1 -0 -1 -1 -0 -1 -2 -3 -5 -7 -10 -10 -9 -8 -8 -8
-1 -2 -1 -3 -4 -2 -1 2 3 4 4 4 4 4 3 4 5 5 4 3 2 2 2 2 2 2 2 3 3 2 1 1 4 2 3 3 2 0 -0 1 -1 -1 -2 -3 -5 -8 -10 -10 -10 -8 -7 -8 -11 -11
-1 -1 -1 -2 -3 -0 -0 1 2 2 2 2 2 2 2 2 2 2 1 -0 1 2 0 1 1 2 2 2 1 -1 2 1 3 -1 1 2 -1 -2 -1 -2 -3 -3 -5 -9 -13 -12 -14 -14 -11 -10 -11 -11 -10 -9
-1 -2 -1 -2 -1 1 0 0 0 0 0 0 1 0 -0 -0 2 3 3 2 2 0 0 0 0 1 1 1 -1 1 2 2 -2 -0 0 -1 -2 -2 -2 -2 -3 -5 -10 -13 -13 -14 -14 -12 -9 -9 -9 -9 -9 -9
-1 -1 -0 -1 -1 1 1 0 0 1 0 0 0 1 1 2 2 1 1 2 -1 0 0 1 -1 0 -1 -1 -1 2 -2 -2 0 0 0 -3 -4 -5 -6 -6 -7 -8 -11 -14 -15 -13 -11 -10 -9 -9 -8 -8 -9 -9
-1 -2 -0 -2 -1 -1 1 1 1 -0 -0 -0 -0 1 0 -2 -1 -1 -1 -1 -0 -0 0 -0 -1 -1 -1 -1 -2 -2 -1 -0 -1 -1 -3 -5 -7 -7 -7 -9 -8 -10 -14 -15 -14 -13 -10 -8 -8 -8 -8 -9 -10 -9
-2 -1 -1 -2 -1 0 1 -0 0 0 -3 -5 -4 -2 -2 -1 -1 -1 -1 -1 -0 -0 0 -1 -1 0 -1 -1 -1 -1 -2 -2 -3 -3 -3 -6 -9 -8 -8 -7 -9 -12 -15 -15 -13 -9 -7 -8 -7 -7 -8 -10 -11 -11
-2 -1 -1 -1 -1 0 0 0 0 -2 -2 -5 -3 -3 -3 -2 -1 -1 -1 -0 -0 -0 -0 -3 -0 -1 -4 -2 -2 -4 -3 -4 -4 -6 -9 -10 -10 -8 -7 -9 -12 -15 -15 -12 -9 -8 -7 -7 -7 -8 -8 -10 -10 -11
-3 -1 -1 -1 -1 -1 -1 -1 -1 -2 -4 -4 -3 -3 -3 -3 -3 -2 -1 -0 -1 -1 -5 -3 -6 -4 -3 -3 -3 -4 -5 -6 -10 -10 -11 -9 -9 -9 -9 -11 -13 -12 -10 -9 -9 -7 -7 -7 -8 -7 -8 -9 -10 -10
-2 -1 -1 -1 -1 -1 -2 -2 -3 -5 -5 -5 -4 -3 -3 -3 -3 -3 -2 -1 -2 -4 -6 -5 -3 -4 -5 -7 -5 -6 -8 -11 -8 -8 -7 -10 -13 -13 -12 -11 -11 -10 -9 -9 -8 -7 -6 -8 -8 -8 -8 -8 -9 -8
-3 -2 -1 -1 -1 -4 -5 -5 -7 -7 -5 -4 -4 -4 -4 -4 -4 -4 -3 -2 -2 -4 -2 -2 -3 -4 -5 -9 -11 -11 -9 -7 -8 -8 -8 -7 -9 -11 -11 -10 -10 -9 -9 -9 -8 -7 -9 -9 -8 -7 -7 -6 -7 -7
-2 -2 -1 -2 -2 -6 -6 -5 -5 -5 -5 -4 -4 -4 -5 -5 -4 -4 -3 -3 -2 -2 -3 -3 -6 -7 -7 -7 -6 -6 -8 -11 -11 -10 -9 -7 -7 -7 -10 -10 -10 -9 -8 -7 -7 -9 -10 -9 -8 -8 -7 -8 -7 -7
-2 -2 -2 -2 -4 -6 -7 -6 -5 -6 -5 -4 -4 -5 -4 -4 -5 -5 -5 -4 -4 -5 -5 -5 -7 -7 -8 -9 -12 -12 -11 -11 -10 -10 -11 -10 -10 -10 -10 -10 -10 -9 -8 -8 -9 -10 -9 -8 -7 -7 -7 -7 -7 -7
-2 -2 -4 -5 -6 -6 -5 -6 -6 -7 -5 -5 -5 -5 -5 -5 -6 -7 -5 -6 -6 -8 -9 -10 -12 -12 -12 -13 -13 -13 -13 -12 -11 -10 -11 -11 -12 -12 -12 -12 -12 -12 -11 -11 -9 -8 -7 -7 -6 -6 -7 -7 -7 -7
-3 -4 -6 -7 -7 -5 -6 -6 -6 -5 -5 -6 -6 -6 -7 -6 -7 -6 -6 -6 -10 -14 -13 -13 -12 -13 -14 -14 -14 -14 -13 -10 -11 -11 -11 -11 -11 -12 -11 -12 -11 -9 -9 -8 -8 -7 -6 -6 -6 -7 -7 -8 -8 -8
-7 -6 -7 -6 -6 -7 -6 -6 -6 -7 -6 -7 -6 -6 -7 -8 -6 -6 -6 -7 -10 -13 -12 -13 -14 -13 -12 -12 -12 -12 -11 -10 -10 -10 -11 -11 -11 -11 -11 -9 -7 -8 -6 -6 -6 -5 -6 -6 -7 -7 -8 -8 -8 -8
-6 -6 -7 -7 -7 -7 -7 -6 -7 -7 -7 -7 -7 -8 -9 -7 -6 -6 -8 -8 -12 -13 -13 -11 -11 -10 -9 -9 -10 -11 -10 -10 -9 -9 -10 -9 -9 -7 -6 -5 -5 -5 -6 -6 -6 -7 -7 -7 -8 -8 -8 -8 -8 -8
-6 -7 -6 -8 -8 -9 -8 -9 -9 -8 -7 -6 -6 -8 -7 -6 -6 -8 -10 -10 -10 -11 -10 -10 -9 -9 -9 -9 -10 -10 -10 -9 -9 -8 -8 -8 -7 -6 -6 -6 -6 -7 -7 -7 -7 -8 -8 -8 -9 -9 -9 -8 -8 -9
-7 -6 -7 -7 -7 -8 -8 -8 -7 -7 -7 -8 -8 -7 -6 -7 -8 -9 -10 -10 -11 -11 -10 -9 -9 -9 -8 -8 -8 -8 -8 -8 -7 -8 -8 -7 -7 -6 -6 -7 -7 -8 -8 -8 -8 -8 -9 -9 -9 -9 -9 -9 -9 -9
-5 -7 -7 -7 -8 -7 -7 -7 -7 -8 -9 -8 -7 -7 -8 -10 -10 -10 -10 -9 -9 -9 -9 -9 -9 -10 -10 -10 -10 -9 -9 -9 -9 -9 -9 -8 -7 -8 -8 -8 -9 -9 -9 -9 -9 -9 -9 -9 -9 -9 -9 -9 -9 -10
-6 -6 -6 -7 -7 -6 -6 -8 -8 -9 -9 -10 -10 -10 -9 -9 -9 -9 -10 -10 -10 -11 -11 -12 -12 -12 -12 -11 -11 -11 -11 -11 -11 -11 -11 -11 -11 -11 -10 -10 -10 -10 -10 -10 -10 -10 -10 -11 -11 -11 -11 -11 -11 -11
-6 -7 -6 -6 -6 -6 -7 -8 -8 -7 -7 -7 -7 -7 -6 -9 -11 -12 -12 -13 -14 -14 -14 -13 -13 -13 -13 -14 -14 -13 -13 -13 -13 -13 -13 -13 -12 -12 -12 -12 -12 -11 -11 -11 -11 -12 -13 -13 -13 -13 -13 -12 -12 -12
-7 -6 -6 -6 -6 -8 -8 -8 -8 -8 -8 -8 -8 -9 -10 -11 -14 -16 -15 -15 -15 -15 -15 -15 -15 -15 -15 -14 -14 -14 -14 -14 -14 -14 -13 -13 -13 -13 -13 -13 -12 -12 -12 -12 -13 -14 -14 -13 -13 -13 -13 -13 -13 -13
-9 -9 -9 -9 -8 -7 -9 -10 -12 -11 -11 -10 -11 -11 -12 -13 -16 -16 -16 -16 -16 -16 -16 -15 -15 -15 -15 -15 -15 -15 -15 -15 -15 -15 -15 -14 -14 -14 -14 -13 -13 -13 -13 -14 -14 -15 -15 -15 -15 -15 -14 -14 -14 -15

GFSWCAN_850_dewp_009.txt.gz
Dewpoint
6 5 5 5 5 4 3 2 -0 -1 -3 -4 -5 -6 -5 -4 -0 2 2 -0 2 3 4 3 3 4 3 2 7 5 5 5 7 7 8 8 8 4 3 -1 3 4 7 6 5 7 6 -1 -1 5 2 2 3 3
4 5 5 5 5 4 4 3 2 0 -1 -2 -3 -4 -5 -4 -1 1 5 1 -1 4 5 0 0 1 2 2 2 5 3 5 4 7 7 7 6 6 6 5 -2 2 2 3 4 3 -2 0 1 3 2 3 3 4
3 4 5 5 5 5 5 4 3 2 2 0 -1 -2 -3 -3 -1 1 2 1 1 2 5 4 4 -0 -1 -0 3 4 5 3 5 5 6 6 5 5 6 6 5 0 -2 3 3 0 -1 1 2 4 4 4 3 3
2 3 4 5 5 5 5 5 4 4 3 2 1 0 -0 -1 -0 1 3 2 3 4 5 6 4 3 0 -0 0 4 3 3 5 5 5 4 7 3 6 3 3 2 0 2 3 1 0 1 3 4 3 3 3 -0
0 1 2 4 4 4 5 4 5 4 4 3 3 2 2 3 2 2 3 3 2 5 6 7 4 3 3 2 2 2 2 4 6 5 4 5 5 5 5 5 5 1 1 5 5 2 3 3 4 3 2 2 -1 -3
-1 -0 2 2 3 3 4 5 5 4 4 4 4 4 3 4 4 5 6 4 3 2 3 8 6 4 4 4 6 6 5 5 5 6 5 4 4 4 5 6 1 0 0 0 2 4 4 3 2 3 -0 -2 -3 -5
-2 -3 -3 1 2 3 3 4 4 4 4 4 5 5 5 5 5 7 6 6 4 4 4 6 7 4 4 6 6 6 7 6 6 6 6 6 5 4 6 6 0 0 2 3 3 3 2 2 2 -1 -2 -4 -5 -6
-2 -3 -3 -1 1 2 3 3 4 5 4 4 4 5 5 5 6 6 5 3 5 6 5 6 6 5 4 5 6 4 5 6 6 5 5 5 4 5 6 2 1 2 2 2 2 2 2 2 -2 -4 -5 -7 -10 -11
-2 -2 -3 -2 -2 1 2 2 3 5 4 4 4 5 5 5 5 5 5 5 5 5 6 3 5 5 4 3 4 3 4 5 4 4 4 5 5 6 4 2 2 1 1 1 2 0 -1 -3 -5 -8 -10 -11 -10 -10
-1 -2 -3 -3 -3 -2 1 2 2 3 5 5 5 5 5 5 5 4 5 5 5 4 5 4 4 5 3 2 2 3 3 4 4 3 2 2 3 3 2 2 2 1 1 1 -1 -2 -4 -5 -10 -10 -10 -9 -9 -10
-1 -2 -3 -3 -3 -2 -2 0 2 3 4 4 4 5 4 5 5 5 5 4 4 3 3 3 4 4 3 4 3 2 3 2 4 3 3 4 3 1 1 1 1 0 -0 -2 -3 -5 -9 -10 -10 -9 -8 -8 -7 -7
-2 -1 -2 -3 -1 1 0 2 2 3 2 3 3 3 3 3 3 4 2 1 2 4 1 1 2 2 2 3 1 0 2 1 5 0 3 2 -0 -0 0 0 -0 -1 -3 -6 -9 -10 -10 -9 -8 -7 -6 -7 -7 -8
-2 -1 -2 -2 -0 1 1 1 1 1 1 1 1 1 0 -0 2 3 3 3 2 0 0 0 0 1 1 1 0 1 3 4 -0 1 1 -0 -2 -1 -0 -1 -2 -4 -6 -9 -10 -10 -10 -9 -12 -12 -11 -10 -9 -9
-2 -1 -1 -2 -1 1 1 0 0 0 0 0 -0 1 1 2 2 2 2 2 0 1 1 1 -0 0 -0 0 -0 3 1 -0 2 1 2 -2 -2 -2 -2 -2 -3 -5 -8 -11 -12 -14 -17 -17 -13 -10 -9 -9 -8 -9
-6 -3 -2 -2 -1 0 1 1 1 0 0 -0 0 2 1 -1 -1 -1 -1 -0 -0 0 1 1 0 1 1 1 1 -0 0 1 0 0 -1 -3 -3 -3 -4 -4 -6 -8 -10 -10 -10 -10 -16 -14 -10 -8 -8 -8 -8 -8
-5 -3 -1 -2 -1 0 0 0 0 0 -1 -2 -1 -0 -1 -0 -1 -1 -1 -1 -0 0 1 0 1 2 1 1 1 1 2 -0 -1 -1 -2 -4 -5 -5 -5 -7 -8 -8 -10 -12 -15 -15 -13 -10 -8 -8 -8 -8 -8 -9
-3 -2 -2 -2 -2 -0 0 0 -0 -1 -1 -2 -2 -1 -1 -1 -0 -1 -1 -0 -0 0 1 0 1 1 -1 0 0 -2 -1 -1 -2 -2 -5 -5 -6 -6 -10 -9 -9 -9 -10 -11 -10 -11 -10 -9 -8 -7 -8 -9 -5 -7
-2 -2 -2 -2 -2 -1 -0 -0 -1 -2 -2 -2 -1 -2 -3 -2 -1 -1 -1 -0 -0 -1 -3 -2 -4 -2 -1 -1 -1 -2 -4 -3 -4 -6 -7 -7 -7 -7 -7 -6 -6 -7 -8 -9 -11 -10 -9 -8 -6 -5 -6 -6 -5 -5
-2 -2 -1 -1 -1 -0 -1 -2 -2 -3 -3 -3 -3 -3 -3 -3 -2 -2 -1 -1 -1 -2 -4 -4 -1 -3 -4 -5 -3 -2 -2 -5 -6 -7 -7 -6 -6 -11 -14 -13 -13 -12 -10 -9 -7 -5 -6 -6 -5 -6 -5 -5 -5 -4
-2 -2 -1 -1 -1 -2 -3 -3 -5 -4 -3 -3 -3 -2 -3 -3 -3 -3 -1 -1 -3 -3 -1 -1 -3 -4 -4 -5 -5 -5 -6 -5 -5 -5 -7 -8 -8 -7 -6 -6 -6 -6 -6 -6 -6 -6 -5 -4 -5 -5 -4 -5 -6 -6
-2 -2 -2 -2 -3 -6 -3 -3 -3 -3 -4 -4 -3 -3 -4 -3 -4 -3 -3 -3 -2 -2 -4 -4 -3 -3 -4 -7 -7 -7 -6 -6 -8 -7 -7 -7 -7 -7 -7 -6 -6 -6 -6 -6 -8 -7 -7 -8 -8 -4 -5 -7 -7 -7
-2 -2 -2 -2 -3 -5 -4 -5 -4 -4 -4 -3 -3 -4 -3 -3 -3 -4 -4 -3 -4 -4 -5 -5 -5 -5 -5 -5 -6 -9 -11 -12 -12 -10 -8 -7 -6 -6 -7 -7 -7 -7 -10 -12 -11 -10 -10 -7 -5 -5 -7 -6 -6 -6
-2 -2 -3 -3 -4 -4 -5 -5 -4 -5 -4 -4 -4 -4 -4 -4 -4 -6 -5 -5 -5 -5 -5 -6 -6 -5 -6 -8 -11 -14 -14 -14 -10 -8 -6 -6 -6 -6 -7 -6 -5 -6 -8 -10 -5 -5 -6 -5 -5 -5 -5 -5 -6 -7
-3 -3 -4 -5 -4 -4 -5 -4 -5 -5 -5 -5 -5 -4 -5 -5 -6 -6 -5 -6 -6 -6 -7 -7 -7 -7 -8 -11 -10 -10 -9 -9 -7 -7 -6 -6 -6 -6 -6 -6 -6 -6 -5 -5 -5 -5 -6 -5 -5 -5 -6 -6 -7 -8
-4 -5 -5 -5 -5 -5 -5 -5 -5 -5 -5 -5 -5 -5 -6 -6 -5 -5 -5 -8 -4 -4 -5 -6 -7 -8 -9 -8 -8 -8 -8 -8 -7 -8 -8 -7 -6 -6 -5 -5 -5 -5 -5 -6 -6 -6 -6 -6 -6 -7 -7 -8 -8 -8
-5 -5 -5 -5 -6 -5 -5 -5 -5 -5 -6 -5 -5 -6 -6 -5 -5 -6 -9 -4 -3 -5 -10 -9 -7 -6 -7 -7 -7 -7 -6 -7 -8 -7 -6 -6 -5 -5 -5 -6 -6 -6 -6 -6 -6 -7 -7 -7 -7 -8 -8 -8 -8 -8
-6 -6 -6 -7 -6 -7 -6 -6 -6 -6 -6 -6 -6 -6 -5 -6 -6 -8 -6 -7 -6 -9 -9 -8 -9 -7 -7 -7 -7 -8 -9 -9 -8 -8 -8 -8 -8 -7 -7 -7 -7 -7 -7 -7 -7 -8 -8 -8 -8 -9 -9 -9 -9 -9
-5 -6 -6 -5 -6 -6 -6 -6 -6 -6 -6 -7 -6 -5 -6 -7 -7 -6 -8 -10 -10 -9 -9 -9 -9 -9 -10 -10 -11 -11 -11 -11 -11 -10 -9 -8 -7 -7 -8 -8 -9 -9 -9 -9 -9 -9 -9 -9 -9 -9 -9 -9 -9 -9
-5 -5 -6 -6 -6 -5 -6 -6 -6 -7 -7 -7 -5 -6 -6 -7 -9 -10 -10 -10 -9 -9 -10 -10 -11 -12 -12 -12 -11 -11 -12 -12 -12 -12 -12 -11 -11 -11 -11 -11 -11 -11 -10 -10 -10 -10 -10 -10 -10 -10 -10 -10 -10 -10
-5 -5 -5 -6 -6 -6 -4 -5 -4 -6 -7 -6 -6 -8 -9 -10 -11 -10 -10 -11 -11 -12 -12 -13 -13 -13 -13 -13 -13 -13 -13 -13 -13 -13 -14 -14 -14 -13 -13 -13 -12 -12 -12 -11 -11 -11 -11 -11 -11 -11 -12 -12 -12 -12
-6 -5 -5 -5 -5 -4 -5 -7 -8 -8 -8 -7 -6 -6 -7 -11 -12 -11 -12 -13 -13 -14 -14 -14 -14 -14 -14 -15 -15 -15 -14 -14 -15 -15 -14 -14 -14 -14 -14 -14 -13 -13 -13 -13 -12 -12 -12 -12 -13 -13 -13 -13 -13 -13
-6 -6 -6 -6 -6 -6 -8 -7 -6 -6 -5 -6 -6 -8 -10 -10 -11 -15 -15 -15 -15 -15 -15 -15 -15 -15 -15 -16 -15 -16 -15 -16 -16 -16 -16 -16 -15 -15 -15 -15 -14 -14 -14 -14 -14 -14 -13 -13 -13 -13 -14 -14 -14 -14
-7 -7 -7 -7 -7 -6 -7 -9 -8 -8 -8 -8 -9 -10 -11 -11 -13 -16 -15 -16 -16 -16 -16 -16 -16 -16 -16 -17 -16 -16 -16 -16 -16 -16 -16 -16 -16 -16 -16 -15 -15 -15 -15 -15 -15 -15 -14 -14 -15 -15 -15 -15 -16 -16

GFSWCAN_850_dewp_015.txt.gz
Dewpoint
5 5 3 3 2 2 0 -1 -2 -3 -3 -4 -5 -7 -7 -5 0 1 -1 2 3 4 4 4 4 3 3 4 4 5 4 5 5 5 3 4 3 3 3 3 3 2 2 4 4 3 3 -1 -1 1 1 3 4 2
4 4 4 4 4 3 1 0 -1 -2 -3 -4 -5 -6 -7 -6 -1 2 1 0 3 2 2 4 4 4 4 5 4 4 0 6 6 4 3 4 4 5 4 3 2 3 3 4 2 2 -1 -1 -0 0 2 3 3 3
5 4 4 4 4 4 2 1 0 -1 -2 -3 -4 -6 -7 -6 -2 3 4 1 1 1 2 1 2 3 3 5 4 3 5 4 5 5 5 4 3 4 3 4 1 0 1 2 3 2 2 0 2 2 3 3 3 2
5 5 5 4 4 4 3 2 1 -0 -1 -2 -3 -4 -6 -6 -4 -0 1 2 3 3 4 6 4 1 1 5 5 4 2 4 5 5 4 4 2 4 3 2 2 1 1 1 2 2 1 3 3 4 3 3 3 1
4 5 5 5 5 4 4 4 3 2 1 -0 -1 -2 -4 -4 -4 -1 1 3 5 4 3 8 5 5 3 0 2 3 4 3 5 5 3 3 3 3 5 3 3 2 1 2 2 2 2 4 4 3 3 3 3 0
2 4 5 5 4 4 4 4 4 3 3 2 1 0 -1 -2 -2 0 3 0 3 5 3 3 6 5 4 2 6 4 5 4 4 4 4 4 5 3 3 3 3 2 2 1 2 3 3 4 4 3 2 2 -2 -3
2 2 3 4 5 5 4 4 4 4 4 3 3 2 1 0 1 5 5 6 3 3 3 4 6 5 5 6 6 6 6 6 6 6 6 6 4 5 2 5 3 1 -0 1 2 3 4 3 2 2 -0 -2 -4 -6
-2 -0 2 2 3 4 4 5 5 4 4 3 4 4 3 3 4 5 5 4 4 4 4 4 4 5 6 6 6 6 7 6 6 6 6 5 5 5 4 4 3 2 2 2 3 3 3 2 1 -1 -3 -5 -10 -10
-3 -4 -4 -1 1 2 3 3 4 4 5 4 4 4 4 3 4 4 5 4 5 5 5 4 3 3 5 5 5 5 5 3 5 4 5 5 3 5 4 4 3 2 1 3 3 1 1 1 -1 -3 -9 -10 -10 -9
-3 -4 -4 -4 -6 -1 1 2 3 4 4 4 4 4 5 3 3 4 4 4 4 5 6 4 4 3 4 4 3 3 3 2 3 2 4 2 3 3 2 2 2 2 2 2 2 2 1 -1 -7 -9 -9 -9 -9 -8
-3 -3 -4 -5 -5 -5 -3 0 2 3 5 5 5 5 5 5 5 4 4 4 4 4 5 4 4 3 3 2 2 3 2 2 3 1 3 2 3 1 -0 1 2 2 2 2 1 -0 -3 -6 -9 -9 -9 -8 -10 -16
-2 -3 -3 -3 -3 -0 1 2 2 3 4 4 4 4 5 4 4 3 3 3 2 4 3 3 4 3 4 3 2 2 2 1 3 2 2 2 0 2 2 1 1 1 1 -1 -3 -8 -9 -9 -9 -9 -12 -17 -17 -14
-3 -3 -3 -1 -1 -1 0 1 2 3 3 3 2 2 2 0 2 3 3 2 2 1 1 2 1 2 2 3 1 1 2 2 2 2 2 0 0 1 1 1 -1 -3 -7 -9 -9 -9 -9 -10 -12 -17 -19 -19 -15 -12
-3 -2 -3 -2 -1 -1 0 1 2 2 1 1 0 1 1 1 1 -0 0 0 -0 0 0 1 0 1 1 1 0 2 1 1 2 2 -0 1 1 2 -0 -0 -2 -5 -7 -6 -8 -11 -11 -13 -18 -19 -17 -14 -13 -12
-8 -3 -2 -3 -2 -1 -1 -0 -0 -1 -1 0 -0 1 0 -1 -1 -1 -1 -1 -0 -0 0 0 -0 0 -0 0 -0 -0 1 2 2 2 0 0 -0 -1 -2 -2 -3 -4 -4 -6 -9 -10 -11 -15 -16 -16 -15 -13 -12 -11
-5 -3 -2 -2 -1 -1 -1 -1 -2 -1 -2 -1 -1 -1 -1 -0 -1 -1 -0 -1 -0 -0 -0 0 -0 1 1 0 1 2 2 2 1 -0 -1 -2 -2 -2 -1 -1 -3 -6 -8 -8 -8 -9 -12 -15 -14 -13 -13 -12 -10 -7
-3 -2 -1 -2 -1 -1 -1 -1 -0 -2 -3 -1 -1 -1 -1 -1 -1 -1 -0 -0 0 0 -0 0 1 -0 -1 0 1 0 1 0 -0 -3 -4 -4 -5 -6 -8 -10 -10 -8 -6 -6 -8 -10 -13 -13 -12 -11 -11 -10 -8 -6
-2 -2 -1 -1 -1 -1 -1 -1 -1 -2 -2 -2 -1 -2 -1 -1 -1 -1 -1 -1 -0 -1 -0 -1 -1 -1 0 0 0 -0 -2 -2 -3 -4 -5 -6 -8 -9 -8 -9 -12 -14 -15 -14 -14 -12 -12 -12 -11 -11 -9 -9 -8 -9
-3 -2 -2 -1 -2 -2 -2 -2 -2 -2 -2 -2 -2 -2 -2 -2 -2 -2 -2 -1 -1 -2 -4 -3 -2 -2 -2 -3 -2 -2 -3 -4 -5 -7 -6 -6 -6 -6 -9 -9 -10 -11 -11 -11 -10 -11 -11 -10 -10 -11 -11 -9 -6 -6
-4 -3 -2 -1 -2 -2 -2 -3 -2 -3 -3 -2 -2 -3 -3 -3 -3 -3 -2 -2 -2 -2 -2 -3 -2 -2 -3 -4 -4 -4 -4 -5 -5 -6 -7 -7 -7 -7 -7 -7 -8 -8 -8 -8 -10 -10 -10 -10 -11 -11 -8 -6 -6 -5
-4 -3 -3 -2 -2 -1 -2 -3 -3 -3 -3 -3 -3 -3 -4 -4 -3 -3 -3 -2 -2 -2 -2 -3 -3 -3 -3 -4 -5 -6 -6 -6 -7 -6 -6 -7 -9 -8 -9 -9 -7 -6 -6 -6 -8 -9 -8 -9 -9 -7 -6 -6 -6 -7
-3 -3 -2 -2 -2 -3 -3 -3 -3 -3 -3 -4 -3 -3 -4 -4 -4 -4 -4 -4 -4 -3 -3 -4 -4 -4 -3 -3 -4 -5 -7 -8 -11 -11 -8 -7 -7 -7 -8 -7 -6 -7 -7 -7 -7 -6 -6 -6 -6 -6 -6 -6 -8 -7
-4 -3 -3 -3 -3 -3 -4 -3 -4 -5 -5 -4 -3 -4 -4 -5 -4 -5 -5 -5 -4 -4 -4 -4 -5 -5 -5 -5 -5 -11 -9 -8 -7 -7 -7 -6 -7 -7 -7 -6 -5 -5 -5 -5 -4 -5 -5 -5 -7 -6 -6 -7 -8 -7
-4 -3 -3 -3 -3 -3 -4 -4 -4 -4 -5 -5 -4 -5 -4 -6 -5 -5 -7 -5 -4 -5 -6 -6 -7 -7 -8 -10 -6 -7 -7 -7 -8 -7 -7 -8 -11 -11 -10 -7 -6 -7 -7 -7 -8 -7 -7 -6 -6 -7 -7 -7 -7 -7
-3 -4 -4 -4 -4 -4 -4 -4 -5 -5 -7 -6 -7 -5 -5 -6 -7 -8 -8 -3 -4 -4 -4 -5 -6 -7 -5 -5 -5 -5 -6 -6 -8 -10 -11 -12 -13 -14 -13 -11 -9 -8 -8 -8 -9 -9 -9 -9 -9 -9 -8 -8 -7 -8
-4 -4 -5 -4 -4 -3 -4 -5 -4 -6 -7 -6 -5 -5 -6 -6 -7 -8 -5 -5 -6 -6 -6 -5 -5 -5 -5 -6 -6 -8 -9 -10 -11 -13 -14 -13 -10 -10 -10 -10 -10 -11 -11 -11 -11 -11 -11 -11 -10 -10 -10 -9 -9 -9
-4 -4 -5 -5 -4 -4 -4 -4 -5 -5 -5 -6 -6 -6 -8 -8 -9 -5 -7 -7 -7 -7 -8 -8 -7 -7 -8 -8 -9 -10 -11 -13 -14 -14 -13 -11 -10 -10 -11 -12 -12 -13 -13 -13 -13 -12 -12 -12 -12 -11 -11 -10 -10 -10
-4 -5 -5 -4 -4 -5 -5 -5 -6 -7 -7 -6 -6 -8 -9 -9 -7 -8 -8 -8 -9 -9 -9 -9 -9 -9 -10 -10 -11 -11 -12 -13 -14 -15 -11 -11 -12 -13 -14 -15 -15 -15 -15 -15 -14 -14 -13 -13 -13 -12 -12 -12 -11 -11
-5 -5 -6 -6 -5 -5 -6 -6 -6 -6 -6 -6 -7 -8 -6 -9 -10 -10 -10 -11 -11 -11 -10 -10 -10 -11 -12 -12 -12 -13 -14 -14 -15 -16 -16 -17 -17 -17 -17 -17 -17 -17 -16 -16 -15 -15 -14 -14 -14 -13 -12 -12 -12 -12
-5 -5 -5 -6 -7 -5 -5 -4 -4 -5 -5 -5 -5 -7 -8 -11 -12 -12 -12 -12 -11 -11 -12 -12 -13 -13 -14 -15 -15 -15 -15 -16 -16 -17 -17 -18 -17 -18 -18 -18 -17 -17 -17 -16 -16 -16 -15 -15 -15 -14 -14 -14 -14 -14
-6 -6 -6 -6 -4 -5 -5 -6 -6 -7 -8 -5 -5 -6 -9 -11 -13 -13 -13 -13 -13 -13 -14 -14 -14 -15 -16 -16 -16 -16 -17 -17 -18 -18 -18 -19 -20 -20 -20 -20 -20 -19 -18 -17 -17 -16 -17 -17 -17 -16 -16 -16 -16 -16
-6 -7 -7 -7 -5 -6 -6 -6 -6 -6 -6 -7 -7 -8 -9 -10 -13 -14 -14 -14 -14 -15 -16 -17 -19 -20 -20 -19 -17 -17 -17 -18 -18 -20 -20 -20 -20 -20 -20 -20 -20 -19 -18 -18 -17 -18 -18 -18 -18 -18 -17 -17 -17 -17
-7 -7 -7 -7 -7 -7 -6 -9 -8 -8 -7 -7 -8 -9 -10 -11 -14 -15 -15 -16 -16 -19 -21 -22 -22 -22 -22 -21 -21 -21 -20 -20 -21 -20 -20 -20 -20 -20 -20 -20 -20 -19 -19 -19 -18 -19 -19 -19 -19 -19 -18 -18 -18 -18

GFSWCAN_850_dewp_018.txt.gz
Dewpoint
5 4 1 1 0 0 -1 -1 -2 -3 -4 -6 -7 -7 -5 -2 -1 -2 -1 1 2 4 4 4 4 4 4 3 4 4 3 4 3 1 0 3 1 2 2 2 2 2 2 2 2 -0 2 -1 -0 1 -0 2 3 3
5 4 2 1 1 0 -1 -1 -2 -3 -3 -4 -6 -7 -6 -4 -1 1 -0 3 2 1 4 4 4 4 3 2 2 4 -0 4 3 3 2 4 2 3 2 3 1 1 0 2 2 2 -2 -1 -1 -2 -1 1 3 3
5 4 3 2 1 1 -0 -1 -1 -2 -3 -4 -5 -6 -7 -5 -3 -0 -0 1 1 1 3 3 4 4 5 4 3 2 4 3 4 1 4 2 -0 2 3 4 3 1 1 2 2 1 1 -0 0 1 2 2 3 3
5 4 4 4 2 2 1 -0 -1 -2 -2 -3 -5 -6 -6 -6 -3 0 1 1 1 -0 1 5 4 2 5 5 4 3 2 4 4 4 3 2 0 2 1 0 1 -0 2 2 1 1 3 2 2 2 3 3 2 2
5 5 4 4 4 3 2 1 0 -1 -1 -2 -3 -5 -5 -5 -4 -2 -0 1 2 1 2 7 5 5 2 4 5 5 4 4 5 4 2 2 2 2 2 1 1 1 1 2 2 -0 0 1 2 3 3 3 3 1
5 5 5 4 4 4 3 2 2 1 -0 -1 -2 -3 -4 -4 -3 -3 -2 1 3 4 2 1 6 5 4 3 3 4 5 5 5 4 3 3 5 2 3 4 3 2 1 1 2 2 1 2 3 3 3 3 2 -2
4 5 5 5 4 4 4 4 3 3 2 1 0 -1 -2 -2 -2 -1 1 4 3 4 2 4 5 5 5 6 6 6 5 5 6 6 5 4 5 5 2 3 2 0 -1 0 0 2 4 4 3 3 2 2 -3 -5
3 3 4 5 4 4 4 4 4 4 3 3 2 2 1 0 3 4 5 5 3 3 3 2 2 4 5 6 6 6 6 6 6 6 6 6 5 4 4 4 2 2 3 2 2 3 3 3 2 2 0 -4 -6 -10
-2 2 3 3 4 5 4 4 4 3 3 4 4 3 2 2 2 4 5 4 5 4 4 3 3 2 5 5 5 5 5 2 5 3 4 5 2 5 3 2 2 2 3 3 4 3 2 2 0 1 -3 -8 -10 -10
-4 -4 -4 -0 2 2 3 4 4 4 4 4 3 3 3 3 4 4 4 4 4 5 5 4 3 3 4 4 3 3 4 2 4 2 4 2 3 3 3 2 3 2 2 2 3 2 2 2 -1 -4 -8 -9 -9 -10
-4 -4 -5 -5 -5 -2 1 2 3 5 5 4 4 4 4 3 3 3 3 4 4 4 5 4 4 3 3 2 2 3 1 1 3 0 2 0 2 1 1 1 1 2 2 3 2 2 2 -1 -3 -8 -7 -9 -11 -13
-3 -2 -2 -0 0 1 1 2 3 4 5 5 4 4 5 4 4 3 2 2 2 3 2 3 3 4 4 3 2 2 2 1 3 1 2 3 0 1 1 2 2 2 1 -0 1 0 -3 -4 -2 -7 -12 -14 -19 -21
-3 -1 -1 -1 1 1 2 2 3 4 4 4 3 3 2 1 2 4 4 2 2 1 1 2 2 3 3 3 1 1 2 2 1 2 3 1 1 -0 -3 -0 0 1 1 -2 -4 -1 -3 -10 -12 -14 -19 -20 -16 -15
-3 -2 -1 -1 0 1 1 2 3 3 2 2 1 1 1 1 0 -0 0 0 -0 0 0 1 -0 1 1 1 0 2 1 1 2 2 -0 1 1 1 -0 -3 -4 -5 -6 -3 -1 -8 -10 -11 -16 -19 -16 -15 -14 -13
-2 -2 -2 -1 -1 -1 -1 -1 -0 -0 -2 -0 -1 0 -1 -2 -1 -1 -1 -0 -0 -0 0 0 0 0 -0 -0 -0 -0 0 1 1 1 0 -0 0 0 -2 -6 -8 -8 -5 -6 -9 -9 -10 -12 -15 -15 -14 -13 -12 -11
-4 -3 -2 -1 -2 -2 -2 -3 -2 -3 -2 -1 -1 -1 -1 -1 -1 -1 -1 -1 -0 -0 -0 0 -0 1 -0 -0 0 1 1 1 1 -0 0 -0 -1 -1 -1 -0 -2 -4 -7 -8 -8 -8 -10 -12 -13 -12 -13 -12 -10 -9
-5 -2 -1 -2 -2 -2 -3 -2 -2 -4 -3 -2 -1 -1 -1 -1 -1 -1 -1 -1 -1 -0 -1 -1 -2 -2 -1 -0 0 0 0 -0 -0 0 -0 -1 -2 -5 -6 -8 -9 -10 -9 -9 -10 -12 -13 -11 -11 -12 -12 -12 -11 -10
-4 -2 -2 -2 -1 -3 -3 -3 -2 -2 -2 -2 -1 -1 -1 -1 -1 -1 -1 -1 -1 -1 -0 -1 -1 -1 -1 -0 -0 -1 -0 -1 -0 -1 -3 -5 -6 -8 -7 -9 -12 -12 -12 -12 -12 -11 -11 -11 -11 -11 -11 -11 -12 -12
-3 -3 -2 -2 -3 -3 -3 -2 -2 -3 -3 -2 -2 -2 -2 -2 -2 -2 -2 -2 -2 -3 -4 -2 -4 -2 -2 -3 -2 -2 -2 -4 -5 -6 -7 -6 -5 -7 -8 -8 -8 -9 -10 -10 -9 -10 -11 -10 -9 -9 -9 -10 -9 -9
-6 -4 -3 -2 -2 -3 -2 -3 -2 -3 -3 -3 -3 -3 -3 -3 -3 -3 -2 -2 -3 -3 -3 -5 -4 -2 -3 -5 -4 -4 -3 -4 -5 -5 -6 -7 -7 -7 -7 -7 -8 -8 -8 -8 -7 -7 -7 -7 -7 -6 -7 -7 -7 -7
-6 -5 -4 -4 -3 -2 -3 -4 -3 -3 -4 -4 -3 -4 -4 -4 -4 -4 -3 -4 -4 -3 -2 -3 -2 -3 -3 -4 -5 -5 -4 -5 -6 -7 -7 -10 -9 -8 -6 -7 -6 -6 -6 -6 -6 -6 -5 -5 -5 -5 -5 -5 -6 -6
-4 -3 -3 -4 -3 -3 -3 -3 -3 -3 -4 -4 -3 -4 -4 -5 -5 -4 -4 -4 -5 -4 -3 -4 -4 -3 -2 -3 -3 -5 -7 -10 -11 -7 -6 -6 -6 -6 -7 -8 -8 -7 -6 -5 -5 -5 -6 -6 -7 -8 -8 -7 -6 -7
-4 -4 -4 -3 -3 -4 -4 -3 -3 -4 -5 -4 -2 -4 -5 -5 -4 -5 -5 -5 -5 -4 -5 -4 -5 -5 -4 -5 -6 -9 -9 -7 -6 -6 -7 -7 -8 -9 -11 -12 -13 -13 -12 -10 -9 -9 -9 -9 -9 -8 -8 -8 -8 -8
-5 -5 -3 -4 -3 -4 -3 -3 -3 -3 -5 -5 -4 -4 -5 -6 -6 -6 -9 -5 -4 -4 -6 -6 -6 -6 -6 -6 -7 -6 -6 -6 -6 -7 -7 -9 -10 -12 -14 -14 -12 -11 -10 -9 -10 -10 -11 -11 -11 -11 -11 -11 -10 -8
-4 -4 -4 -4 -4 -4 -7 -7 -4 -5 -4 -5 -5 -5 -5 -6 -10 -10 -10 -5 -5 -4 -5 -5 -6 -6 -5 -6 -6 -6 -6 -7 -8 -10 -12 -13 -15 -14 -13 -11 -11 -11 -12 -12 -13 -13 -13 -13 -13 -12 -12 -11 -11 -10
-7 -5 -5 -5 -5 -4 -6 -7 -6 -6 -7 -6 -7 -5 -5 -8 -7 -9 -6 -6 -6 -6 -6 -6 -6 -6 -6 -7 -7 -8 -8 -10 -12 -14 -14 -14 -13 -12 -11 -12 -13 -14 -15 -15 -15 -15 -15 -14 -14 -13 -13 -13 -12 -12
-7 -7 -5 -5 -4 -4 -4 -4 -4 -4 -5 -6 -7 -7 -9 -8 -10 -7 -8 -8 -8 -7 -7 -8 -8 -7 -8 -8 -9 -10 -10 -12 -14 -14 -13 -12 -11 -12 -13 -15 -16 -16 -16 -16 -16 -16 -16 -15 -14 -14 -14 -14 -13 -13
-4 -5 -7 -5 -4 -4 -5 -5 -5 -5 -5 -4 -6 -7 -7 -9 -8 -9 -9 -9 -9 -8 -8 -9 -10 -10 -10 -10 -10 -11 -13 -14 -15 -14 -12 -12 -12 -16 -18 -19 -19 -19 -18 -18 -17 -17 -16 -16 -15 -15 -15 -14 -13 -13
-5 -5 -5 -5 -4 -5 -5 -6 -6 -4 -4 -6 -9 -10 -9 -10 -11 -11 -10 -10 -10 -10 -10 -10 -11 -11 -11 -12 -13 -13 -14 -16 -19 -20 -21 -23 -24 -23 -23 -22 -22 -21 -21 -21 -20 -18 -17 -16 -16 -16 -15 -15 -15 -15
-5 -5 -5 -6 -7 -6 -5 -5 -5 -5 -4 -5 -6 -8 -11 -12 -12 -12 -12 -11 -11 -12 -12 -12 -12 -13 -14 -15 -15 -16 -18 -21 -21 -21 -21 -21 -21 -21 -21 -21 -21 -21 -21 -20 -20 -19 -18 -17 -17 -17 -17 -17 -17 -16
-6 -6 -7 -7 -5 -6 -6 -6 -6 -6 -6 -6 -6 -7 -11 -13 -13 -14 -13 -13 -13 -13 -13 -14 -14 -15 -17 -19 -20 -21 -20 -20 -20 -20 -20 -21 -21 -21 -21 -21 -21 -21 -21 -20 -19 -19 -18 -18 -18 -18 -18 -18 -18 -18
-7 -7 -8 -7 -6 -7 -7 -7 -7 -7 -7 -8 -8 -9 -11 -12 -14 -14 -15 -15 -14 -15 -16 -19 -22 -23 -23 -22 -21 -20 -20 -21 -20 -20 -21 -21 -21 -21 -21 -21 -21 -21 -20 -20 -19 -19 -19 -19 -19 -19 -19 -19 -19 -19
-8 -8 -8 -7 -7 -7 -7 -11 -7 -7 -6 -7 -9 -10 -11 -12 -14 -14 -15 -15 -16 -19 -21 -22 -22 -22 -22 -22 -21 -21 -21 -21 -21 -21 -21 -20 -20 -20 -21 -21 -21 -21 -20 -20 -20 -20 -20 -19 -20 -19 -20 -20 -20 -20

GFSWCAN_850_dewp_021.txt.gz
Dewpoint
1 1 1 0 -0 -1 -2 -3 -4 -5 -5 -4 -1 1 1 0 0 0 3 3 1 4 5 5 3 3 3 3 3 4 3 3 1 0 -1 1 -0 2 2 1 3 3 3 2 1 -0 -0 -3 -0 1 -0 -3 -0 2
1 1 1 1 -0 -1 -1 -2 -3 -4 -6 -5 -4 -2 -0 -1 -2 -2 -1 1 1 1 5 5 5 4 2 2 2 4 1 3 2 1 -1 1 0 3 1 2 1 1 -0 1 1 1 -3 -2 -1 -1 -2 -3 1 1
1 1 1 1 0 -1 -1 -2 -3 -4 -5 -6 -6 -6 -4 -1 -1 -2 -1 2 -0 3 4 4 5 5 5 3 2 2 1 2 2 -0 3 2 -1 0 3 3 2 1 -1 1 1 -1 -0 -2 -1 -0 -1 -0 1 2
2 2 1 1 0 -0 -1 -2 -2 -3 -4 -5 -6 -7 -6 -5 -2 -1 -1 1 -1 -2 1 5 4 5 6 6 3 2 1 2 2 1 2 1 -1 1 1 0 1 1 1 1 1 0 1 1 0 -1 0 1 2 3
3 2 2 1 1 -0 -1 -1 -2 -3 -3 -4 -5 -6 -6 -5 -3 -1 -0 0 -0 -2 3 6 4 3 3 5 5 4 3 3 4 4 1 2 0 1 2 0 1 1 1 1 1 -2 0 -1 -0 0 1 2 3 2
5 4 3 2 1 1 0 -0 -1 -2 -3 -3 -4 -5 -6 -5 -4 -3 -2 1 2 -0 -0 2 5 5 4 3 4 5 5 5 5 4 3 2 2 2 3 4 2 -0 -1 -2 -1 -0 -0 1 2 1 3 3 3 2
5 5 4 3 3 2 1 1 -0 -1 -2 -2 -3 -4 -4 -4 -4 -5 -4 1 3 3 0 4 4 5 5 6 5 6 5 5 5 4 4 3 5 4 2 3 0 -1 -1 -1 -0 1 2 3 2 3 3 3 2 -3
5 4 4 4 4 3 3 2 1 1 1 0 -1 -1 -2 -1 -0 1 4 2 4 2 1 1 1 4 5 6 6 6 6 6 6 6 5 5 4 3 3 3 2 2 2 2 2 2 2 2 3 3 3 2 -3 -2
4 5 5 5 4 4 4 4 3 3 3 2 2 1 1 2 2 3 4 4 4 2 3 2 1 2 5 5 5 5 6 2 4 3 4 4 2 3 3 3 2 2 2 3 3 3 3 3 3 2 -2 -4 -0 -2
2 3 4 4 4 4 4 4 4 3 3 3 2 1 2 3 3 4 4 2 3 5 5 2 3 2 4 4 3 3 3 3 4 2 4 2 3 3 1 1 1 2 2 2 3 3 2 -0 -1 -1 1 -1 -3 -7
-3 -2 1 3 3 4 4 5 4 4 3 2 2 4 4 4 3 3 3 2 4 4 4 3 3 3 3 2 2 2 1 1 3 0 3 2 2 0 1 2 2 1 2 3 3 3 1 0 0 -2 -5 -3 -3 -12
0 0 -0 -2 -0 2 3 4 4 4 3 3 3 4 4 3 3 2 2 2 2 3 2 3 3 4 3 3 2 2 1 1 3 1 2 3 -0 -3 -2 -2 -1 1 2 1 1 0 -1 -2 -2 -2 -6 -15 -18 -20
-0 1 1 2 2 2 3 4 4 5 4 4 4 4 3 2 3 4 4 2 2 1 1 2 2 2 3 3 1 1 2 2 1 2 3 1 0 -0 0 0 1 1 1 -0 -1 -0 -2 -8 -11 -8 -15 -18 -17 -17
-1 -0 1 1 1 1 3 3 3 4 3 3 2 1 1 1 0 0 0 0 -0 0 1 1 0 1 1 1 0 2 1 0 2 1 -1 0 -1 -1 -1 -3 -5 -4 -1 -0 -3 -8 -9 -11 -15 -17 -16 -15 -14 -12
-2 -1 -0 0 -0 -1 0 2 3 0 -2 -1 -1 -0 -1 -2 -2 -2 -1 -0 -0 -0 0 0 0 0 -0 0 -0 -1 0 1 0 -1 -0 -1 -1 -1 -3 -4 -4 -4 -4 -5 -6 -6 -8 -10 -13 -14 -13 -12 -11 -11
-3 -2 -3 -2 -3 -3 -3 -2 -1 -3 -2 -1 -2 -1 -1 -1 -1 -1 -1 -1 -0 -0 0 0 -0 -0 -0 -1 -1 -0 0 -0 -0 -1 -0 -1 -1 -1 -1 -1 -3 -5 -5 -5 -6 -7 -10 -13 -13 -13 -13 -12 -11 -11
-6 -3 -3 -3 -3 -4 -3 -3 -4 -4 -2 -2 -1 -1 -1 -1 -1 -1 -1 -1 -0 -0 -1 -1 -4 -3 -2 -2 -0 -0 -1 -1 -0 -1 -2 -1 -2 -3 -4 -7 -9 -10 -10 -12 -13 -13 -11 -12 -12 -12 -11 -11 -12 -11
-7 -3 -3 -5 -5 -5 -5 -4 -3 -2 -2 -1 -1 -1 -1 -1 -1 -1 -1 -1 -1 -1 -1 -2 -1 -2 -2 -1 -1 -1 -0 -2 -2 -2 -1 -2 -4 -6 -6 -8 -9 -8 -9 -9 -9 -9 -10 -10 -9 -8 -7 -7 -7 -7
-5 -5 -8 -7 -5 -4 -3 -2 -2 -3 -2 -2 -2 -2 -2 -2 -1 -2 -1 -2 -3 -3 -4 -2 -5 -4 -3 -2 -1 -1 -0 -1 -1 -2 -4 -5 -6 -6 -7 -7 -7 -8 -8 -7 -7 -6 -6 -6 -6 -6 -6 -6 -6 -6
-9 -5 -5 -6 -5 -3 -3 -3 -3 -4 -3 -2 -2 -3 -3 -3 -3 -3 -2 -3 -3 -3 -3 -5 -4 -2 -4 -5 -4 -3 -3 -4 -5 -6 -5 -6 -7 -7 -8 -8 -7 -6 -6 -6 -7 -8 -8 -8 -7 -7 -6 -6 -7 -7
-13 -11 -8 -7 -6 -4 -4 -4 -4 -4 -4 -4 -3 -4 -4 -4 -4 -4 -3 -4 -4 -4 -2 -2 -2 -4 -5 -5 -5 -4 -4 -5 -5 -5 -6 -8 -8 -6 -6 -6 -7 -8 -10 -11 -10 -10 -10 -10 -10 -11 -11 -10 -8 -8
-8 -7 -5 -5 -4 -3 -3 -4 -4 -3 -4 -4 -4 -4 -4 -4 -5 -4 -4 -5 -5 -4 -3 -4 -3 -2 -3 -3 -4 -5 -6 -8 -8 -8 -7 -6 -6 -6 -8 -9 -10 -12 -13 -14 -14 -12 -11 -11 -11 -11 -11 -11 -11 -11
-9 -9 -6 -5 -4 -4 -3 -4 -3 -5 -5 -3 -3 -4 -4 -5 -4 -5 -5 -6 -5 -4 -4 -4 -4 -4 -4 -3 -4 -6 -7 -7 -6 -6 -7 -7 -8 -9 -11 -12 -13 -14 -14 -12 -12 -12 -12 -13 -14 -14 -14 -14 -13 -13
-6 -5 -4 -4 -4 -5 -4 -3 -3 -3 -4 -3 -4 -4 -5 -5 -5 -5 -9 -5 -5 -4 -5 -5 -5 -5 -5 -5 -6 -6 -6 -6 -7 -8 -9 -11 -12 -13 -13 -13 -13 -12 -12 -13 -14 -15 -16 -16 -16 -16 -15 -15 -15 -14
-5 -5 -4 -5 -5 -5 -11 -10 -5 -5 -7 -5 -4 -5 -5 -5 -10 -7 -10 -5 -5 -5 -5 -5 -5 -5 -6 -6 -7 -7 -7 -8 -8 -8 -10 -12 -13 -13 -13 -12 -13 -13 -15 -17 -18 -18 -19 -18 -18 -17 -16 -15 -15 -14
-6 -5 -6 -5 -6 -6 -9 -9 -8 -8 -9 -7 -6 -5 -5 -7 -6 -8 -6 -7 -7 -7 -6 -6 -6 -6 -7 -7 -8 -7 -8 -9 -11 -13 -13 -13 -13 -13 -13 -14 -15 -18 -19 -20 -21 -21 -21 -19 -18 -17 -16 -16 -16 -15
-7 -9 -5 -5 -4 -4 -4 -4 -4 -5 -7 -5 -7 -7 -6 -5 -6 -8 -8 -8 -8 -8 -8 -8 -8 -8 -8 -9 -9 -10 -10 -12 -13 -14 -13 -13 -12 -13 -15 -18 -21 -22 -22 -22 -22 -21 -21 -20 -19 -17 -16 -16 -15 -15
-5 -5 -7 -5 -5 -4 -5 -5 -5 -5 -5 -5 -5 -6 -6 -8 -9 -10 -10 -10 -9 -9 -9 -9 -10 -10 -10 -10 -11 -11 -12 -14 -15 -15 -13 -14 -16 -20 -22 -22 -22 -22 -22 -21 -21 -21 -20 -20 -18 -17 -17 -17 -16 -16
-5 -5 -5 -5 -5 -5 -5 -5 -5 -5 -5 -5 -8 -8 -10 -11 -11 -11 -11 -11 -11 -11 -10 -11 -11 -11 -12 -12 -13 -14 -16 -18 -20 -21 -23 -23 -23 -23 -23 -22 -22 -22 -22 -22 -22 -21 -20 -19 -18 -18 -18 -18 -18 -17
-5 -5 -5 -6 -7 -7 -6 -6 -6 -6 -6 -6 -7 -10 -12 -13 -13 -12 -12 -12 -12 -12 -12 -12 -12 -13 -14 -15 -17 -20 -23 -23 -23 -23 -22 -22 -22 -22 -22 -21 -21 -21 -21 -21 -21 -21 -20 -20 -19 -19 -19 -19 -19 -19
-6 -6 -7 -7 -6 -6 -7 -7 -6 -6 -6 -7 -7 -8 -12 -14 -14 -14 -14 -14 -14 -14 -14 -14 -14 -16 -20 -22 -23 -22 -21 -21 -22 -22 -21 -21 -21 -21 -21 -21 -21 -21 -21 -21 -21 -20 -20 -20 -20 -20 -19 -19 -19 -19
-8 -7 -7 -7 -6 -8 -8 -8 -8 -8 -8 -8 -9 -10 -11 -12 -14 -15 -15 -15 -15 -15 -16 -19 -22 -23 -23 -23 -23 -22 -22 -22 -21 -21 -21 -21 -21 -21 -21 -21 -21 -21 -21 -21 -21 -20 -20 -20 -20 -20 -20 -20 -20 -20
-8 -8 -8 -8 -7 -7 -7 -10 -9 -8 -8 -9 -11 -11 -12 -12 -15 -15 -15 -15 -16 -19 -21 -22 -22 -22 -23 -23 -24 -25 -25 -24 -24 -22 -21 -21 -21 -21 -22 -23 -22 -21 -21 -21 -21 -20 -20 -20 -20 -20 -20 -20 -20 -20

GFSWCAN_850_dewp_024.txt.gz
Dewpoint
2 2 1 1 -1 -2 -2 -2 -2 -1 2 3 3 2 -1 -1 -1 3 4 4 2 5 6 5 3 2 2 2 3 4 3 3 0 -0 -1 -0 -1 1 1 0 3 3 3 1 -0 -2 0 -4 -0 0 -1 -4 -3 -1
2 2 1 0 -1 -1 -2 -3 -2 -1 1 3 4 4 2 0 3 3 3 2 2 3 5 5 5 3 1 1 2 4 2 3 1 0 -2 -1 0 1 0 2 0 2 0 1 -0 1 -4 -3 -1 -1 -2 -3 -2 -2
2 1 0 0 0 -1 -2 -3 -3 -3 -2 1 3 3 3 2 2 1 2 1 1 5 5 5 6 5 3 2 2 2 1 2 1 -2 -0 -1 -2 -0 1 2 2 1 -1 -0 -0 -2 -1 -2 -3 -2 -1 -1 -1 -1
1 1 1 1 0 -1 -1 -2 -3 -5 -4 -3 1 3 2 -0 -1 -1 1 -0 -2 -1 3 5 5 6 6 4 2 1 1 0 -0 -0 1 -0 -2 0 -1 -0 1 1 0 0 0 -0 -1 -2 -2 -2 -2 -2 -1 -0
1 1 1 1 0 -0 -1 -2 -3 -4 -5 -5 -5 -2 2 2 1 1 0 -1 -3 -4 3 5 4 4 5 6 5 4 2 1 1 2 1 1 -1 0 1 1 1 0 0 1 1 -4 -2 -3 -3 -2 0 0 1 2
2 2 1 1 1 1 -1 -2 -2 -3 -4 -5 -5 -4 -2 -1 -1 -1 -1 1 -1 -3 -1 3 4 5 4 5 5 4 4 4 4 4 3 2 1 1 3 4 1 -0 -1 -2 -2 -2 -1 0 0 1 2 2 3 3
3 2 2 1 1 1 -1 -1 -2 -2 -3 -4 -5 -5 -5 -5 -5 -7 -4 2 2 -1 -2 3 3 5 5 6 6 6 6 5 5 4 3 3 4 2 2 1 0 -0 -0 -0 0 1 2 1 1 1 2 3 2 2
4 3 3 2 2 2 -0 -0 -1 -1 -2 -3 -4 -5 -5 -5 -5 -1 1 4 3 -1 -1 1 0 4 5 6 6 5 6 6 6 5 4 3 3 2 3 3 3 3 2 2 2 3 3 3 3 3 3 3 -2 -6
4 4 3 3 3 2 1 1 1 1 -0 -2 -2 -3 -3 -3 -1 3 3 3 3 -1 2 0 0 1 5 5 4 5 5 4 4 3 3 4 2 3 2 1 2 2 2 3 3 3 3 3 2 -1 -2 -4 -1 -0
4 4 4 4 4 2 2 3 3 2 1 0 -0 -0 1 2 2 3 3 2 3 4 4 1 2 2 3 4 3 3 3 3 4 2 4 2 3 1 -1 -0 1 2 1 2 3 1 0 -2 -2 -1 -0 -1 -2 -2
4 4 5 4 4 4 4 4 3 3 2 1 1 2 4 4 2 2 3 2 3 3 3 3 3 2 3 3 2 2 2 1 3 1 3 2 2 -1 -2 -0 1 2 2 2 2 0 -0 -0 -1 -2 -2 -3 -4 -7
1 2 3 4 4 5 4 4 3 3 2 2 2 4 3 3 3 1 1 2 2 2 2 3 3 3 3 3 2 2 1 1 3 1 2 3 -1 -1 -1 0 0 0 0 -0 -1 -1 -1 -2 -3 -4 -5 -6 -9 -13
1 1 2 3 4 4 4 4 4 3 3 3 3 3 2 2 3 3 4 3 2 1 2 2 1 2 3 2 1 1 3 2 1 2 2 1 -1 -1 -1 -1 -1 -1 -1 -1 -1 -1 -2 -4 -5 -6 -8 -14 -16 -15
1 1 1 2 2 3 4 4 4 4 3 3 2 2 1 1 0 0 1 0 -0 0 1 2 1 1 1 1 0 3 0 0 2 1 -0 -1 -2 -2 -3 -4 -1 -2 -3 -7 -8 -8 -9 -11 -14 -15 -15 -14 -14 -13
0 0 -0 -0 0 2 3 3 3 3 2 1 0 -0 -1 -2 -1 -1 -1 -0 -0 0 1 1 0 1 -0 0 -1 -0 0 0 -2 -3 -0 -2 -2 -3 -3 -3 -2 -4 -5 -5 -5 -6 -7 -10 -13 -12 -12 -10 -10 -11
-3 -3 -3 -3 -3 -1 0 1 -0 -3 -2 -1 -1 -1 -2 -1 -1 -1 -1 -1 -0 0 0 0 -0 -2 -1 -0 -1 0 -1 -2 -1 -1 -1 -1 -1 -1 -3 -4 -5 -5 -5 -5 -7 -10 -11 -10 -11 -11 -11 -10 -10 -10
-6 -5 -5 -4 -5 -4 -3 -2 -4 -4 -2 -2 -1 -1 -1 -1 -1 -1 -1 -1 -0 -0 -0 -1 -2 -2 -2 -2 -1 -1 -3 -1 -1 -1 -1 -1 -1 -3 -6 -7 -10 -10 -10 -10 -10 -9 -9 -9 -8 -7 -8 -8 -7 -8
-11 -8 -8 -7 -6 -5 -5 -4 -3 -3 -2 -2 -1 -1 -1 -1 -1 -1 -1 -0 -1 -1 -1 -3 -2 -4 -4 -3 -3 -3 -2 -2 -2 -2 -1 -1 -2 -5 -6 -7 -8 -7 -8 -8 -8 -7 -6 -7 -7 -7 -7 -7 -7 -7
-9 -9 -12 -9 -8 -7 -4 -3 -4 -4 -2 -2 -2 -2 -1 -1 -1 -1 -1 -3 -3 -3 -2 -2 -6 -4 -4 -2 -1 -1 -1 -2 -3 -2 -1 -3 -5 -6 -7 -7 -7 -7 -7 -6 -6 -6 -7 -7 -7 -8 -10 -12 -13 -13
-17 -14 -14 -12 -8 -5 -3 -3 -3 -4 -3 -2 -2 -3 -3 -3 -3 -3 -2 -2 -3 -3 -3 -5 -5 -3 -4 -4 -4 -3 -2 -3 -2 -3 -5 -6 -6 -7 -7 -7 -6 -5 -6 -8 -10 -12 -13 -14 -15 -15 -14 -13 -13 -13
-17 -14 -13 -9 -7 -5 -4 -4 -4 -4 -4 -4 -3 -4 -4 -4 -4 -4 -3 -4 -4 -4 -3 -2 -2 -4 -4 -4 -3 -4 -4 -5 -5 -5 -5 -6 -6 -5 -6 -7 -8 -10 -11 -11 -12 -14 -15 -14 -14 -14 -15 -15 -15 -15
-18 -15 -11 -8 -6 -4 -4 -4 -4 -4 -4 -4 -4 -4 -5 -4 -4 -4 -4 -4 -5 -4 -3 -3 -3 -4 -4 -4 -4 -5 -5 -6 -6 -7 -7 -6 -5 -6 -8 -9 -10 -11 -12 -13 -14 -14 -14 -15 -16 -17 -17 -18 -17 -17
-14 -14 -8 -6 -5 -5 -4 -4 -4 -5 -6 -3 -3 -4 -4 -4 -4 -4 -4 -5 -5 -5 -4 -4 -3 -2 -2 -3 -4 -5 -6 -6 -7 -7 -7 -7 -9 -10 -10 -11 -12 -13 -14 -14 -14 -15 -17 -19 -21 -22 -21 -20 -19 -18
-12 -8 -5 -5 -5 -6 -4 -3 -3 -4 -4 -4 -7 -6 -6 -5 -5 -5 -6 -6 -5 -5 -4 -4 -4 -4 -5 -5 -5 -6 -6 -7 -7 -8 -9 -10 -10 -10 -11 -13 -13 -13 -14 -16 -18 -21 -24 -24 -24 -23 -22 -21 -19 -18
-8 -6 -6 -6 -5 -6 -12 -12 -7 -6 -9 -10 -6 -8 -5 -5 -9 -7 -8 -6 -6 -6 -5 -5 -5 -5 -5 -6 -8 -8 -8 -9 -8 -8 -8 -9 -11 -13 -13 -13 -14 -16 -20 -23 -25 -25 -24 -24 -23 -22 -21 -19 -18 -17
-7 -6 -6 -7 -6 -7 -11 -9 -11 -10 -10 -8 -8 -6 -5 -7 -7 -7 -7 -8 -8 -8 -7 -7 -6 -7 -7 -8 -8 -9 -9 -9 -9 -10 -12 -13 -13 -13 -14 -16 -20 -24 -24 -23 -23 -23 -23 -22 -22 -22 -21 -19 -18 -17
-9 -9 -5 -5 -5 -5 -5 -5 -5 -6 -7 -6 -7 -7 -6 -5 -7 -9 -9 -9 -9 -9 -8 -8 -8 -8 -8 -9 -9 -9 -10 -11 -13 -14 -14 -14 -14 -17 -21 -23 -24 -23 -22 -22 -22 -22 -22 -22 -21 -20 -19 -19 -18 -18
-5 -5 -7 -5 -5 -5 -5 -6 -7 -6 -6 -5 -6 -6 -6 -8 -9 -12 -11 -11 -10 -10 -10 -10 -10 -10 -10 -10 -11 -11 -13 -15 -16 -16 -16 -20 -22 -22 -22 -22 -22 -22 -22 -21 -21 -21 -21 -21 -20 -20 -19 -19 -19 -19
-5 -5 -5 -6 -5 -5 -6 -6 -6 -6 -6 -6 -7 -8 -11 -12 -12 -12 -12 -11 -11 -11 -11 -11 -11 -12 -12 -12 -13 -15 -18 -20 -21 -21 -22 -23 -23 -22 -22 -22 -22 -21 -21 -21 -21 -21 -21 -20 -20 -19 -19 -19 -19 -19
-6 -6 -5 -6 -7 -8 -6 -6 -6 -6 -7 -7 -8 -11 -13 -13 -13 -13 -13 -13 -13 -13 -13 -13 -13 -13 -14 -17 -20 -22 -22 -22 -23 -23 -23 -23 -23 -22 -22 -21 -21 -21 -21 -21 -21 -21 -21 -20 -20 -20 -20 -20 -20 -20
-7 -6 -7 -6 -6 -7 -7 -7 -7 -7 -7 -7 -8 -10 -13 -14 -14 -14 -14 -14 -14 -14 -14 -14 -15 -19 -22 -22 -22 -23 -23 -24 -25 -25 -25 -24 -22 -22 -21 -21 -22 -23 -23 -22 -21 -21 -21 -20 -20 -20 -20 -20 -20 -20
-8 -8 -8 -10 -7 -8 -8 -8 -9 -8 -8 -8 -10 -11 -12 -13 -15 -15 -16 -15 -15 -16 -19 -21 -22 -22 -23 -24 -25 -26 -28 -28 -29 -29 -27 -26 -24 -23 -23 -24 -24 -23 -22 -21 -21 -21 -21 -21 -20 -20 -20 -20 -20 -20
-8 -8 -9 -8 -8 -7 -8 -9 -11 -9 -10 -11 -12 -13 -13 -14 -15 -16 -16 -16 -17 -20 -22 -22 -22 -23 -25 -26 -28 -29 -30 -31 -30 -28 -27 -25 -24 -24 -23 -22 -22 -21 -21 -21 -21 -21 -21 -21 -21 -21 -21 -21 -21 -21

GFSWCAN_850_dewp_027.txt.gz
Dewpoint
3 3 4 3 2 -0 -1 -0 1 1 1 3 3 2 0 -0 1 2 2 4 3 5 5 4 2 2 2 2 5 3 3 3 1 3 3 2 3 2 1 -0 3 3 4 4 1 2 3 -5 -1 2 -0 -3 -5 -1
3 3 3 2 -0 -1 0 1 1 2 4 3 4 3 1 -0 1 1 4 5 4 4 6 5 4 2 2 1 2 3 2 2 1 3 1 1 3 2 1 3 1 2 2 3 1 2 -3 -4 -1 -2 -2 -2 -4 -2
3 2 1 0 -0 1 1 1 2 4 4 4 3 3 2 -0 0 3 4 4 4 6 6 6 6 5 2 2 2 2 1 2 0 -1 -1 1 2 1 4 3 2 1 -1 1 0 -1 -2 -3 -4 -4 -4 -3 -3 -1
2 1 1 1 1 0 -0 1 1 3 5 6 5 1 -0 -0 3 2 3 3 3 3 4 5 6 6 5 3 2 1 1 1 0 -2 -1 1 3 -0 2 1 2 1 0 1 1 -0 -2 -4 -4 -3 -3 -2 -1 -0
1 1 1 1 1 -0 -1 -1 -1 1 4 5 4 3 2 4 3 2 3 -0 0 -4 4 5 5 6 6 5 3 2 1 0 -0 1 1 2 -1 1 1 1 2 0 1 3 3 -3 -3 -3 -2 0 0 1 2 2
2 2 2 1 1 -0 -1 -1 -2 -3 -0 4 4 3 3 3 3 3 0 -1 -3 -4 1 4 5 6 6 5 4 3 2 2 2 3 3 1 1 1 4 3 0 -0 -1 -1 -1 -1 0 1 1 2 2 1 2 3
2 2 2 1 -0 -0 -1 -2 -1 -3 -2 1 3 4 3 3 1 -3 -3 1 -2 -5 -3 3 3 5 6 6 6 6 5 5 4 4 2 3 3 1 2 4 2 2 2 3 3 3 2 2 3 3 3 3 3 2
2 2 1 0 0 -0 -0 -1 -2 -3 -2 -1 0 -1 -1 -3 -4 2 4 2 -1 -5 -4 1 1 4 5 6 5 5 6 5 5 4 3 2 3 3 4 2 1 1 1 3 2 3 3 3 3 2 1 -1 -2 -1
2 2 2 2 2 1 0 -1 -1 -1 -2 -2 -2 -3 -4 -5 -2 4 3 2 -1 -4 0 -1 1 3 4 4 4 4 5 4 4 3 3 4 2 3 -1 -1 -0 1 2 2 3 2 2 1 -1 -2 -2 -1 -1 -1
3 2 2 2 2 2 1 1 0 0 -1 -1 -3 -3 -0 3 2 2 -1 -0 -0 2 3 1 1 2 3 3 2 3 3 2 4 2 3 3 2 -2 -0 -0 0 1 2 3 2 -1 -0 -1 -1 -1 -2 -2 -3 -4
4 4 3 3 3 4 3 2 1 1 1 -0 -0 3 4 3 0 1 2 2 2 2 3 2 3 2 3 3 2 2 2 1 3 2 3 3 2 -2 -1 -1 -0 0 0 0 0 -1 -1 -2 -2 -2 -2 -3 -4 -5
4 4 4 4 4 4 3 3 2 2 1 1 2 3 1 2 1 2 2 1 1 2 2 3 3 3 2 3 2 2 2 1 3 1 3 3 -1 -1 -1 -1 -1 -1 -1 -1 -2 -2 -2 -5 -8 -8 -7 -9 -12 -12
2 4 4 4 4 4 4 3 3 3 2 2 2 2 2 2 1 0 4 3 2 1 2 2 1 2 2 2 1 2 3 3 1 3 3 1 -1 -1 -1 -1 -1 -1 -3 -6 -7 -7 -6 -6 -7 -9 -12 -12 -12 -12
1 1 2 3 4 4 4 4 3 3 3 3 2 2 -1 2 1 1 1 1 -0 1 1 2 1 1 1 1 0 3 0 1 3 2 -0 -1 -2 -2 -1 -1 -3 -7 -8 -8 -7 -7 -8 -10 -12 -12 -12 -12 -12 -11
-0 0 1 1 2 3 4 4 4 3 3 1 -0 -0 -1 -2 -1 -1 -1 -0 -0 0 1 2 1 1 0 0 -1 0 0 0 -1 -1 -1 -2 -2 -3 -3 -2 -4 -6 -6 -5 -5 -6 -9 -11 -10 -10 -10 -9 -10 -9
-3 -3 -2 -2 0 2 2 2 3 2 0 -1 -1 -1 -1 -1 -1 -1 -1 -1 -0 0 1 0 -0 0 -0 -0 -0 -0 -0 -1 -1 -1 -2 -2 -2 -2 -2 -3 -5 -5 -5 -7 -10 -9 -8 -9 -9 -8 -7 -7 -7 -7
-7 -6 -5 -4 -3 -1 -1 -2 -5 -3 -2 -2 -1 -1 -1 -1 -1 -1 -1 -0 -0 0 -0 -1 -1 -0 -2 -0 0 -1 -1 -2 -1 -1 -1 -2 -2 -2 -4 -6 -8 -9 -8 -8 -7 -7 -7 -6 -6 -8 -10 -10 -10 -11
-10 -9 -8 -6 -4 -4 -4 -5 -3 -3 -2 -2 -2 -2 -1 -1 -1 -1 -1 -0 -1 -1 -1 -1 -2 -2 -2 -2 -1 -2 -2 -1 -1 -1 -1 -1 -2 -4 -6 -8 -7 -7 -7 -7 -7 -6 -6 -8 -10 -12 -14 -16 -17 -17
-16 -15 -11 -10 -9 -9 -4 -4 -4 -3 -2 -2 -2 -2 -1 -2 -2 -1 -2 -2 -3 -2 -2 -3 -4 -3 -2 -3 -3 -2 -1 -1 -1 -1 -1 -2 -4 -5 -6 -7 -6 -7 -6 -6 -6 -8 -11 -13 -14 -15 -15 -16 -16 -17
-19 -20 -17 -12 -11 -7 -4 -4 -4 -4 -3 -2 -2 -3 -3 -3 -2 -2 -2 -3 -3 -3 -3 -5 -5 -3 -4 -3 -2 -2 -2 -2 -2 -2 -4 -5 -6 -6 -6 -6 -6 -6 -7 -10 -11 -12 -14 -15 -15 -16 -17 -18 -20 -22
-24 -24 -18 -14 -8 -5 -4 -5 -5 -5 -4 -3 -3 -4 -4 -3 -3 -3 -3 -4 -4 -4 -3 -3 -3 -3 -2 -4 -4 -3 -3 -4 -2 -3 -5 -5 -5 -6 -6 -7 -9 -10 -11 -12 -13 -14 -15 -16 -17 -20 -23 -25 -25 -24
-22 -22 -18 -9 -6 -5 -4 -5 -4 -4 -5 -5 -5 -5 -5 -5 -4 -4 -4 -4 -5 -4 -4 -3 -3 -4 -4 -4 -4 -5 -5 -5 -5 -5 -6 -5 -5 -6 -8 -10 -11 -11 -12 -14 -15 -15 -17 -21 -24 -25 -25 -25 -24 -23
-19 -19 -12 -7 -6 -5 -5 -5 -5 -6 -6 -3 -4 -5 -4 -5 -4 -5 -5 -5 -5 -5 -4 -4 -3 -3 -3 -4 -4 -5 -6 -7 -7 -7 -6 -7 -8 -10 -10 -10 -12 -13 -14 -15 -17 -21 -24 -25 -25 -24 -24 -24 -23 -22
-15 -12 -7 -5 -6 -6 -5 -4 -4 -4 -4 -6 -7 -7 -6 -5 -4 -5 -5 -6 -6 -5 -5 -5 -5 -5 -5 -5 -5 -6 -6 -6 -7 -9 -10 -10 -10 -9 -9 -12 -14 -15 -17 -21 -24 -25 -24 -24 -24 -23 -23 -23 -22 -20
-10 -7 -7 -7 -6 -7 -10 -12 -8 -6 -9 -9 -8 -8 -6 -5 -8 -7 -7 -7 -8 -7 -7 -7 -6 -6 -7 -7 -8 -8 -8 -9 -8 -8 -8 -9 -10 -12 -14 -14 -17 -22 -25 -25 -25 -24 -23 -23 -23 -22 -22 -21 -21 -20
-8 -7 -7 -8 -7 -9 -10 -10 -12 -10 -11 -10 -9 -7 -6 -8 -9 -8 -9 -10 -9 -9 -8 -8 -8 -7 -8 -8 -9 -9 -9 -9 -9 -10 -11 -13 -14 -15 -18 -23 -25 -24 -24 -23 -23 -22 -22 -22 -22 -22 -21 -21 -20 -19
-9 -7 -6 -6 -6 -6 -7 -6 -6 -7 -9 -8 -8 -8 -7 -7 -9 -10 -10 -11 -10 -10 -9 -9 -9 -9 -9 -10 -10 -10 -11 -12 -13 -13 -14 -15 -19 -23 -24 -24 -24 -23 -22 -22 -22 -22 -22 -21 -21 -21 -21 -20 -20 -19
-6 -6 -8 -6 -5 -5 -6 -8 -9 -7 -6 -6 -6 -8 -7 -9 -10 -12 -12 -12 -11 -11 -11 -10 -10 -11 -11 -11 -11 -12 -13 -15 -16 -18 -21 -23 -23 -23 -23 -22 -22 -22 -21 -21 -21 -21 -21 -21 -21 -20 -20 -20 -20 -20
-5 -5 -5 -6 -6 -6 -6 -7 -6 -6 -6 -6 -7 -9 -12 -13 -13 -13 -12 -12 -12 -12 -12 -12 -12 -12 -12 -13 -13 -17 -21 -22 -22 -23 -23 -23 -23 -23 -23 -22 -22 -21 -22 -22 -22 -22 -22 -21 -21 -20 -20 -20 -20 -20
-6 -6 -6 -6 -9 -9 -7 -7 -7 -7 -7 -8 -9 -12 -13 -14 -14 -13 -13 -13 -13 -13 -13 -13 -13 -14 -17 -20 -22 -22 -22 -23 -25 -26 -26 -26 -26 -25 -24 -23 -23 -23 -25 -25 -24 -22 -21 -21 -20 -20 -20 -20 -20 -20
-8 -7 -7 -7 -7 -7 -8 -8 -7 -7 -8 -9 -9 -11 -14 -15 -15 -15 -15 -14 -14 -14 -14 -15 -18 -22 -22 -23 -24 -25 -26 -26 -29 -30 -30 -28 -26 -25 -25 -25 -25 -24 -23 -22 -22 -21 -21 -21 -21 -21 -20 -20 -20 -20
-9 -9 -9 -13 -8 -8 -8 -8 -9 -9 -9 -9 -11 -12 -14 -14 -15 -16 -16 -16 -16 -18 -20 -21 -22 -22 -24 -25 -27 -28 -29 -30 -31 -31 -30 -29 -27 -26 -25 -23 -21 -21 -21 -21 -21 -21 -21 -21 -21 -21 -21 -21 -21 -21
-9 -8 -9 -9 -9 -8 -9 -9 -11 -10 -10 -12 -13 -14 -14 -15 -16 -17 -17 -17 -17 -21 -21 -22 -22 -22 -23 -25 -26 -27 -28 -30 -31 -30 -27 -24 -24 -23 -21 -21 -21 -21 -21 -21 -21 -21 -21 -21 -21 -21 -21 -23 -25 -26

GFSWCAN_850_dewp_030.txt.gz
Dewpoint
-2 -1 -0 1 2 4 4 3 2 1 0 2 2 2 3 1 2 5 3 2 3 5 5 4 2 4 4 4 6 4 4 4 4 9 9 6 9 2 1 -1 3 4 7 8 4 9 8 -4 -1 2 -1 -1 -1 -1
1 2 2 3 4 3 2 1 0 1 2 2 2 3 3 0 1 4 4 4 3 4 7 4 3 2 2 4 5 3 4 3 3 6 7 6 7 5 5 5 0 3 2 3 2 1 -3 -3 -1 -1 0 -0 -0 0
2 4 3 3 2 1 0 1 1 1 2 3 4 3 2 0 4 4 3 3 4 6 7 7 7 3 2 1 1 4 3 4 2 3 4 6 8 4 8 5 3 1 -0 2 1 -3 -2 -2 -2 -2 -2 -1 -1 -0
3 2 2 1 1 2 2 2 3 4 4 4 4 3 0 1 4 3 3 4 5 6 7 7 6 5 4 3 2 1 1 1 0 0 5 6 9 2 5 2 2 1 0 1 1 -1 -2 -2 -1 -1 0 1 1 2
1 1 1 2 3 3 3 4 5 6 5 4 4 2 1 1 5 4 3 4 4 2 7 7 6 6 6 4 3 1 1 1 1 4 6 8 2 4 2 3 3 -0 1 3 2 -1 -1 -1 1 2 2 3 3 3
1 2 2 2 2 2 4 6 5 5 5 3 3 3 2 2 3 3 3 3 -0 4 5 8 5 6 5 4 2 1 1 0 4 5 5 2 2 3 6 5 3 3 3 3 2 3 3 3 3 3 3 2 1 1
1 1 2 2 1 2 3 5 7 6 5 4 2 2 1 4 2 0 3 1 0 -1 0 6 6 6 6 5 5 5 4 4 6 5 3 4 4 3 5 6 2 2 2 3 3 4 3 2 1 -1 -0 -0 0 -0
2 2 2 2 1 2 1 3 5 6 6 6 6 5 5 4 1 3 2 -0 -3 -5 -5 6 5 6 5 5 5 5 6 6 5 4 3 4 3 4 6 1 1 2 2 3 0 2 1 -1 -0 -0 -0 -1 -1 -1
2 2 2 2 1 1 -0 1 3 2 2 2 2 1 2 2 2 3 -0 -2 -4 -6 3 2 7 6 4 4 4 5 5 5 4 5 4 5 4 5 -0 0 1 1 1 1 1 1 0 -1 -1 -2 -1 -2 -3 -3
2 3 3 2 1 1 1 2 -1 -1 -1 -2 -4 -5 -1 3 3 0 -2 -3 -4 -1 1 2 3 4 4 4 3 4 4 4 5 4 3 5 1 -1 -1 -0 0 0 1 1 -0 -1 -1 -2 -2 -2 -2 -2 -3 -5
3 2 2 2 2 1 2 1 0 -2 -2 -4 -1 3 3 0 -1 -0 2 3 3 4 3 2 3 4 3 4 4 2 4 4 5 4 5 4 2 -1 -1 -1 -0 -0 0 0 -0 -2 -2 -3 -3 -5 -5 -5 -3 -5
3 3 3 3 2 1 1 1 1 0 -1 1 2 1 0 1 1 3 3 3 4 4 2 3 2 3 2 3 3 2 4 3 5 2 5 4 0 -1 -1 -1 -1 -2 -2 -1 -1 -2 -2 -2 -3 -4 -8 -11 -11 -11
4 3 3 3 3 3 3 2 2 1 1 1 0 0 1 1 5 6 5 4 4 1 2 2 2 2 2 3 2 3 5 5 1 3 4 1 -1 -1 -1 -1 -1 -2 -2 -3 -4 -7 -10 -10 -11 -10 -10 -10 -10 -9
3 3 4 4 4 4 3 2 3 3 2 2 2 4 3 4 2 2 3 2 -0 1 2 2 1 2 2 2 2 4 1 2 4 3 2 -0 -2 -1 -1 -1 -2 -4 -8 -7 -6 -7 -9 -11 -11 -10 -9 -9 -10 -11
1 2 3 4 4 4 4 3 3 2 2 1 -1 2 1 -2 -1 -1 -1 -0 -0 1 2 2 2 2 1 2 1 2 3 3 2 2 0 -1 -2 -2 -2 -3 -4 -7 -5 -5 -5 -8 -10 -10 -10 -10 -10 -10 -8 -8
-1 0 1 2 2 3 3 4 4 3 0 -1 -1 -0 -1 -1 -1 -1 -1 -1 0 1 1 1 1 3 2 2 3 3 3 2 0 -0 -2 -2 -2 -2 -2 -3 -4 -3 -5 -8 -10 -9 -9 -8 -8 -7 -6 -7 -11 -14
-5 -4 -2 -1 -1 -2 -2 1 0 -1 -1 -1 -1 -1 -1 -1 -1 -1 -1 -1 0 0 1 1 3 2 -0 1 2 0 2 0 -1 -2 -2 -2 -3 -2 -2 -4 -5 -7 -8 -8 -7 -7 -7 -6 -6 -8 -13 -15 -16 -17
-8 -6 -4 -3 -3 -4 -7 -5 -3 -3 -2 -2 -1 -2 -2 -1 -1 -1 -1 -1 -0 -0 0 0 -1 0 2 1 1 -0 -1 -1 -1 -2 -2 -2 -2 -3 -3 -5 -7 -7 -7 -7 -6 -6 -7 -9 -12 -13 -15 -16 -17 -18
-14 -11 -8 -6 -7 -9 -5 -4 -4 -2 -2 -2 -2 -2 -2 -2 -2 -2 -2 -3 -2 -2 -2 -2 1 -0 0 -1 -1 -2 -2 -1 -2 -2 -2 -2 -2 -3 -6 -7 -6 -6 -6 -6 -6 -9 -12 -12 -14 -16 -17 -19 -23 -25
-20 -14 -12 -11 -13 -7 -4 -4 -5 -3 -2 -3 -3 -3 -3 -3 -2 -2 -3 -3 -3 -3 -2 -1 -1 -2 -2 -2 -2 -1 -1 -1 -2 -3 -4 -4 -4 -5 -6 -6 -6 -6 -7 -9 -11 -12 -14 -15 -16 -19 -23 -26 -27 -27
-26 -21 -15 -16 -9 -5 -5 -5 -5 -4 -4 -3 -3 -4 -4 -4 -3 -3 -4 -4 -3 -3 -3 -4 -4 -4 -4 -3 -2 -2 -2 -2 -2 -3 -4 -5 -6 -6 -6 -6 -7 -10 -11 -12 -13 -14 -16 -18 -22 -26 -27 -26 -26 -24
-24 -24 -17 -10 -6 -5 -5 -5 -4 -5 -5 -4 -4 -5 -4 -3 -3 -4 -3 -3 -4 -4 -4 -4 -4 -4 -4 -5 -5 -5 -5 -4 -4 -5 -5 -6 -6 -6 -7 -9 -11 -11 -12 -14 -16 -18 -22 -25 -26 -26 -25 -25 -24 -23
-24 -22 -14 -8 -7 -6 -5 -4 -5 -6 -5 -4 -4 -4 -4 -4 -4 -5 -4 -4 -5 -5 -5 -5 -5 -4 -4 -4 -5 -5 -6 -6 -6 -6 -6 -6 -7 -8 -10 -10 -10 -12 -15 -18 -22 -25 -25 -25 -25 -24 -24 -23 -23 -22
-18 -13 -9 -6 -6 -5 -5 -5 -4 -4 -4 -5 -4 -4 -4 -4 -4 -5 -5 -5 -7 -7 -6 -7 -6 -7 -7 -7 -7 -7 -6 -7 -7 -8 -9 -10 -10 -9 -9 -11 -13 -16 -21 -24 -25 -25 -24 -24 -23 -23 -22 -22 -22 -21
-13 -8 -7 -6 -7 -6 -5 -5 -5 -5 -4 -5 -4 -4 -5 -5 -5 -6 -6 -8 -8 -9 -8 -8 -8 -7 -8 -9 -9 -9 -9 -9 -8 -8 -9 -9 -10 -11 -13 -16 -21 -24 -25 -24 -24 -24 -23 -23 -22 -22 -22 -21 -21 -20
-6 -7 -6 -6 -6 -5 -6 -5 -5 -5 -6 -5 -5 -6 -5 -5 -6 -7 -10 -9 -10 -10 -9 -9 -9 -9 -9 -10 -10 -10 -10 -10 -10 -10 -10 -12 -13 -15 -21 -24 -24 -23 -24 -24 -24 -23 -22 -22 -22 -22 -22 -21 -20 -20
-6 -6 -6 -6 -6 -6 -6 -6 -6 -6 -6 -5 -5 -5 -5 -6 -7 -10 -10 -11 -11 -11 -10 -10 -9 -10 -10 -10 -10 -10 -11 -11 -12 -12 -13 -16 -21 -23 -24 -24 -24 -24 -23 -23 -22 -22 -22 -22 -23 -22 -21 -21 -20 -20
-6 -6 -6 -6 -6 -6 -6 -6 -6 -5 -6 -6 -5 -6 -6 -7 -9 -12 -13 -12 -12 -11 -11 -11 -11 -11 -11 -11 -12 -12 -13 -14 -17 -20 -23 -24 -24 -24 -24 -25 -24 -23 -23 -23 -23 -24 -24 -23 -23 -22 -21 -20 -20 -20
-6 -6 -6 -7 -6 -6 -6 -6 -6 -6 -7 -6 -6 -8 -11 -14 -14 -14 -13 -13 -12 -12 -12 -12 -13 -13 -13 -13 -15 -19 -21 -22 -22 -24 -25 -24 -24 -23 -27 -26 -25 -25 -25 -26 -25 -24 -23 -22 -21 -21 -21 -20 -20 -20
-6 -7 -6 -7 -7 -6 -7 -7 -7 -8 -8 -9 -10 -12 -14 -15 -14 -14 -14 -14 -14 -13 -14 -14 -14 -15 -18 -20 -22 -22 -23 -24 -26 -28 -27 -27 -28 -28 -28 -27 -27 -26 -25 -23 -22 -22 -22 -21 -21 -21 -21 -21 -20 -20
-8 -7 -7 -7 -7 -7 -8 -8 -8 -8 -9 -10 -11 -12 -14 -16 -15 -15 -15 -15 -15 -15 -15 -16 -20 -22 -22 -23 -25 -26 -25 -26 -29 -30 -30 -30 -29 -28 -26 -25 -23 -22 -21 -21 -21 -21 -21 -21 -21 -21 -21 -21 -21 -21
-9 -9 -9 -8 -8 -9 -8 -8 -9 -9 -10 -11 -13 -14 -15 -15 -16 -17 -17 -16 -16 -18 -20 -21 -22 -23 -24 -24 -24 -25 -26 -27 -29 -29 -29 -28 -25 -23 -23 -22 -21 -21 -21 -21 -21 -21 -21 -21 -21 -21 -21 -21 -22 -24
-9 -9 -10 -9 -9 -9 -10 -11 -12 -11 -12 -12 -14 -14 -15 -15 -16 -17 -17 -17 -18 -19 -21 -21 -20 -20 -21 -23 -24 -25 -26 -26 -26 -24 -23 -22 -22 -21 -21 -21 -21 -21 -21 -21 -21 -21 -21 -21 -21 -21 -22 -24 -26 -26

GFSWCAN_850_dewp_033.txt.gz
Dewpoint
-4 -4 -4 -4 -3 -3 -1 -1 0 1 1 2 3 3 2 3 3 6 9 2 2 4 4 3 0 -1 1 0 7 4 4 4 4 8 10 7 9 3 2 -0 4 5 7 8 6 9 8 -5 -3 -0 1 -4 -4 -2
-5 -4 -3 -3 -3 -1 -0 1 1 1 3 4 3 2 3 3 4 7 9 4 4 5 7 8 5 3 4 4 2 4 2 4 4 5 9 9 9 7 6 4 -1 3 2 3 2 2 -3 -4 -4 -4 -3 -1 -2 -2
-3 -3 -1 -0 1 1 1 2 4 4 3 1 1 3 3 2 4 8 8 4 3 8 7 6 6 4 3 5 4 4 6 3 4 5 6 8 9 6 8 5 3 -0 -1 1 0 -4 -5 -4 -3 -2 -2 -1 -0 -0
-0 0 1 2 3 3 2 2 2 1 1 2 3 3 2 2 4 7 8 4 5 6 9 7 6 7 3 2 3 5 4 4 5 5 8 7 9 3 6 3 2 1 -0 -1 0 -2 -3 -3 -1 1 2 2 2 2
3 2 2 2 2 3 2 2 1 2 2 2 2 2 1 1 3 6 6 4 5 5 8 7 7 6 6 5 3 1 4 3 4 7 7 9 4 5 4 4 4 -0 1 3 3 1 2 1 3 3 3 3 3 3
4 5 5 5 5 4 4 4 3 2 2 3 3 3 1 1 5 5 4 4 4 6 7 9 7 7 7 6 5 5 5 5 4 7 7 3 3 5 9 5 3 2 2 3 3 3 3 3 1 1 1 1 1 0
3 3 4 5 6 6 5 5 5 5 4 4 4 2 1 5 6 5 3 3 3 3 7 8 7 6 6 6 6 6 6 6 6 6 6 6 4 4 7 6 3 2 2 3 2 3 3 1 1 1 1 -0 0 0
0 3 5 7 7 7 5 5 5 5 5 4 3 2 2 5 5 3 3 2 2 2 5 7 7 7 6 7 7 6 7 7 6 5 5 5 4 6 7 2 2 2 3 2 1 1 1 1 0 0 -0 -1 -1 -2
3 3 2 5 5 5 6 6 5 5 5 4 3 3 4 5 3 2 2 1 -2 5 5 5 7 7 5 5 5 6 6 6 5 6 5 5 5 6 2 1 1 1 2 1 1 1 0 -0 -1 -2 -2 -3 -2 -2
3 2 2 4 5 4 4 5 6 6 6 6 5 4 4 4 2 2 1 -1 5 3 3 4 5 6 4 5 4 5 4 6 6 5 4 6 3 0 0 0 1 1 1 1 0 -1 -1 -1 -1 -1 -1 -1 -2 -3
2 1 2 1 2 3 3 2 -0 1 1 -2 0 4 3 4 3 2 4 5 4 5 3 3 4 4 4 5 4 4 6 5 5 5 5 5 3 -0 -1 -0 -0 0 1 1 -0 -1 -1 -1 -1 -1 -2 -2 -3 -5
2 2 3 2 2 1 -0 -1 -2 -3 -3 -1 1 2 1 3 2 5 4 4 5 4 3 3 3 3 3 4 3 3 4 3 6 2 6 5 1 -1 -1 -0 -0 -1 -1 -1 -1 -2 -2 -3 -3 -4 -6 -5 -8 -10
3 3 3 2 2 1 1 0 1 0 -1 -1 -0 -1 3 2 6 6 4 5 4 2 2 3 3 3 3 3 3 3 6 6 2 5 4 2 -1 -1 -1 -0 -1 -1 -2 -3 -4 -5 -5 -6 -8 -5 -9 -10 -6 -10
4 3 3 3 3 2 1 1 1 1 1 1 2 4 4 4 3 3 3 3 0 1 2 2 2 3 2 3 3 7 2 3 5 5 4 0 -1 -1 -1 -1 -2 -3 -5 -5 -5 -6 -10 -11 -11 -10 -10 -10 -10 -9
3 3 3 4 3 3 3 2 1 1 3 1 1 3 2 -1 -1 -1 -0 -0 0 1 2 3 3 3 3 3 3 3 3 4 3 4 1 -1 -1 -1 -1 -2 -4 -5 -5 -3 -4 -9 -10 -10 -8 -8 -10 -9 -8 -9
1 2 2 3 4 4 3 3 2 1 -1 -1 -1 0 -1 0 -0 -1 -0 -1 0 1 2 3 3 4 3 2 3 5 5 4 2 1 -0 -1 -1 -1 -1 -3 -3 -2 -3 -5 -5 -9 -9 -8 -7 -7 -7 -8 -13 -15
-1 0 -0 1 2 2 3 3 2 -1 -1 -1 -1 -1 -1 -1 -1 -1 -1 -1 0 1 2 2 5 3 1 2 3 2 4 1 0 -1 -1 -2 -1 -2 -2 -2 -3 -4 -4 -4 -4 -4 -7 -7 -7 -8 -11 -12 -15 -13
-3 -2 -2 -4 -6 -6 -4 -2 -2 -1 -1 -1 -1 -2 -2 -2 -2 -1 -1 -0 -0 -0 0 2 0 2 4 3 2 0 -0 -0 -1 -2 -2 -1 -2 -2 -2 -2 -4 -4 -4 -5 -7 -6 -6 -9 -9 -10 -11 -14 -14 -13
-8 -6 -6 -6 -8 -8 -5 -4 -2 -2 -2 -2 -2 -2 -2 -2 -2 -2 -2 -2 -2 -1 0 1 2 3 2 -0 -0 -1 -1 -1 -2 -2 -2 -2 -2 -3 -3 -4 -4 -5 -6 -6 -6 -7 -8 -11 -12 -13 -14 -20 -19 -13
-14 -11 -11 -11 -14 -8 -3 -3 -2 -2 -2 -2 -3 -3 -2 -2 -2 -3 -3 -2 -1 -1 -1 -1 -1 -3 -3 -3 -2 -1 -1 -2 -2 -3 -3 -3 -3 -4 -4 -5 -5 -6 -7 -8 -10 -11 -10 -10 -12 -17 -22 -25 -18 -16
-19 -17 -16 -16 -10 -5 -3 -3 -3 -3 -2 -3 -3 -2 -2 -2 -2 -2 -2 -2 -3 -3 -3 -3 -4 -5 -4 -4 -3 -2 -1 -2 -2 -2 -3 -4 -5 -5 -6 -7 -7 -7 -7 -8 -9 -10 -13 -14 -18 -25 -25 -19 -21 -16
-22 -20 -17 -13 -8 -5 -4 -4 -4 -4 -4 -3 -4 -4 -3 -2 -2 -3 -2 -3 -4 -4 -5 -5 -4 -4 -5 -5 -5 -4 -3 -3 -3 -3 -4 -5 -6 -7 -7 -8 -8 -9 -10 -11 -12 -15 -18 -23 -25 -26 -24 -22 -18 -14
-25 -23 -15 -10 -8 -6 -4 -3 -4 -5 -4 -4 -4 -5 -4 -4 -4 -4 -4 -4 -5 -6 -6 -6 -6 -6 -6 -7 -7 -6 -6 -6 -6 -7 -7 -7 -7 -8 -9 -9 -10 -10 -11 -15 -20 -23 -24 -25 -23 -24 -19 -19 -15 -15
-19 -14 -11 -6 -4 -4 -4 -4 -5 -5 -4 -5 -5 -4 -5 -5 -5 -5 -4 -6 -7 -7 -6 -6 -6 -7 -7 -8 -8 -9 -9 -9 -9 -9 -9 -9 -10 -11 -10 -10 -11 -14 -20 -24 -24 -24 -23 -22 -23 -20 -19 -19 -16 -17
-10 -7 -5 -5 -4 -5 -4 -4 -5 -5 -5 -5 -4 -4 -5 -4 -4 -5 -6 -7 -8 -8 -8 -8 -8 -8 -8 -9 -10 -9 -9 -10 -9 -9 -10 -10 -10 -11 -12 -14 -19 -23 -24 -24 -23 -24 -22 -23 -22 -21 -21 -17 -18 -18
-5 -5 -5 -5 -5 -5 -5 -5 -5 -5 -5 -5 -5 -5 -5 -5 -6 -7 -9 -9 -9 -10 -11 -10 -9 -9 -10 -10 -10 -10 -10 -11 -11 -10 -11 -11 -12 -13 -15 -15 -14 -15 -24 -25 -25 -25 -24 -23 -23 -23 -20 -18 -18 -19
-5 -5 -5 -6 -6 -6 -5 -5 -6 -6 -6 -5 -5 -5 -4 -5 -6 -9 -10 -11 -11 -12 -11 -11 -11 -12 -12 -12 -11 -11 -11 -11 -11 -12 -13 -17 -22 -23 -24 -24 -24 -24 -26 -27 -27 -26 -25 -25 -23 -20 -19 -19 -19 -20
-6 -6 -6 -5 -6 -6 -6 -6 -6 -5 -5 -6 -6 -6 -6 -7 -8 -11 -12 -13 -13 -12 -12 -12 -12 -12 -12 -12 -13 -13 -13 -16 -20 -22 -23 -23 -24 -24 -25 -26 -28 -29 -29 -29 -28 -28 -27 -25 -22 -20 -20 -20 -21 -21
-6 -6 -6 -6 -6 -6 -6 -7 -7 -7 -7 -6 -5 -7 -10 -12 -14 -13 -14 -13 -13 -13 -13 -14 -14 -14 -13 -15 -17 -20 -22 -22 -19 -21 -17 -16 -16 -16 -24 -28 -28 -27 -28 -27 -25 -23 -22 -22 -21 -21 -21 -21 -20 -21
-6 -6 -6 -6 -6 -7 -7 -7 -7 -8 -9 -9 -10 -11 -13 -15 -16 -15 -15 -14 -14 -14 -14 -14 -14 -16 -16 -15 -16 -23 -25 -25 -25 -26 -26 -22 -22 -26 -28 -24 -22 -21 -22 -21 -21 -21 -21 -21 -21 -21 -22 -22 -22 -22
-6 -6 -7 -7 -7 -7 -8 -8 -8 -9 -9 -10 -11 -11 -12 -15 -16 -15 -15 -15 -15 -16 -16 -16 -18 -19 -22 -24 -22 -21 -18 -23 -26 -27 -28 -28 -27 -25 -20 -21 -21 -21 -21 -21 -21 -21 -21 -21 -21 -22 -22 -22 -22 -22
-7 -7 -8 -8 -8 -8 -9 -8 -8 -8 -8 -10 -11 -13 -13 -13 -14 -16 -17 -17 -17 -17 -19 -17 -17 -22 -21 -21 -22 -23 -25 -26 -26 -25 -24 -23 -22 -22 -21 -21 -20 -20 -21 -21 -21 -21 -22 -22 -22 -22 -23 -23 -22 -24
-8 -8 -9 -9 -9 -9 -8 -9 -10 -10 -10 -11 -12 -13 -13 -13 -15 -17 -17 -17 -18 -19 -20 -19 -17 -17 -19 -22 -24 -25 -25 -24 -23 -22 -22 -22 -22 -21 -21 -21 -21 -21 -21 -22 -22 -22 -22 -22 -22 -22 -22 -23 -24 -26

GFSWCAN_850_dewp_036.txt.gz
Dewpoint
-4 -5 -7 -5 -5 -8 -7 -7 -6 -5 -3 -2 -1 -1 1 1 3 4 4 7 8 7 1 1 -2 -2 0 4 8 5 6 5 8 10 11 10 10 7 4 0 6 7 9 8 9 8 8 -5 -3 0 2 -2 -2 -2
-6 -6 -4 -3 -5 -5 -6 -6 -4 -3 -2 -1 -1 -0 1 3 4 4 5 7 7 9 7 5 2 2 2 3 5 5 4 4 5 7 9 11 8 8 9 7 -1 5 4 7 6 6 -1 -5 -4 -4 -3 -2 -1 -1
-6 -6 -6 -5 -4 -5 -4 -3 -2 -2 -1 -1 -0 1 2 3 3 4 6 8 8 8 7 5 7 3 3 5 4 5 4 3 3 3 8 10 7 9 8 9 6 -0 -0 4 2 -4 -4 -4 -3 -1 1 2 2 2
-5 -4 -4 -3 -3 -2 -1 -1 -0 0 -0 1 1 3 3 3 3 5 5 7 9 5 9 8 6 4 3 5 5 5 5 4 5 6 9 7 8 4 10 6 6 2 -0 -0 0 -2 -1 1 3 4 3 3 3 3
-3 -3 -3 -2 -1 -1 -1 -1 0 1 1 2 3 4 3 3 4 4 6 7 7 6 8 7 7 6 3 4 5 5 6 5 6 8 6 10 5 8 7 7 8 0 1 7 7 2 3 3 2 2 2 2 1 0
1 -0 0 1 1 1 0 1 3 3 4 3 3 2 4 4 4 5 7 5 4 7 7 9 7 7 6 6 6 6 5 5 5 9 8 5 4 7 9 9 2 2 2 3 3 3 4 2 2 2 1 1 1 0
3 3 3 3 3 2 2 3 2 2 3 3 3 3 4 4 5 7 5 4 2 7 7 8 7 7 7 7 7 6 6 7 6 7 7 6 4 6 7 9 3 2 2 3 2 3 2 2 2 1 1 0 -0 -1
3 5 6 6 5 4 3 3 3 3 3 3 3 4 4 4 5 5 3 3 2 5 7 7 6 7 7 7 7 7 8 7 6 6 6 7 6 7 8 3 2 2 2 2 1 2 1 1 1 0 -0 -1 -2 -2
5 5 6 7 6 6 5 4 3 3 3 4 5 4 5 6 6 3 3 3 2 1 7 5 7 7 6 6 6 7 7 6 5 7 6 6 6 7 4 2 2 2 2 1 1 1 1 0 -0 -1 -2 -1 -2 -3
4 5 5 6 6 7 6 5 6 5 5 5 5 5 6 5 2 2 2 2 1 5 4 5 6 7 5 5 5 5 5 6 7 5 5 6 3 1 1 1 1 1 2 1 1 0 0 -0 -1 -2 -1 -1 -2 -2
3 3 4 3 4 5 5 6 5 4 4 4 4 5 4 3 1 3 3 5 4 6 3 4 4 6 5 5 5 5 6 5 7 5 6 5 4 1 1 1 1 1 1 1 0 -0 -1 -1 -2 -2 -2 -3 -6 -8
2 2 3 2 2 2 5 5 5 5 4 3 3 3 1 1 2 4 5 4 5 5 3 4 4 4 4 4 4 4 4 4 6 3 6 5 2 0 1 0 0 0 0 -1 -1 -1 -1 -2 -2 -4 -5 -7 -9 -10
3 3 3 2 2 2 1 2 1 1 2 2 1 2 4 3 6 6 5 6 3 2 3 3 3 3 3 3 3 3 4 6 2 6 4 3 0 -0 0 -1 -1 -1 -2 -2 -2 -3 -4 -4 -5 -8 -9 -6 -5 -9
4 3 3 2 2 2 1 1 1 0 -0 2 3 3 4 4 2 2 2 2 0 2 3 2 3 3 3 3 2 4 2 3 5 5 5 1 -0 0 -0 -1 -2 -2 -4 -5 -5 -5 -11 -12 -11 -10 -11 -10 -9 -9
3 3 3 3 3 2 1 1 1 1 2 1 1 2 1 -1 -1 -1 -0 -0 1 2 3 3 3 3 3 3 3 3 3 4 4 4 2 -0 -1 -0 -1 -1 -3 -5 -5 -4 -5 -9 -10 -11 -9 -9 -9 -9 -8 -11
3 3 3 3 3 3 2 2 2 3 0 -0 -1 0 -1 0 -0 -1 -0 -1 1 2 3 2 4 4 3 3 3 5 4 5 3 1 -0 -1 -1 -1 -1 -3 -5 -4 -3 -4 -7 -10 -9 -5 -5 -7 -7 -9 -13 -14
0 0 1 2 3 3 2 2 -1 -1 -1 -1 -1 -1 -1 -1 -2 -2 -1 -1 1 1 2 3 3 3 1 3 3 3 3 2 0 -0 -1 -1 -1 -1 -2 -2 -2 -2 -4 -4 -4 -5 -5 -6 -6 -8 -9 -11 -13 -12
-2 -5 -6 -7 -4 1 1 -0 -1 -1 -1 -2 -1 -2 -2 -2 -1 -2 -1 -0 0 0 0 1 2 3 4 4 3 1 -0 -1 -1 -1 -1 -1 -1 -2 -2 -2 -3 -3 -3 -4 -5 -6 -6 -8 -8 -9 -10 -12 -13 -13
-6 -6 -7 -10 -13 -9 -4 -3 -1 -1 -2 -2 -2 -2 -2 -2 -2 -1 -1 -1 -0 0 0 0 1 1 0 -1 -1 -1 -1 -2 -2 -2 -1 -1 -2 -2 -2 -2 -3 -3 -5 -5 -5 -6 -8 -9 -10 -11 -13 -18 -20 -15
-12 -11 -11 -13 -16 -6 -2 -3 -2 -2 -2 -2 -2 -2 -2 -2 -2 -2 -1 -1 -2 -1 -2 -2 -3 -4 -4 -4 -2 -1 -1 -2 -2 -2 -2 -2 -2 -3 -3 -4 -5 -5 -6 -6 -7 -8 -9 -9 -10 -13 -18 -23 -19 -22
-22 -20 -19 -19 -10 -3 -2 -2 -3 -2 -2 -2 -2 -2 -2 -2 -2 -2 -2 -3 -4 -3 -3 -4 -4 -4 -4 -4 -3 -1 -2 -2 -2 -2 -3 -3 -3 -4 -5 -5 -6 -6 -7 -7 -8 -10 -11 -11 -14 -22 -24 -20 -22 -20
-22 -24 -21 -14 -8 -5 -3 -3 -3 -3 -3 -2 -3 -3 -2 -2 -2 -3 -3 -5 -5 -5 -5 -5 -5 -5 -6 -6 -5 -5 -4 -2 -2 -2 -3 -4 -5 -6 -6 -7 -7 -8 -8 -9 -10 -11 -12 -17 -23 -25 -25 -23 -20 -14
-29 -25 -17 -11 -8 -4 -3 -4 -4 -4 -4 -5 -4 -5 -4 -4 -4 -4 -4 -5 -6 -6 -6 -6 -7 -7 -7 -7 -6 -6 -6 -6 -6 -6 -6 -6 -7 -8 -8 -9 -9 -10 -11 -12 -15 -19 -21 -23 -22 -24 -20 -18 -16 -15
-18 -14 -11 -4 -4 -3 -4 -4 -5 -5 -5 -4 -5 -4 -5 -5 -4 -5 -5 -7 -7 -7 -7 -7 -6 -6 -7 -8 -9 -9 -9 -8 -8 -9 -9 -9 -10 -10 -10 -10 -10 -11 -12 -16 -20 -21 -20 -21 -22 -18 -17 -18 -16 -16
-9 -6 -5 -5 -4 -5 -5 -6 -5 -6 -4 -4 -4 -4 -4 -4 -5 -6 -6 -7 -8 -9 -9 -8 -8 -8 -8 -9 -10 -10 -10 -10 -10 -10 -10 -11 -11 -11 -12 -12 -13 -17 -22 -23 -22 -23 -22 -22 -19 -18 -20 -17 -17 -18
-5 -5 -6 -6 -6 -5 -6 -6 -6 -5 -5 -5 -5 -6 -4 -5 -6 -6 -8 -9 -10 -11 -11 -10 -9 -10 -11 -11 -12 -11 -11 -12 -11 -11 -11 -11 -12 -12 -13 -13 -13 -15 -22 -25 -26 -26 -22 -20 -20 -20 -19 -18 -18 -18
-6 -6 -6 -6 -5 -5 -5 -5 -5 -5 -5 -4 -5 -5 -4 -4 -6 -8 -10 -11 -11 -12 -12 -11 -12 -12 -12 -13 -12 -12 -12 -12 -12 -13 -15 -18 -22 -23 -24 -22 -22 -24 -27 -27 -27 -28 -27 -26 -23 -21 -19 -19 -19 -19
-6 -6 -6 -5 -5 -6 -7 -6 -5 -5 -5 -6 -4 -6 -6 -7 -9 -11 -12 -13 -13 -12 -13 -13 -12 -12 -13 -13 -14 -14 -14 -15 -18 -18 -16 -15 -17 -18 -19 -22 -25 -26 -23 -22 -24 -23 -22 -21 -21 -20 -20 -20 -20 -20
-6 -6 -5 -6 -7 -7 -6 -5 -6 -7 -7 -6 -6 -7 -10 -12 -13 -13 -13 -13 -13 -13 -13 -14 -14 -14 -14 -15 -18 -21 -23 -21 -19 -18 -15 -15 -15 -16 -19 -23 -20 -19 -19 -20 -20 -20 -20 -20 -20 -21 -20 -20 -21 -21
-6 -6 -7 -7 -7 -6 -6 -7 -7 -8 -9 -9 -10 -11 -13 -14 -15 -15 -14 -14 -14 -14 -15 -15 -15 -15 -15 -15 -15 -17 -20 -22 -24 -25 -25 -22 -23 -24 -22 -19 -19 -19 -20 -20 -21 -21 -21 -21 -21 -21 -21 -21 -21 -21
-7 -7 -7 -8 -7 -7 -8 -8 -8 -9 -9 -10 -10 -11 -12 -15 -16 -16 -16 -16 -16 -15 -15 -15 -17 -17 -18 -21 -19 -18 -17 -20 -25 -25 -25 -24 -23 -22 -19 -20 -20 -20 -21 -21 -22 -22 -22 -22 -22 -22 -22 -22 -22 -22
-8 -8 -8 -8 -7 -8 -8 -8 -8 -7 -8 -9 -11 -12 -12 -12 -14 -16 -16 -16 -16 -17 -17 -17 -17 -18 -18 -19 -22 -23 -25 -24 -22 -23 -23 -23 -22 -22 -22 -21 -21 -21 -22 -22 -22 -22 -22 -22 -22 -22 -23 -23 -23 -23
-8 -8 -8 -9 -9 -8 -8 -9 -10 -9 -10 -11 -12 -12 -13 -13 -15 -17 -17 -17 -17 -18 -18 -17 -17 -17 -20 -24 -24 -23 -22 -21 -22 -23 -23 -23 -23 -22 -22 -22 -21 -21 -21 -21 -22 -22 -23 -23 -23 -23 -24 -24 -24 -24

GFSWCAN_850_dewp_039.txt.gz
Dewpoint
-5 -5 -6 -5 -4 -1 -1 -1 -0 -0 -0 -0 -0 -0 -0 -0 -0 1 1 3 5 7 6 4 2 2 4 5 7 7 8 6 6 6 5 5 4 3 4 5 5 4 5 3 5 5 5 -4 -3 -0 3 -1 -1 -1
-6 -5 -4 -4 -2 -2 -4 -1 -1 -2 -1 -1 -0 -1 -2 -1 -2 -1 1 2 4 5 6 8 4 2 2 3 5 6 6 5 6 7 6 5 7 4 4 4 3 5 6 5 4 4 2 -4 -1 -0 -0 1 2 2
-8 -6 -5 -4 -4 -6 -6 -7 -4 -5 -3 -2 -1 -1 -2 -3 -1 -2 1 3 4 5 6 8 5 6 5 4 1 4 5 6 4 4 7 6 6 4 3 4 3 1 1 3 1 1 -1 3 2 2 2 3 3 3
-7 -6 -6 -4 -5 -6 -6 -7 -6 -5 -4 -2 -2 -2 -2 -2 0 0 2 4 6 5 6 8 7 6 7 5 4 1 4 5 4 3 6 4 6 5 4 4 4 3 0 1 1 4 4 3 3 3 3 2 3 2
-6 -6 -6 -6 -6 -6 -6 -6 -4 -2 -2 -2 -2 -1 -0 1 1 2 2 3 5 6 5 8 6 6 7 4 3 5 4 4 5 3 2 5 6 5 4 3 3 1 2 2 4 4 3 2 2 2 1 0 0 1
-4 -5 -5 -4 -3 -4 -3 -4 -4 -2 -3 -2 -1 0 1 2 2 3 4 3 4 5 7 6 6 6 6 5 5 6 5 5 6 6 6 5 5 4 4 3 3 3 3 4 4 3 2 2 2 1 1 0 0 0
-2 -3 -3 -3 -3 -2 -2 -2 -2 -1 1 -0 0 1 2 3 4 3 3 6 5 5 7 5 6 7 7 6 6 6 6 7 6 7 7 4 4 5 3 4 3 3 3 3 3 2 2 2 1 1 1 -0 -1 -2
1 -0 -0 0 1 0 0 -0 -0 0 1 1 2 3 4 4 3 4 4 5 6 7 5 5 5 6 7 7 7 7 7 6 6 6 6 5 5 6 3 3 2 2 2 2 2 2 2 1 1 -0 -1 -2 -2 -2
3 3 3 3 3 2 1 1 2 2 3 4 4 3 4 3 5 5 3 2 -0 3 4 4 5 6 6 5 6 7 7 4 5 4 4 4 3 5 4 3 2 2 2 1 1 1 1 0 -1 -1 -2 -3 -4 -3
5 5 4 3 3 4 4 4 4 4 5 5 4 5 6 6 4 4 2 0 1 4 4 3 5 5 5 4 5 4 5 4 4 4 4 3 3 1 2 2 2 2 1 1 1 0 -0 -1 -1 -2 -2 -2 -2 -3
5 6 6 6 4 4 4 4 5 5 5 5 5 5 4 3 2 2 3 3 4 2 3 4 5 5 5 4 3 4 3 1 3 3 2 3 3 1 1 1 1 1 1 1 0 0 -1 -1 -1 -1 -2 -3 -4 -9
4 5 6 6 6 6 5 6 6 5 5 5 4 4 4 3 2 2 2 2 3 4 2 3 4 4 4 4 3 4 3 2 4 2 3 4 1 1 1 1 1 1 0 -0 -0 -1 -1 -2 -2 -3 -4 -10 -12 -12
3 4 5 5 5 6 6 6 6 4 4 3 2 2 3 3 3 2 2 3 3 2 3 3 2 3 3 2 2 3 3 3 1 3 2 2 1 1 0 1 0 -0 -1 -1 -2 -2 -2 -3 -4 -5 -9 -7 -10 -11
3 3 3 4 4 4 5 5 4 3 1 2 2 2 2 3 1 0 1 1 0 2 3 3 3 2 3 1 1 2 2 2 4 3 1 0 0 0 -1 -1 -1 -2 -2 -3 -3 -4 -4 -5 -8 -8 -5 -6 -9 -10
3 3 2 3 3 3 2 2 1 0 1 0 -0 1 -0 -1 -1 -1 -0 0 1 2 2 3 2 2 1 2 1 2 3 2 2 1 1 -0 0 -0 -1 -1 -2 -3 -4 -4 -6 -12 -11 -11 -11 -9 -9 -9 -9 -12
3 2 3 3 2 2 1 1 1 2 -0 -1 -1 -0 -0 0 -0 -1 -0 -0 1 2 2 2 1 2 2 2 3 3 2 2 2 0 -0 -0 -0 -0 -1 -2 -3 -4 -3 -5 -9 -9 -9 -8 -9 -9 -8 -10 -12 -13
1 0 3 3 2 2 2 1 2 -1 -1 -1 -1 -2 -1 -1 -2 -2 -1 -0 1 1 1 1 2 2 1 2 2 1 1 1 -1 -1 -1 -1 -1 -1 -2 -2 -2 -2 -3 -5 -8 -6 -4 -5 -7 -8 -9 -11 -12 -12
-7 -9 -5 2 2 1 -1 -2 -2 -2 -2 -2 -2 -2 -2 -2 -2 -1 -1 -0 0 0 0 1 1 2 1 2 1 -0 -1 -1 -1 -1 -1 -1 -1 -2 -2 -2 -3 -3 -4 -6 -6 -7 -6 -8 -9 -9 -10 -12 -12 -13
-6 -8 -12 -15 -7 -4 -4 -2 -2 -2 -2 -2 -2 -2 -2 -2 -1 -1 -1 -0 -0 -0 -1 -1 -2 -2 -2 -3 -2 -2 -2 -2 -2 -2 -1 -1 -2 -2 -2 -2 -3 -3 -4 -5 -6 -7 -8 -8 -9 -9 -11 -15 -19 -19
-17 -19 -21 -21 -16 -6 -3 -3 -3 -2 -2 -2 -2 -2 -2 -2 -2 -3 -3 -3 -3 -3 -3 -3 -4 -4 -4 -5 -4 -2 -2 -2 -2 -2 -2 -2 -2 -2 -3 -3 -3 -4 -5 -6 -6 -7 -9 -10 -11 -11 -15 -20 -23 -23
-26 -25 -24 -20 -7 -4 -2 -2 -2 -2 -2 -2 -2 -2 -2 -3 -2 -3 -5 -8 -7 -4 -5 -5 -5 -6 -5 -5 -3 -2 -2 -2 -2 -2 -3 -3 -3 -3 -4 -4 -5 -5 -6 -7 -7 -8 -8 -9 -11 -17 -23 -25 -24 -22
-26 -27 -23 -14 -8 -5 -4 -3 -3 -3 -3 -2 -3 -4 -3 -3 -2 -3 -8 -7 -5 -6 -6 -6 -6 -7 -7 -6 -6 -5 -4 -3 -2 -3 -3 -4 -5 -5 -6 -6 -6 -7 -8 -9 -9 -9 -10 -11 -20 -23 -25 -25 -23 -19
-28 -24 -16 -10 -8 -5 -5 -6 -6 -5 -4 -4 -5 -4 -4 -4 -4 -4 -6 -6 -7 -8 -7 -7 -7 -8 -8 -8 -7 -7 -6 -6 -6 -6 -6 -6 -7 -7 -8 -8 -9 -9 -9 -10 -11 -11 -14 -21 -22 -24 -24 -23 -22 -20
-17 -10 -8 -5 -4 -4 -5 -6 -5 -7 -7 -5 -6 -5 -5 -5 -5 -7 -6 -8 -9 -9 -9 -8 -7 -9 -10 -10 -10 -10 -9 -8 -8 -9 -9 -9 -9 -10 -10 -10 -11 -11 -12 -12 -14 -19 -21 -22 -23 -25 -25 -24 -23 -19
-10 -6 -5 -7 -6 -6 -9 -8 -7 -6 -6 -6 -8 -7 -6 -5 -7 -7 -7 -8 -11 -11 -10 -9 -10 -10 -11 -11 -11 -11 -10 -10 -10 -10 -11 -12 -11 -11 -12 -12 -12 -13 -15 -21 -23 -24 -25 -26 -25 -25 -25 -23 -20 -18
-6 -6 -7 -6 -6 -7 -5 -6 -7 -4 -7 -8 -6 -7 -6 -7 -10 -8 -9 -11 -12 -12 -12 -11 -11 -12 -12 -12 -12 -12 -12 -12 -11 -11 -12 -12 -12 -12 -13 -13 -14 -17 -22 -25 -26 -27 -28 -28 -27 -26 -24 -21 -19 -19
-6 -6 -6 -5 -5 -5 -6 -6 -5 -7 -8 -7 -8 -7 -5 -7 -9 -9 -11 -12 -12 -13 -12 -12 -12 -13 -13 -13 -13 -13 -14 -15 -15 -16 -17 -19 -21 -22 -22 -22 -22 -23 -26 -26 -26 -26 -25 -24 -23 -22 -21 -20 -19 -20
-6 -6 -5 -6 -6 -7 -5 -5 -7 -7 -8 -8 -6 -10 -10 -10 -11 -12 -12 -12 -12 -13 -13 -13 -13 -13 -13 -14 -14 -14 -14 -15 -15 -14 -15 -16 -17 -17 -18 -23 -25 -25 -23 -22 -21 -21 -21 -21 -20 -20 -20 -20 -21 -21
-7 -6 -6 -7 -7 -8 -6 -5 -6 -8 -9 -7 -8 -11 -11 -13 -14 -13 -14 -13 -13 -13 -14 -14 -14 -14 -15 -16 -22 -24 -22 -21 -20 -19 -17 -16 -16 -19 -23 -23 -21 -20 -20 -21 -20 -20 -20 -21 -21 -21 -21 -21 -21 -21
-7 -8 -8 -9 -8 -7 -7 -8 -8 -10 -10 -10 -12 -13 -14 -15 -15 -15 -15 -15 -15 -15 -15 -15 -15 -15 -15 -16 -17 -18 -18 -20 -24 -25 -24 -24 -24 -22 -22 -20 -20 -20 -21 -20 -20 -21 -21 -21 -21 -22 -22 -22 -22 -22
-8 -7 -8 -8 -7 -8 -8 -8 -9 -10 -11 -12 -12 -13 -15 -16 -16 -16 -16 -16 -15 -15 -16 -17 -19 -20 -19 -19 -19 -20 -20 -23 -24 -23 -23 -23 -22 -22 -22 -22 -21 -21 -21 -21 -21 -21 -21 -22 -22 -22 -22 -23 -23 -23
-9 -8 -8 -9 -7 -9 -9 -9 -9 -8 -10 -10 -11 -13 -13 -13 -15 -16 -16 -16 -17 -17 -17 -17 -17 -17 -19 -23 -24 -23 -23 -22 -22 -22 -23 -24 -24 -24 -23 -22 -22 -22 -21 -21 -21 -21 -22 -22 -23 -23 -23 -23 -23 -23
-8 -9 -9 -9 -8 -7 -10 -9 -8 -10 -11 -11 -12 -13 -14 -15 -16 -17 -17 -17 -18 -18 -17 -17 -17 -18 -18 -21 -23 -23 -23 -22 -23 -23 -24 -24 -25 -25 -24 -24 -23 -23 -23 -23 -22 -22 -22 -22 -23 -24 -23 -24 -24 -24

GFSWCAN_850_dewp_045.txt.gz
Dewpoint
0 -0 -0 -1 -1 -1 -1 -1 -2 -3 -4 -8 -9 -4 -2 -3 -2 -1 -0 2 2 2 3 4 3 3 3 1 3 5 5 6 4 5 5 4 3 4 3 2 2 4 4 2 1 -0 2 -3 -3 -3 -2 -1 -1 -1
-1 -1 -1 -1 -1 -1 -1 -2 -2 -3 -5 -7 -10 -5 -1 -1 -1 -1 -0 1 1 2 3 3 4 4 4 3 1 5 4 5 5 5 5 4 4 1 3 4 2 2 3 4 2 2 -1 0 -2 -2 -2 -2 -0 -0
-3 -3 -2 -2 -2 -2 -3 -3 -4 -5 -7 -8 -6 -4 -4 -2 -1 -0 0 1 1 2 2 2 2 3 4 5 2 3 6 5 4 4 5 4 4 2 3 3 3 2 2 3 2 3 4 3 1 -1 -1 -1 0 1
-4 -4 -4 -4 -4 -5 -5 -5 -6 -6 -5 -5 -6 -6 -6 -4 -3 -2 -0 1 1 3 2 2 6 7 6 7 4 3 1 4 6 5 5 4 3 2 1 2 3 2 2 4 4 4 3 3 2 1 2 2 2 2
-2 -3 -3 -4 -3 -2 -2 -3 -4 -5 -6 -7 -7 -8 -7 -7 -3 -1 -0 0 1 1 3 4 3 5 6 5 5 2 4 4 5 4 2 3 4 4 2 2 2 1 2 3 3 3 2 2 2 2 2 2 2 2
-2 -1 -1 -1 -1 -1 -1 -1 -1 -0 -1 -1 -2 -3 -5 -4 -3 -0 1 1 1 3 2 3 4 5 7 8 7 3 2 4 4 2 4 5 6 3 3 3 2 2 0 -0 1 3 2 2 1 1 2 1 1 1
-4 -4 -5 -6 -4 -2 -2 -1 -1 -0 -1 -1 -2 -2 -2 -0 1 0 -1 -2 -4 2 4 3 3 5 8 7 7 6 6 6 5 5 4 4 5 2 1 3 2 3 3 1 1 2 1 1 1 1 1 -0 -1 -1
-5 -5 -6 -7 -6 -5 -4 -3 -1 -0 -0 -0 -0 -0 -0 -1 -0 -0 2 2 -3 1 3 3 4 5 7 7 6 8 6 6 5 5 5 3 5 1 3 3 3 3 2 2 2 2 1 1 0 -0 -0 -1 -1 -2
-6 -7 -7 -6 -7 -7 -4 -3 -1 -1 -0 -1 -0 -1 -1 -1 -1 -1 4 3 1 1 3 2 4 5 6 5 6 6 6 4 5 3 3 4 2 4 2 3 3 2 2 2 2 2 1 1 0 -0 -1 -1 -2 -3
-5 -7 -8 -7 -6 -5 -5 -4 -2 -1 -1 -0 0 1 1 0 -2 -0 2 2 2 4 3 2 4 5 5 4 2 3 4 3 5 4 4 3 3 2 2 2 3 2 2 2 1 -1 0 -0 -1 -1 -2 -3 -4 -4
-5 -5 -6 -7 -7 -7 -6 -5 -3 -3 -1 1 1 1 3 3 2 2 2 3 3 2 3 3 4 4 4 4 3 3 3 2 5 4 4 4 4 1 2 2 2 2 2 2 2 1 1 1 -1 -2 -3 -4 -5 -5
-1 -3 -4 -7 -8 -7 -4 -3 -2 -1 -0 2 3 2 2 2 2 1 1 1 1 3 2 2 4 4 4 4 2 2 3 2 4 2 4 5 1 1 2 2 1 2 2 1 1 1 -0 -1 -2 -3 -4 -4 -4 -6
0 -2 -2 -1 -1 -5 -6 -3 -2 -2 0 4 2 2 2 1 2 3 3 2 2 1 2 3 2 3 2 2 -0 -1 -1 0 0 3 4 1 1 2 2 1 1 1 1 1 0 -0 -1 -2 -3 -3 -3 -4 -5 -12
1 -0 0 0 -0 -0 0 1 1 3 4 2 1 0 1 0 0 -0 1 1 0 1 2 2 1 1 2 1 -0 1 2 1 1 0 -0 0 1 1 2 1 1 0 0 -0 -1 -1 -1 -2 -2 -2 -4 -5 -11 -13
3 3 3 2 2 2 2 3 3 3 2 0 -0 0 -0 -1 -1 -1 -1 -0 0 2 3 2 2 1 1 2 1 2 2 2 -1 -1 -0 0 1 1 1 1 0 0 -0 -1 -1 -1 -1 -2 -3 -6 -10 -12 -12 -13
4 4 4 4 4 3 2 0 -1 -1 -2 -2 -2 -1 -1 -1 -1 -1 -1 -1 0 2 2 1 -0 1 2 1 2 2 1 2 1 -1 -1 -0 -0 0 0 -0 -0 -1 -1 -1 -1 -2 -3 -3 -5 -6 -8 -11 -12 -14
3 1 2 3 3 4 2 2 -2 -3 -3 -2 -2 -2 -2 -2 -2 -2 -2 -2 0 1 1 -0 2 1 0 1 1 0 -0 -1 -1 -1 -1 -0 -0 -1 -1 -1 -1 -1 -2 -2 -3 -4 -4 -5 -5 -6 -9 -12 -13 -13
1 1 2 1 1 -0 -2 -3 -4 -3 -2 -2 -2 -2 -4 -4 -3 -4 -3 -2 -0 -0 -1 -2 -3 -3 -3 -2 -3 -4 -2 -2 -2 -1 -2 -2 -2 -2 -2 -2 -2 -2 -3 -4 -4 -5 -5 -5 -7 -10 -11 -11 -12 -12
-3 -1 -1 -3 -2 -3 -3 -4 -4 -2 -2 -2 -3 -3 -5 -5 -5 -5 -4 -3 -3 -4 -4 -4 -5 -5 -5 -6 -6 -6 -4 -3 -3 -3 -2 -2 -2 -2 -2 -2 -2 -3 -4 -4 -5 -6 -7 -8 -8 -9 -10 -11 -12 -12
-17 -11 -1 -2 -5 -5 -3 -3 -3 -2 -2 -2 -4 -5 -6 -6 -8 -8 -9 -8 -8 -7 -6 -7 -7 -8 -8 -8 -8 -7 -4 -3 -3 -3 -3 -3 -3 -3 -3 -3 -4 -4 -5 -5 -5 -5 -6 -8 -10 -11 -10 -11 -11 -13
-14 -10 -8 -5 -5 -4 -3 -2 -3 -2 -2 -2 -2 -4 -8 -10 -10 -10 -10 -11 -10 -7 -7 -9 -9 -9 -9 -9 -8 -6 -4 -3 -3 -4 -5 -5 -5 -4 -5 -5 -5 -5 -5 -6 -7 -8 -9 -9 -10 -10 -11 -12 -13 -14
-23 -22 -17 -9 -6 -6 -6 -6 -3 -3 -3 -3 -4 -4 -4 -5 -7 -9 -12 -11 -10 -10 -10 -10 -10 -10 -10 -9 -9 -8 -7 -6 -6 -6 -6 -6 -6 -7 -7 -8 -7 -8 -9 -9 -9 -10 -10 -10 -11 -11 -12 -12 -13 -15
-26 -20 -13 -10 -9 -8 -6 -7 -7 -7 -8 -6 -6 -6 -6 -5 -7 -11 -10 -11 -11 -11 -11 -11 -11 -10 -10 -9 -9 -8 -8 -8 -8 -8 -8 -8 -9 -9 -9 -9 -9 -10 -10 -11 -12 -12 -12 -12 -13 -13 -13 -14 -16 -20
-18 -11 -7 -7 -7 -8 -8 -7 -6 -6 -6 -9 -8 -8 -6 -5 -10 -11 -11 -12 -12 -12 -12 -11 -11 -11 -11 -11 -11 -11 -10 -10 -10 -10 -10 -10 -10 -11 -11 -11 -12 -12 -13 -13 -13 -13 -13 -14 -14 -15 -19 -23 -25 -25
-11 -8 -9 -12 -8 -9 -12 -12 -11 -9 -10 -11 -10 -9 -7 -9 -12 -12 -12 -12 -13 -13 -13 -13 -12 -12 -13 -12 -12 -12 -12 -12 -12 -12 -12 -12 -12 -13 -13 -13 -13 -14 -15 -17 -19 -22 -24 -24 -25 -25 -26 -26 -25 -24
-9 -5 -8 -8 -9 -10 -11 -11 -11 -10 -12 -10 -8 -7 -11 -15 -15 -13 -12 -13 -13 -13 -13 -13 -13 -13 -14 -14 -15 -14 -13 -13 -13 -13 -14 -14 -15 -18 -20 -22 -22 -23 -24 -24 -24 -24 -23 -23 -22 -22 -22 -21 -21 -21
-9 -10 -7 -7 -5 -7 -9 -8 -9 -12 -10 -9 -12 -15 -14 -15 -15 -12 -13 -13 -13 -14 -14 -14 -14 -14 -14 -14 -14 -14 -15 -16 -16 -16 -17 -17 -19 -21 -23 -23 -23 -22 -22 -22 -23 -23 -23 -22 -22 -21 -21 -21 -21 -21
-5 -8 -11 -9 -9 -8 -13 -14 -14 -13 -12 -9 -13 -16 -18 -17 -14 -14 -14 -14 -14 -14 -14 -14 -15 -18 -20 -17 -14 -15 -17 -17 -17 -19 -19 -21 -23 -23 -23 -23 -22 -22 -22 -22 -21 -21 -21 -21 -21 -21 -21 -21 -21 -22
-7 -8 -10 -11 -9 -9 -9 -11 -10 -10 -10 -10 -16 -16 -15 -16 -15 -15 -14 -14 -14 -14 -15 -15 -15 -15 -16 -18 -20 -21 -23 -24 -24 -24 -24 -24 -25 -25 -25 -25 -24 -23 -23 -23 -22 -21 -21 -21 -21 -21 -22 -22 -22 -23
-8 -8 -9 -9 -13 -11 -10 -11 -11 -13 -14 -15 -16 -16 -16 -16 -16 -15 -15 -15 -15 -16 -16 -16 -16 -16 -18 -19 -21 -23 -23 -24 -25 -25 -25 -26 -26 -26 -26 -26 -26 -26 -25 -24 -24 -23 -23 -22 -22 -22 -22 -22 -23 -23
-8 -8 -9 -9 -9 -10 -10 -12 -13 -14 -14 -16 -17 -17 -17 -17 -17 -17 -17 -17 -17 -17 -16 -18 -18 -18 -19 -22 -24 -24 -24 -25 -27 -27 -27 -27 -27 -26 -26 -25 -25 -25 -25 -25 -25 -25 -25 -24 -23 -23 -23 -23 -23 -24
-9 -8 -9 -14 -9 -11 -11 -11 -12 -12 -12 -14 -15 -16 -16 -17 -17 -17 -18 -18 -17 -17 -17 -17 -17 -19 -21 -23 -24 -25 -26 -27 -27 -27 -26 -26 -25 -25 -24 -24 -24 -24 -24 -24 -24 -24 -24 -23 -23 -24 -23 -23 -24 -24
-11 -10 -10 -10 -9 -9 -9 -9 -11 -12 -13 -13 -14 -15 -16 -17 -17 -18 -17 -17 -17 -17 -18 -18 -18 -19 -23 -24 -25 -26 -27 -26 -25 -25 -24 -24 -24 -24 -24 -24 -24 -24 -24 -24 -24 -24 -24 -24 -24 -24 -24 -24 -24 -24

GFSWCAN_850_dewp_048.txt.gz
Dewpoint
-0 -0 -0 0 -1 -1 1 1 0 -0 -0 -0 -1 -0 -1 -4 -3 -3 -2 -1 1 1 3 4 3 1 1 1 2 1 2 3 4 4 5 5 2 4 4 3 4 5 4 2 1 1 5 -3 -3 -2 -2 -4 -3 -1
0 0 0 1 1 1 0 0 -0 -0 -0 -1 -1 -1 -1 -1 -4 -4 -2 -2 0 2 3 4 4 4 2 1 0 2 2 4 3 5 3 2 2 0 3 5 1 4 3 4 3 3 -0 -2 -3 -4 -4 -3 -2 -2
-0 -0 -0 -0 -0 -0 -0 -1 -1 -2 -1 -1 -2 -2 -3 -3 -5 -5 -3 -3 -1 2 1 2 2 4 4 4 2 1 3 5 4 2 3 4 4 2 4 3 3 1 0 2 2 2 2 2 0 -1 -3 -3 -2 -2
-1 -1 -1 -1 -1 -1 -1 -1 -1 -1 -2 -4 -5 -6 -7 -7 -7 -3 -2 -2 -0 1 2 1 3 3 4 4 4 3 1 3 5 5 4 3 4 2 3 2 3 2 1 3 2 3 3 3 1 -0 -1 -2 -1 -1
-3 -3 -2 -1 -2 -2 -2 -2 -2 -3 -6 -7 -5 -2 -1 -1 -1 -2 -2 -0 1 1 2 2 1 1 2 5 5 6 4 3 5 4 2 3 4 3 2 3 2 2 2 3 3 1 0 0 -0 0 -0 -0 0 -0
-4 -4 -5 -5 -5 -5 -5 -5 -5 -5 -6 -5 -3 -2 -3 -1 -1 -1 -0 -1 1 1 1 2 1 0 4 6 7 4 5 5 5 4 3 5 6 4 5 4 1 1 1 1 0 0 0 0 1 1 1 2 2 1
-1 -2 -1 -1 -1 -3 -5 -6 -6 -6 -4 -3 -4 -6 -6 -4 -2 -1 -1 -2 -2 2 2 2 1 3 6 7 7 7 6 6 5 4 4 5 5 4 1 3 1 2 2 1 1 1 1 1 1 2 2 2 1 1
-3 -1 -1 -1 -1 -1 -2 -2 -3 -4 -5 -4 -4 -7 -7 -5 -4 -2 -0 -4 -2 1 0 2 3 4 6 6 6 7 6 6 5 5 4 3 4 1 3 1 3 3 2 2 2 1 0 1 1 1 1 1 0 -0
-7 -6 -4 -3 -0 -1 -1 -1 -1 -2 -1 -1 -2 -4 -1 -1 -2 -3 -2 -2 -2 -3 2 2 3 5 5 5 5 6 5 3 5 2 3 5 2 5 3 2 3 2 2 2 2 1 1 1 1 0 -0 -1 -1 -2
-8 -7 -6 -5 -3 -1 -0 -0 -0 -0 -1 -2 -1 -1 -1 -1 -1 1 2 1 0 1 1 2 4 4 5 4 3 3 3 3 5 3 4 3 4 2 2 2 3 2 2 2 1 -0 0 0 -0 -1 -1 -1 -1 -2
-10 -9 -7 -6 -3 -1 -1 -1 -0 -0 -0 -0 0 -0 -0 -2 1 0 0 1 2 2 3 2 3 4 4 3 2 2 2 2 5 4 5 4 5 1 2 2 3 2 2 2 1 1 0 0 0 -1 -1 -2 -2 -3
-6 -7 -5 -4 -3 -1 -0 -0 -0 0 0 0 2 0 0 1 2 2 1 0 1 3 2 2 3 4 4 4 2 1 2 2 5 2 4 5 2 1 2 2 2 2 2 2 2 1 1 0 -0 -1 -2 -3 -3 -3
-5 -5 -6 -6 -5 -2 -2 -1 -1 -0 0 1 3 2 2 0 2 3 3 2 2 0 2 2 2 3 3 3 0 1 3 3 1 4 5 2 1 1 1 1 1 1 1 1 1 1 0 -1 -1 -2 -2 -3 -4 -4
-4 -4 -5 -6 -6 -4 -2 -1 -1 -0 -0 1 0 0 0 0 -0 -0 1 1 -0 0 1 2 1 1 1 1 0 3 2 1 2 2 1 0 1 1 1 1 1 1 1 0 0 -1 -1 -1 -2 -2 -2 -3 -3 -5
-1 -1 -1 -2 -5 -3 -2 -1 -1 -0 -0 -0 -0 0 -0 -1 -1 -1 -1 -0 -1 0 1 2 1 1 1 1 1 1 2 2 1 1 0 -0 0 1 0 1 0 0 0 -0 -0 -1 -2 -2 -2 -3 -3 -4 -9 -12
-1 0 1 0 -0 -1 -0 -0 -0 -0 -2 -2 -3 -2 -2 -1 -2 -2 -2 -2 -0 1 1 -0 -0 2 2 1 2 1 1 1 0 -1 -1 -1 -0 -0 -0 -0 -0 -0 -0 -1 -1 -2 -2 -2 -3 -4 -6 -8 -7 -7
2 1 1 0 1 0 0 -0 -1 -3 -3 -3 -2 -4 -3 -3 -3 -3 -4 -3 -0 1 0 0 -1 -1 -1 0 -1 -2 -2 -2 -2 -2 -1 -1 -1 -1 -1 -1 -1 -2 -2 -2 -2 -3 -3 -4 -5 -5 -6 -6 -10 -15
3 2 2 2 0 -0 -1 -1 -3 -3 -2 -3 -4 -5 -6 -6 -6 -6 -5 -4 -1 -1 -4 -4 -4 -4 -5 -4 -5 -6 -6 -6 -3 -3 -3 -2 -2 -2 -2 -2 -2 -2 -3 -3 -3 -4 -4 -5 -5 -6 -6 -10 -13 -13
2 2 2 2 1 -2 -4 -4 -4 -3 -4 -4 -6 -5 -7 -8 -7 -7 -6 -5 -5 -5 -6 -6 -7 -7 -7 -8 -8 -8 -8 -6 -4 -4 -4 -3 -3 -3 -3 -3 -3 -3 -4 -4 -5 -5 -5 -6 -6 -7 -8 -11 -12 -12
-6 -4 -4 -4 -5 -5 -4 -4 -4 -3 -3 -5 -6 -7 -9 -10 -10 -10 -10 -9 -9 -8 -8 -8 -9 -10 -10 -10 -10 -9 -9 -4 -4 -5 -6 -5 -4 -4 -4 -4 -5 -5 -5 -6 -6 -6 -7 -7 -8 -9 -9 -10 -10 -10
-6 -5 -6 -6 -6 -4 -3 -2 -2 -2 -3 -4 -6 -8 -9 -11 -12 -12 -12 -12 -11 -9 -9 -11 -11 -11 -11 -11 -10 -10 -8 -6 -7 -7 -9 -8 -7 -6 -6 -7 -6 -7 -7 -8 -8 -9 -9 -9 -10 -10 -10 -11 -11 -11
-14 -12 -10 -8 -7 -7 -7 -5 -4 -3 -3 -4 -5 -5 -5 -7 -9 -11 -13 -12 -12 -11 -11 -11 -12 -11 -11 -11 -11 -10 -9 -8 -8 -8 -8 -7 -8 -8 -9 -9 -8 -9 -10 -10 -10 -10 -11 -11 -12 -12 -12 -12 -13 -13
-22 -17 -12 -10 -8 -7 -6 -8 -8 -6 -7 -6 -7 -7 -7 -8 -9 -14 -12 -12 -12 -13 -12 -12 -12 -12 -11 -11 -10 -10 -9 -9 -10 -10 -10 -10 -10 -10 -10 -10 -11 -11 -11 -12 -12 -12 -12 -13 -13 -13 -13 -13 -14 -14
-19 -12 -9 -8 -9 -10 -8 -8 -7 -7 -7 -9 -9 -8 -8 -8 -12 -13 -12 -13 -13 -13 -13 -12 -12 -12 -12 -12 -12 -12 -12 -11 -11 -12 -12 -11 -12 -12 -12 -12 -13 -13 -13 -13 -13 -13 -14 -14 -15 -17 -19 -22 -24 -25
-10 -7 -10 -12 -8 -11 -14 -13 -11 -10 -12 -12 -10 -9 -11 -11 -14 -14 -14 -13 -14 -14 -13 -13 -14 -14 -13 -13 -13 -13 -13 -13 -13 -13 -13 -13 -14 -15 -17 -18 -20 -21 -23 -24 -24 -25 -24 -24 -24 -24 -23 -23 -22 -22
-8 -6 -8 -9 -10 -10 -12 -10 -10 -13 -13 -10 -11 -10 -13 -17 -16 -14 -12 -14 -14 -14 -14 -14 -14 -14 -14 -15 -15 -15 -16 -16 -17 -17 -19 -20 -21 -22 -23 -23 -23 -23 -24 -24 -24 -24 -24 -24 -24 -23 -22 -22 -21 -21
-8 -10 -8 -8 -7 -8 -11 -10 -11 -13 -12 -12 -14 -17 -18 -18 -16 -13 -13 -14 -14 -14 -15 -16 -16 -15 -14 -15 -15 -16 -17 -18 -19 -19 -20 -22 -24 -24 -24 -24 -24 -24 -24 -24 -24 -24 -23 -23 -22 -22 -22 -22 -22 -22
-7 -10 -12 -10 -10 -9 -14 -16 -16 -14 -14 -10 -15 -18 -20 -20 -16 -15 -15 -15 -14 -14 -15 -15 -17 -20 -19 -17 -17 -20 -22 -22 -23 -24 -24 -24 -24 -25 -26 -25 -25 -25 -25 -25 -24 -23 -22 -22 -22 -21 -21 -22 -22 -22
-8 -9 -10 -12 -10 -11 -12 -13 -12 -12 -12 -13 -19 -18 -16 -16 -16 -15 -15 -15 -15 -15 -15 -15 -16 -16 -18 -18 -20 -22 -23 -24 -24 -26 -27 -28 -29 -29 -29 -28 -27 -27 -26 -26 -25 -25 -25 -24 -24 -23 -23 -22 -22 -23
-9 -10 -10 -11 -15 -13 -12 -12 -14 -15 -15 -16 -16 -17 -17 -17 -16 -16 -16 -15 -15 -16 -17 -17 -17 -18 -20 -22 -23 -24 -24 -26 -28 -29 -30 -28 -27 -26 -26 -25 -25 -25 -25 -25 -25 -24 -24 -24 -24 -24 -24 -24 -23 -23
-8 -10 -10 -10 -11 -11 -13 -14 -15 -16 -17 -17 -17 -18 -17 -18 -17 -17 -17 -17 -17 -17 -17 -17 -18 -18 -19 -22 -23 -25 -26 -28 -28 -27 -26 -26 -25 -25 -25 -25 -25 -25 -25 -24 -24 -24 -24 -24 -24 -24 -24 -24 -24 -24
-9 -10 -11 -15 -11 -13 -12 -11 -13 -13 -14 -16 -16 -17 -17 -17 -18 -18 -18 -18 -18 -17 -17 -17 -18 -19 -19 -23 -26 -28 -28 -27 -26 -25 -25 -25 -25 -26 -26 -25 -25 -24 -24 -24 -24 -25 -25 -25 -25 -25 -25 -25 -24 -24
-11 -10 -11 -10 -12 -12 -12 -11 -12 -13 -14 -14 -15 -15 -16 -17 -18 -18 -18 -18 -18 -17 -18 -18 -20 -23 -25 -28 -28 -27 -26 -25 -26 -26 -26 -26 -26 -26 -25 -25 -25 -25 -25 -25 -26 -26 -26 -26 -25 -25 -25 -25 -25 -25

GFSWCAN_850_dewp_054.txt.gz
Dewpoint
-1 -0 0 0 -1 -0 -0 0 -0 -0 0 -1 -1 1 1 -0 0 0 1 -1 -1 -2 -2 -2 -1 -1 -3 -3 1 -1 1 2 3 5 4 4 6 3 3 1 5 5 6 8 6 10 8 -2 -3 -1 -1 -0 -2 -1
-0 -1 0 0 0 0 0 -1 -0 -1 -1 -1 1 1 0 -0 0 0 0 -1 -0 0 2 1 2 2 2 -3 -3 -1 -3 -4 1 1 3 1 8 7 3 4 2 6 4 5 3 3 1 -1 -3 -3 -0 -2 -1 -1
0 -1 -1 -1 0 -0 -1 -0 -0 -0 -0 1 1 1 0 -0 -0 -1 0 0 -0 1 -0 0 0 1 3 2 1 -0 -1 -4 -2 -2 2 3 7 5 9 4 2 2 2 5 4 -0 1 0 -2 -0 -1 -1 -1 -1
1 -0 -1 -1 -0 1 0 0 0 1 1 1 1 0 0 0 -0 -0 -0 -0 -0 -1 -0 -3 -2 -3 1 2 2 2 -0 1 2 1 3 6 7 -0 4 1 4 0 2 3 3 2 1 2 1 -0 1 -1 -2 -0
0 1 1 1 1 1 1 1 1 1 0 0 0 -0 -0 0 -0 -0 -1 -1 -3 -3 -0 -2 -1 -0 -2 2 3 3 3 3 4 4 4 5 4 5 4 4 5 1 2 5 5 0 2 -0 1 2 1 1 -1 -0
-1 -0 1 1 1 1 1 1 1 0 0 -0 -0 -0 -0 -0 -1 -1 -2 -2 -3 -5 -1 1 0 -0 -1 1 3 3 2 3 4 3 5 2 4 2 8 5 -0 1 0 1 1 0 1 -0 -1 -0 2 1 0 0
-1 -1 -1 -0 -0 -0 -0 0 0 0 -0 -0 -0 -0 -0 -0 -1 -2 -3 -3 -5 -5 -2 1 2 -0 -1 -1 5 5 4 2 2 3 4 3 5 5 7 6 1 -0 0 1 1 -0 1 -1 -0 -2 1 1 0 1
-1 -2 -3 -2 -1 -0 -1 -0 -0 -1 -1 -1 -1 -1 -1 -1 -3 -4 -2 -1 -5 -4 -2 1 3 2 -0 4 5 5 5 5 5 4 4 4 3 6 6 2 1 2 2 3 2 1 1 0 -0 -0 0 0 -0 -0
-4 -2 -3 -7 -7 -8 -7 -5 -4 -3 -4 -3 -2 -2 -3 -2 -3 -2 0 0 -4 -2 1 1 4 5 5 5 5 5 5 5 4 6 5 4 5 7 1 0 2 3 3 3 2 2 1 1 0 -0 0 0 -0 -1
-3 -6 -5 -5 -6 -6 -3 -3 -2 -1 -1 -3 -4 -3 -2 -3 -0 -1 0 -0 -0 -0 1 1 1 3 4 3 3 5 4 4 5 5 5 7 5 2 2 2 2 2 3 2 2 2 2 1 1 0 0 0 -0 -1
-1 -2 -6 -6 -6 -6 -4 -3 -3 -2 -3 -3 -1 -0 -2 -1 -0 1 1 -0 -1 0 0 0 0 1 -0 5 4 3 5 4 6 5 7 7 6 3 2 3 3 2 2 2 2 2 1 1 1 0 -0 -0 -1 -1
-1 -1 -1 -5 -5 -4 -6 -6 -5 -3 -2 -1 0 -2 -3 -1 1 0 1 1 2 1 2 3 2 0 2 4 4 3 5 3 7 3 5 6 2 0 1 1 2 2 2 1 1 1 1 0 0 -0 -1 -1 -2 -3
-0 -0 -2 -3 -5 -5 -4 -5 -3 -2 -1 -0 -3 -2 -0 0 2 1 1 2 2 2 2 2 3 3 3 3 3 3 5 5 1 4 2 2 -0 -1 -0 0 1 1 1 1 1 0 -0 -1 -2 -1 -2 -2 -2 -3
-1 -1 -1 -2 -1 -2 -2 -1 -2 -1 -1 -0 -0 1 1 0 -0 0 0 1 -1 -0 1 2 1 2 1 3 2 5 2 3 5 4 2 -0 -2 -2 -1 -1 -0 -1 -0 -0 -0 -1 -1 -2 -3 -3 -2 -3 -3 -4
-4 -1 -1 -1 -1 -1 -1 -1 -0 -2 -2 -3 -3 -1 -1 -2 -4 -3 -3 -1 -2 -1 0 1 1 1 1 3 2 3 4 2 0 -0 -1 -3 -2 -2 -2 -2 -2 -2 -2 -2 -3 -3 -3 -3 -3 -4 -4 -4 -3 -4
-5 -3 -2 -2 -1 -1 -1 -1 -1 -2 -3 -5 -7 -6 -6 -4 -5 -5 -5 -4 -3 -1 -0 -0 1 2 1 1 -1 -1 -1 -2 -3 -4 -5 -3 -3 -4 -4 -3 -3 -3 -3 -4 -4 -4 -4 -4 -4 -5 -5 -5 -5 -5
-1 -2 -3 -3 -3 -3 -2 -2 -3 -4 -4 -5 -5 -7 -7 -7 -7 -7 -7 -6 -4 -1 -0 -2 -2 -2 -3 -4 -4 -6 -5 -6 -7 -6 -6 -5 -4 -5 -5 -5 -5 -5 -5 -5 -5 -5 -5 -5 -5 -5 -6 -7 -7 -8
-1 -2 -2 -3 -3 -1 -2 -3 -4 -5 -6 -7 -6 -7 -8 -9 -8 -8 -7 -6 -3 -4 -7 -6 -8 -7 -6 -6 -7 -8 -9 -8 -6 -8 -8 -8 -7 -6 -6 -7 -7 -7 -7 -7 -7 -6 -6 -6 -6 -8 -8 -8 -8 -8
-0 -0 -1 -1 -1 -2 -2 -3 -6 -7 -7 -7 -8 -8 -9 -10 -10 -10 -10 -10 -9 -8 -9 -11 -10 -9 -9 -10 -10 -10 -9 -9 -7 -9 -10 -9 -9 -8 -8 -7 -7 -7 -7 -7 -7 -7 -8 -8 -9 -9 -9 -9 -9 -10
-0 -1 -1 -1 -2 -2 -3 -3 -7 -7 -8 -8 -9 -11 -11 -11 -11 -11 -11 -11 -12 -12 -11 -11 -11 -11 -11 -11 -11 -11 -11 -9 -8 -9 -11 -11 -10 -8 -9 -9 -9 -9 -9 -9 -9 -9 -9 -10 -10 -10 -10 -10 -11 -11
-1 -1 -3 -6 -5 -4 -3 -3 -3 -5 -4 -5 -5 -10 -11 -11 -11 -12 -12 -13 -13 -12 -12 -11 -11 -12 -13 -12 -12 -12 -12 -11 -12 -12 -12 -12 -12 -11 -10 -10 -10 -10 -10 -11 -11 -11 -11 -12 -12 -12 -11 -12 -12 -12
-1 -4 -7 -8 -8 -7 -7 -5 -3 -4 -5 -5 -6 -9 -9 -10 -11 -12 -14 -14 -13 -12 -12 -12 -12 -12 -13 -13 -13 -12 -12 -11 -12 -12 -12 -11 -11 -12 -12 -12 -11 -12 -12 -13 -13 -13 -13 -13 -13 -13 -13 -14 -14 -15
-8 -12 -11 -10 -9 -8 -7 -7 -6 -7 -6 -6 -7 -8 -9 -11 -12 -13 -13 -14 -13 -13 -13 -13 -13 -14 -14 -13 -13 -12 -12 -12 -12 -13 -13 -13 -13 -13 -13 -13 -13 -15 -16 -17 -19 -21 -22 -24 -25 -25 -25 -25 -25 -25
-15 -12 -10 -10 -9 -7 -8 -7 -8 -7 -7 -7 -7 -8 -10 -11 -13 -13 -13 -14 -14 -14 -14 -14 -13 -13 -13 -14 -14 -15 -15 -16 -16 -17 -17 -19 -21 -22 -23 -23 -24 -24 -24 -25 -26 -27 -27 -28 -28 -28 -28 -28 -28 -27
-11 -8 -9 -7 -8 -8 -7 -7 -8 -7 -6 -7 -8 -9 -11 -12 -12 -13 -13 -14 -14 -14 -14 -14 -14 -14 -14 -15 -16 -19 -19 -19 -20 -21 -21 -19 -17 -19 -23 -25 -27 -28 -28 -26 -27 -28 -28 -28 -28 -27 -26 -26 -26 -25
-8 -8 -7 -7 -8 -7 -8 -7 -8 -8 -8 -9 -9 -12 -12 -13 -13 -12 -14 -14 -14 -15 -15 -15 -14 -15 -16 -16 -17 -19 -20 -21 -22 -24 -25 -26 -27 -26 -26 -26 -24 -29 -29 -28 -27 -26 -26 -26 -26 -25 -24 -23 -25 -25
-8 -8 -9 -10 -9 -10 -9 -10 -11 -10 -10 -9 -11 -12 -13 -13 -13 -14 -14 -15 -15 -16 -16 -15 -16 -16 -16 -18 -21 -22 -23 -24 -25 -26 -28 -29 -30 -30 -29 -27 -27 -26 -26 -26 -26 -26 -26 -26 -26 -25 -25 -25 -25 -25
-10 -10 -10 -11 -11 -12 -12 -11 -11 -11 -11 -12 -14 -14 -14 -14 -14 -15 -15 -15 -15 -16 -17 -18 -18 -19 -20 -21 -22 -23 -24 -26 -27 -29 -29 -29 -27 -27 -26 -26 -26 -26 -26 -26 -26 -25 -26 -26 -26 -26 -26 -26 -26 -26
-10 -12 -12 -14 -13 -13 -13 -12 -12 -13 -14 -14 -14 -15 -16 -17 -18 -16 -17 -16 -16 -16 -16 -17 -19 -20 -21 -22 -23 -24 -26 -29 -29 -28 -27 -26 -25 -26 -26 -26 -26 -26 -25 -25 -25 -26 -27 -27 -27 -27 -27 -27 -27 -26
-11 -11 -12 -13 -14 -13 -14 -16 -15 -16 -16 -16 -16 -17 -17 -18 -17 -16 -16 -16 -16 -16 -16 -17 -20 -20 -21 -22 -23 -25 -28 -29 -27 -27 -26 -26 -26 -27 -27 -26 -26 -25 -26 -26 -27 -27 -27 -27 -27 -27 -27 -27 -26 -26
-12 -11 -12 -13 -13 -14 -16 -17 -17 -17 -18 -17 -17 -17 -17 -18 -17 -17 -16 -17 -17 -17 -18 -19 -18 -18 -19 -20 -24 -28 -28 -27 -26 -27 -27 -27 -27 -27 -26 -26 -26 -26 -26 -27 -28 -28 -28 -28 -28 -27 -27 -27 -27 -26
-13 -12 -13 -13 -14 -15 -14 -14 -14 -14 -16 -15 -17 -18 -18 -17 -17 -17 -17 -17 -17 -17 -17 -17 -18 -19 -21 -25 -28 -28 -26 -26 -27 -27 -28 -28 -28 -27 -27 -26 -26 -26 -27 -27 -28 -28 -28 -28 -28 -27 -27 -27 -27 -26
-13 -12 -12 -13 -14 -14 -14 -13 -14 -14 -15 -15 -16 -17 -17 -16 -17 -18 -18 -18 -18 -18 -18 -18 -22 -24 -28 -28 -27 -26 -26 -27 -27 -28 -29 -28 -28 -27 -27 -26 -26 -26 -27 -27 -28 -28 -28 -27 -27 -27 -27 -27 -26 -26

GFSWCAN_850_dewp_057.txt.gz
Dewpoint
0 -1 -0 0 -0 -0 0 -1 -1 -2 -1 -1 -2 0 -1 -0 -1 0 1 -1 -1 -2 -3 -3 -2 -1 -5 -5 -1 -3 -2 1 3 5 4 0 2 -2 -2 -2 3 7 6 9 7 8 8 -2 -2 -0 -1 -3 -3 -3
0 -2 -1 0 0 -0 -1 -2 -2 -1 -1 -0 1 -1 -0 -1 0 0 1 -1 -1 0 1 1 3 2 1 -4 -6 -4 -1 -1 -1 1 2 1 5 7 0 4 -4 5 4 6 3 3 0 -0 -1 -2 -3 -3 -1 -2
-0 -1 -1 1 0 -0 -0 -1 0 -0 0 -0 -0 1 -0 0 -0 1 1 -0 -1 1 1 1 1 1 -0 3 3 0 -0 -3 -3 -4 -2 0 3 -0 8 4 -0 1 0 4 2 1 0 -0 0 -0 -1 -1 -1 -0
1 -1 -1 0 -0 0 0 0 0 0 0 1 -0 -1 1 0 0 1 -0 0 0 0 3 -0 -1 -0 -0 2 3 3 2 -3 -3 -2 0 4 5 -6 3 -0 -0 -0 0 1 1 -2 -2 -1 1 1 0 -0 -0 -1
1 1 1 0 0 0 0 -0 -1 -1 -1 -1 0 0 0 -0 0 0 0 1 1 -1 1 -2 -1 -1 -1 -3 2 2 4 3 -2 1 5 4 -1 -4 -3 1 2 -5 -3 3 2 -4 1 1 1 0 1 1 1 -0
1 1 1 1 1 1 0 -0 0 0 1 1 0 0 0 0 0 0 -0 0 0 -1 -3 -1 -0 -2 -3 -0 -1 2 3 3 0 -1 3 -2 -6 -3 7 5 -3 -8 -6 -4 -1 -0 1 1 2 1 1 1 1 1
-0 1 1 1 1 1 2 1 1 1 1 1 0 -0 0 0 -0 -0 0 -1 -0 -2 -3 -2 -4 -0 0 1 1 1 2 2 3 2 3 1 -1 -1 6 7 -4 -5 -3 -3 -0 1 2 2 0 0 -1 2 2 1
-0 0 0 1 1 1 1 0 0 0 -0 -0 0 0 -0 -0 -0 0 -2 -2 -2 -2 -2 -1 2 2 2 2 1 2 2 2 2 2 2 4 2 4 5 -0 -2 -3 -2 -0 2 2 3 2 1 1 1 2 2 1
-3 -0 -0 0 0 0 0 -0 -0 -0 -0 -0 -0 -0 -0 -1 -0 -0 -0 -2 -1 -1 -2 1 3 4 2 2 3 3 2 4 1 5 4 3 4 6 1 -1 -1 -1 1 1 2 3 3 2 2 1 1 1 1 1
-7 -7 -4 -1 -0 -1 -0 -0 -0 -0 -0 -1 -1 -2 -1 -0 -3 -2 -1 -1 -1 -1 1 2 2 2 0 2 4 4 4 4 5 5 3 5 4 0 2 3 3 3 3 3 3 3 3 2 2 1 1 1 1 1
-6 -6 -5 -4 -4 -3 -2 -1 -1 -2 -3 -2 -2 -0 -0 -0 -0 1 0 1 1 2 1 0 1 1 0 3 4 4 5 5 6 5 4 6 4 -0 -1 1 3 3 3 3 3 2 2 3 3 2 1 1 1 0
-6 -6 -4 -3 -2 -1 -2 -3 -1 -0 -1 -2 -0 -0 -0 0 1 1 1 0 0 -0 1 1 1 1 2 2 4 4 5 4 7 3 5 3 1 -1 -1 -1 0 1 2 2 2 2 2 1 2 2 1 1 0 -0
-6 -6 -5 -5 -3 -2 -1 -2 -2 -2 -1 -1 -3 -1 -1 1 1 0 1 0 3 2 2 2 3 2 2 2 3 5 6 5 3 4 3 1 -2 -2 -2 -2 -1 -0 0 -0 -1 -0 0 0 0 0 -1 -2 -2 -2
-5 -6 -5 -5 -6 -6 -5 -6 -2 -2 -1 -0 -0 1 2 2 -1 -1 -1 0 -1 -0 1 3 2 3 2 3 2 5 2 3 6 5 2 -2 -3 -2 -3 -3 -3 -3 -2 -3 -3 -3 -2 -2 -3 -3 -3 -4 -4 -5
-3 -4 -3 -3 -2 -2 -3 -5 -2 -3 -3 -3 -4 -3 -2 -4 -4 -4 -3 -2 -2 -1 -0 2 1 1 2 3 2 3 5 2 -0 -1 -3 -3 -3 -3 -4 -4 -4 -4 -4 -5 -5 -5 -5 -5 -5 -6 -6 -6 -6 -6
-2 -2 -1 -1 -1 -1 -1 -1 -2 -3 -4 -5 -7 -6 -7 -5 -5 -6 -5 -4 -4 -2 -1 -0 1 3 1 1 -0 -0 -0 -2 -3 -4 -5 -4 -4 -4 -5 -5 -5 -5 -5 -6 -6 -6 -6 -6 -7 -7 -6 -6 -6 -6
-1 -1 -1 -2 -2 -1 -1 -3 -5 -5 -5 -5 -5 -7 -8 -8 -8 -7 -6 -5 -5 -3 -0 -1 -2 -2 -1 -2 -4 -5 -5 -5 -6 -7 -7 -7 -6 -6 -6 -6 -6 -6 -7 -7 -7 -7 -8 -7 -7 -6 -7 -8 -7 -8
-1 -3 -3 -1 -2 -4 -5 -5 -5 -5 -6 -7 -6 -7 -8 -8 -8 -7 -6 -6 -3 -3 -4 -5 -5 -5 -5 -4 -6 -7 -7 -6 -7 -8 -9 -9 -8 -8 -8 -8 -8 -7 -8 -8 -8 -8 -8 -8 -8 -9 -9 -9 -9 -9
-2 -3 -2 -2 -1 -3 -2 -3 -6 -7 -7 -6 -7 -7 -7 -8 -8 -8 -7 -7 -7 -7 -7 -8 -8 -8 -8 -9 -9 -8 -8 -7 -8 -9 -10 -10 -10 -10 -9 -9 -9 -9 -9 -9 -9 -10 -10 -10 -10 -10 -10 -10 -10 -11
-1 -2 -1 -1 -3 -2 -2 -3 -6 -7 -7 -7 -8 -9 -9 -9 -9 -10 -10 -10 -11 -11 -11 -10 -10 -10 -10 -10 -10 -10 -9 -7 -8 -10 -11 -11 -11 -11 -11 -11 -11 -11 -11 -11 -11 -11 -11 -11 -11 -12 -12 -12 -12 -12
-1 -2 -4 -5 -5 -4 -3 -3 -4 -5 -4 -6 -6 -9 -8 -10 -10 -11 -11 -12 -11 -12 -11 -10 -11 -11 -12 -12 -11 -11 -12 -11 -11 -11 -11 -12 -12 -12 -12 -12 -12 -12 -12 -13 -13 -13 -13 -13 -13 -13 -12 -13 -13 -14
-6 -7 -8 -8 -7 -6 -5 -4 -5 -4 -7 -7 -8 -9 -8 -9 -10 -12 -13 -13 -12 -11 -11 -11 -11 -11 -12 -12 -12 -12 -13 -13 -13 -13 -13 -13 -13 -13 -13 -14 -13 -13 -14 -14 -15 -15 -16 -16 -15 -17 -16 -16 -16 -22
-11 -12 -11 -9 -7 -6 -6 -5 -5 -6 -5 -6 -8 -8 -9 -9 -12 -12 -12 -13 -12 -12 -11 -12 -12 -12 -12 -12 -13 -13 -13 -12 -13 -13 -14 -14 -14 -15 -15 -15 -15 -15 -16 -16 -16 -17 -19 -19 -21 -17 -17 -17 -17 -17
-14 -12 -10 -6 -6 -5 -5 -6 -7 -7 -7 -7 -8 -8 -9 -10 -11 -12 -12 -13 -12 -12 -12 -12 -11 -12 -13 -14 -14 -15 -15 -14 -14 -14 -14 -15 -15 -16 -16 -16 -16 -16 -16 -16 -17 -17 -18 -18 -18 -18 -19 -19 -19 -19
-10 -7 -6 -6 -6 -6 -6 -6 -6 -7 -7 -8 -8 -8 -9 -11 -10 -11 -12 -13 -13 -12 -12 -12 -13 -13 -13 -14 -15 -15 -16 -16 -16 -16 -16 -14 -14 -15 -16 -17 -20 -20 -18 -18 -18 -18 -19 -19 -19 -19 -20 -21 -21 -20
-7 -7 -7 -7 -7 -6 -7 -6 -7 -7 -7 -8 -8 -10 -10 -10 -11 -11 -13 -12 -13 -13 -13 -13 -13 -14 -15 -15 -16 -16 -16 -16 -17 -19 -23 -22 -18 -16 -17 -17 -17 -19 -20 -20 -20 -19 -20 -20 -20 -20 -20 -20 -22 -21
-7 -7 -9 -9 -9 -8 -8 -8 -9 -8 -8 -8 -9 -10 -10 -10 -11 -13 -13 -13 -13 -15 -15 -14 -14 -15 -15 -16 -17 -20 -24 -26 -28 -27 -28 -29 -28 -28 -25 -23 -25 -25 -23 -23 -21 -21 -21 -21 -21 -22 -21 -21 -22 -24
-9 -10 -9 -10 -10 -11 -10 -10 -10 -10 -10 -11 -12 -11 -11 -12 -13 -13 -14 -15 -15 -16 -16 -16 -16 -16 -16 -17 -17 -17 -23 -28 -30 -27 -21 -22 -26 -27 -27 -26 -27 -27 -27 -27 -27 -26 -27 -27 -28 -27 -28 -25 -27 -24
-9 -10 -13 -12 -12 -12 -12 -11 -11 -13 -13 -12 -12 -13 -15 -15 -14 -15 -15 -16 -16 -16 -16 -17 -18 -20 -21 -22 -23 -25 -29 -21 -18 -21 -18 -18 -19 -21 -26 -26 -26 -27 -27 -24 -28 -29 -29 -29 -29 -29 -28 -27 -24 -23
-9 -10 -12 -13 -13 -12 -13 -13 -13 -14 -14 -14 -15 -16 -16 -16 -17 -16 -16 -16 -15 -16 -16 -17 -17 -17 -17 -17 -19 -26 -29 -28 -27 -20 -18 -19 -21 -26 -26 -26 -26 -27 -28 -28 -28 -28 -29 -29 -27 -26 -26 -26 -26 -27
-9 -10 -12 -13 -13 -13 -13 -14 -14 -14 -14 -14 -14 -14 -15 -16 -17 -17 -17 -17 -17 -18 -17 -18 -18 -17 -18 -19 -18 -19 -20 -27 -27 -28 -28 -28 -28 -27 -27 -27 -27 -27 -28 -28 -28 -28 -28 -28 -25 -26 -26 -27 -27 -27
-10 -11 -12 -12 -13 -13 -13 -12 -12 -13 -13 -13 -14 -15 -15 -14 -15 -17 -17 -17 -17 -17 -17 -17 -18 -18 -20 -25 -28 -28 -27 -27 -28 -28 -28 -28 -28 -28 -27 -27 -26 -27 -27 -28 -28 -28 -28 -28 -27 -27 -27 -27 -27 -27
-11 -12 -12 -12 -13 -12 -12 -12 -13 -13 -13 -14 -14 -14 -14 -14 -15 -16 -17 -17 -17 -17 -18 -18 -19 -24 -26 -28 -27 -26 -27 -27 -27 -28 -28 -28 -28 -28 -27 -27 -27 -26 -27 -27 -27 -27 -27 -27 -27 -27 -27 -27 -27 -26

GFSWCAN_850_dewp_060.txt.gz
Dewpoint
-0 1 0 -1 -1 0 0 -0 0 -0 -0 0 -1 1 -0 0 -0 -0 -0 0 2 1 -1 -0 1 0 -2 -4 -1 -4 -2 0 4 5 5 3 5 -1 -4 -7 4 7 7 8 8 9 9 -0 -2 0 0 -2 -3 -3
1 0 -1 -1 1 -0 -1 -2 -1 0 1 0 0 0 -0 -0 -0 -0 0 -1 1 1 2 1 0 -1 1 1 -2 -4 -2 2 2 5 3 2 7 6 -0 3 -5 3 3 7 6 5 3 0 -1 -2 -1 1 -0 -1
1 0 -1 0 -0 -0 -2 -1 -1 -0 -0 -1 0 0 -0 -0 0 -0 -0 -1 2 2 2 2 2 -1 -1 1 2 2 -3 -2 1 -1 -1 2 5 0 8 5 2 1 1 4 4 2 3 3 2 0 -0 0 -0 -0
1 0 -0 -0 0 -1 1 0 -1 -2 -2 -2 -0 0 -0 -0 -1 -1 -1 0 1 1 2 -1 -0 1 -4 -4 1 2 2 1 0 -1 2 6 5 -1 5 2 1 -1 -0 3 4 2 0 -1 -1 1 0 0 1 -0
1 1 0 -0 -0 0 0 1 -1 -1 -0 -1 -1 0 -1 -0 0 1 1 1 1 -1 1 1 -0 1 -1 -3 -0 1 2 3 4 4 5 5 2 1 2 1 2 -3 -3 2 4 -1 0 -0 -4 -4 -2 -2 -1 1
1 1 0 -1 -1 0 1 1 0 0 0 -0 -0 -0 -0 -1 -1 1 1 1 -0 0 1 3 -1 0 -1 -5 -3 -3 2 2 5 4 4 0 -2 -0 7 1 -5 -5 -6 -6 -4 -6 -2 -1 1 1 2 -0 -1 1
1 1 1 0 -1 -0 -0 0 0 -0 0 1 0 0 0 1 1 -0 1 0 1 -1 -2 -2 -3 -2 -0 -1 1 -0 1 3 4 4 4 1 -1 -2 3 5 -3 -4 -4 -5 -6 -5 -2 0 2 2 1 0 0 1
0 1 1 1 1 0 0 1 1 1 0 0 -0 -0 0 0 -1 -0 -0 -1 -0 -1 -3 -1 -1 0 0 2 1 -0 0 2 3 3 2 3 1 2 4 -3 -3 -3 -3 -3 -4 -1 1 2 3 2 1 0 1 1
-0 0 0 1 1 1 1 0 -0 -0 -0 -0 -0 -0 0 0 -0 -1 -1 -1 -2 0 -2 0 1 3 2 2 1 1 1 4 2 5 4 3 5 5 3 3 3 4 4 4 4 4 1 2 3 2 2 1 1 2
-0 0 0 -0 0 0 0 -0 -0 -0 0 0 0 0 0 -1 -4 -3 -4 -2 -2 -1 1 -1 1 2 0 2 3 4 2 2 3 3 2 5 5 0 -1 0 1 3 3 3 3 4 3 3 3 3 2 1 1 1
-3 -1 -0 -0 -0 -0 -1 -1 -0 -0 -0 0 0 0 -1 -0 1 1 0 -1 -2 -1 -2 -1 1 2 -0 1 3 3 4 4 5 4 5 5 3 -1 -1 -1 -1 0 2 2 2 2 3 2 2 3 2 2 1 1
-3 -4 -3 -1 -1 -1 -1 -1 -0 0 -1 -1 -1 -0 -0 -0 1 1 1 1 0 -0 -0 1 1 2 0 0 1 3 3 4 6 4 6 3 -0 -2 -2 -2 -2 -1 -0 1 1 1 2 2 2 2 2 1 1 1
-3 -2 -4 -3 -2 -3 -3 -2 -1 -0 -0 -1 0 0 0 1 1 2 -0 1 2 1 2 2 3 2 2 1 1 3 4 4 3 4 1 -1 -3 -3 -3 -3 -4 -3 -2 -1 -1 -1 -0 0 1 1 0 -0 -0 -0
-5 -3 -4 -4 -4 -4 -2 -2 -2 -3 0 -0 0 -1 1 -1 -2 -2 -2 -1 -1 -1 -1 0 2 2 2 2 1 4 2 2 5 3 -1 -3 -3 -3 -4 -4 -5 -5 -5 -5 -5 -4 -4 -4 -4 -4 -4 -4 -3 -5
-6 -5 -5 -4 -3 -5 -2 -3 -3 -5 -3 -4 -5 -3 -4 -3 -4 -4 -4 -2 -2 -3 -2 1 1 1 2 3 2 3 3 -0 -2 -2 -4 -5 -4 -5 -5 -5 -5 -5 -6 -6 -6 -7 -7 -7 -7 -7 -7 -6 -6 -6
-2 -1 -1 -2 -1 -1 -1 -4 -3 -3 -5 -7 -7 -6 -7 -5 -6 -6 -5 -4 -3 -4 -1 -0 2 2 0 -1 -2 -2 -3 -4 -4 -5 -6 -6 -6 -6 -6 -6 -6 -6 -7 -7 -7 -8 -8 -8 -8 -8 -8 -8 -8 -7
-2 -2 -1 -1 -1 -1 -1 -3 -5 -6 -6 -5 -6 -7 -7 -8 -7 -6 -5 -5 -5 -4 -1 -1 -3 -2 -2 -4 -5 -6 -4 -5 -7 -8 -8 -8 -8 -7 -7 -7 -7 -7 -8 -8 -8 -8 -8 -8 -7 -8 -9 -9 -8 -9
-0 -2 -2 -3 -1 -2 -5 -5 -5 -6 -7 -6 -7 -7 -7 -7 -7 -6 -5 -5 -3 -4 -5 -5 -7 -7 -6 -6 -7 -7 -6 -7 -9 -9 -10 -9 -9 -9 -9 -9 -9 -9 -9 -9 -9 -9 -9 -9 -9 -10 -10 -10 -10 -10
-1 -2 -1 -1 -2 -2 -3 -5 -6 -6 -6 -6 -7 -7 -7 -7 -8 -7 -6 -6 -7 -7 -7 -8 -9 -8 -8 -9 -8 -8 -7 -8 -9 -10 -11 -10 -10 -10 -10 -10 -10 -10 -10 -10 -10 -10 -10 -10 -10 -10 -10 -11 -11 -11
-2 -2 -2 -2 -1 -2 -3 -4 -6 -6 -6 -6 -6 -8 -8 -8 -8 -9 -9 -8 -8 -8 -9 -10 -10 -10 -10 -10 -10 -10 -9 -8 -9 -10 -11 -11 -11 -11 -12 -12 -12 -12 -11 -11 -12 -12 -12 -12 -12 -12 -12 -12 -12 -12
-1 -3 -4 -4 -5 -4 -2 -4 -5 -4 -4 -4 -7 -7 -7 -9 -10 -11 -11 -12 -11 -11 -10 -10 -11 -11 -12 -12 -11 -11 -11 -11 -11 -11 -11 -12 -12 -12 -13 -13 -13 -13 -13 -13 -13 -14 -14 -14 -14 -14 -14 -15 -14 -14
-6 -7 -8 -7 -5 -5 -4 -4 -4 -5 -6 -7 -7 -8 -8 -8 -9 -11 -13 -12 -11 -11 -10 -10 -11 -11 -11 -12 -12 -12 -12 -12 -13 -13 -13 -13 -13 -13 -14 -14 -14 -14 -15 -15 -16 -16 -18 -16 -16 -16 -15 -15 -17 -20
-10 -11 -10 -7 -6 -5 -5 -5 -5 -6 -6 -7 -8 -8 -8 -9 -11 -12 -12 -12 -11 -10 -11 -11 -12 -12 -12 -12 -12 -12 -12 -12 -12 -13 -13 -14 -14 -14 -14 -14 -14 -15 -15 -16 -16 -16 -17 -17 -17 -17 -17 -17 -17 -17
-15 -12 -8 -4 -5 -4 -4 -5 -7 -7 -7 -8 -8 -8 -9 -9 -11 -12 -11 -11 -11 -11 -11 -10 -11 -12 -13 -14 -14 -14 -14 -13 -13 -13 -13 -14 -15 -16 -16 -16 -16 -16 -16 -16 -17 -17 -18 -18 -18 -18 -21 -19 -18 -19
-9 -7 -5 -5 -5 -5 -6 -6 -7 -7 -7 -8 -8 -8 -9 -10 -10 -10 -11 -11 -11 -11 -11 -11 -11 -12 -13 -14 -14 -14 -15 -15 -16 -16 -15 -14 -14 -15 -16 -17 -18 -18 -18 -17 -18 -18 -19 -19 -19 -19 -20 -25 -20 -20
-7 -8 -6 -6 -7 -6 -6 -6 -6 -7 -8 -8 -8 -9 -9 -10 -10 -10 -11 -11 -12 -12 -12 -11 -12 -14 -15 -15 -15 -15 -16 -15 -17 -19 -21 -20 -17 -16 -16 -17 -18 -19 -20 -19 -19 -19 -19 -20 -20 -20 -20 -21 -22 -21
-7 -7 -8 -8 -8 -8 -7 -8 -9 -8 -8 -8 -9 -9 -10 -10 -10 -12 -12 -12 -13 -14 -13 -13 -13 -14 -15 -15 -16 -19 -26 -29 -26 -22 -21 -22 -23 -23 -23 -21 -23 -23 -21 -20 -20 -20 -20 -21 -21 -21 -21 -21 -22 -22
-9 -9 -8 -9 -10 -10 -9 -10 -10 -9 -10 -11 -11 -11 -11 -11 -11 -11 -13 -14 -14 -15 -15 -15 -15 -15 -15 -16 -16 -16 -17 -20 -20 -18 -17 -18 -22 -22 -21 -22 -26 -26 -24 -27 -26 -27 -27 -27 -28 -27 -27 -22 -22 -22
-9 -11 -12 -11 -12 -12 -11 -10 -11 -13 -12 -11 -11 -12 -14 -13 -13 -14 -14 -14 -15 -15 -15 -16 -16 -16 -17 -20 -22 -27 -28 -19 -17 -19 -17 -17 -18 -20 -22 -23 -23 -27 -23 -21 -27 -29 -30 -30 -29 -28 -26 -24 -22 -23
-9 -10 -12 -12 -12 -12 -12 -12 -12 -12 -13 -14 -15 -15 -15 -15 -15 -15 -15 -15 -14 -15 -15 -16 -16 -15 -16 -16 -17 -24 -30 -28 -27 -20 -17 -18 -20 -22 -23 -25 -25 -26 -26 -27 -28 -24 -27 -26 -22 -22 -22 -25 -25 -27
-9 -10 -12 -13 -13 -12 -13 -12 -12 -13 -13 -12 -13 -14 -15 -15 -16 -16 -15 -15 -16 -16 -16 -17 -17 -17 -17 -17 -17 -17 -18 -26 -28 -28 -28 -27 -25 -24 -27 -27 -27 -27 -26 -28 -28 -27 -29 -28 -24 -22 -23 -25 -25 -26
-9 -11 -12 -12 -13 -12 -12 -10 -11 -12 -11 -13 -13 -14 -14 -13 -14 -16 -17 -16 -16 -15 -16 -16 -16 -17 -20 -24 -29 -29 -27 -27 -28 -29 -29 -29 -28 -28 -28 -27 -27 -27 -27 -28 -27 -27 -27 -27 -27 -25 -25 -26 -26 -26
-10 -11 -12 -12 -12 -11 -11 -11 -12 -12 -12 -13 -13 -12 -13 -12 -13 -15 -17 -16 -16 -15 -16 -17 -17 -20 -25 -29 -28 -27 -27 -28 -28 -28 -28 -28 -28 -28 -28 -27 -27 -27 -27 -27 -26 -25 -25 -25 -26 -27 -27 -26 -26 -26

GFSWCAN_850_dewp_063.txt.gz
Dewpoint
-0 -0 1 1 -0 -1 -1 -1 -0 0 0 0 -0 0 -1 0 0 0 -0 -0 1 1 -0 -2 -1 -1 -2 -2 -0 -2 -1 -1 3 2 2 2 2 2 2 1 5 6 6 7 7 7 8 3 2 1 1 -1 -1 -3
0 1 1 -0 -1 -0 -0 0 -0 -0 0 0 0 -0 0 -1 1 -0 -0 -1 -1 1 2 -2 -2 0 -0 -1 -0 -1 -3 -3 3 2 3 3 2 2 1 1 -1 5 4 5 4 6 4 3 3 -0 3 3 0 1
1 1 0 -0 -0 0 -1 -1 -1 -1 -1 -2 0 -1 0 -1 0 -0 -0 -2 -0 0 2 2 1 -2 -1 1 1 2 -1 -3 2 2 3 4 2 1 2 2 -2 1 1 4 4 3 3 1 2 2 3 4 2 1
1 0 -0 -0 -0 0 -0 -1 -1 -0 0 -0 -0 0 -0 -0 0 -0 0 -1 -1 0 2 2 1 1 0 1 1 0 -1 1 1 1 3 4 4 0 1 2 1 1 2 4 4 2 2 1 -1 1 0 2 -2 -2
0 -0 -1 1 0 -1 -2 -2 -1 -0 0 0 -0 1 1 0 -0 -0 -1 -2 -1 1 1 2 0 2 -1 -2 -0 -3 -2 1 2 3 3 3 3 2 2 2 2 -2 -2 4 5 3 2 0 -1 2 1 1 1 1
-1 -0 -1 1 0 0 -0 -1 -1 0 0 0 0 -0 -0 -0 -0 0 1 0 0 0 1 2 1 1 -1 -2 -4 -1 -0 1 2 1 3 3 1 2 3 1 -3 -4 -5 -5 -4 -7 -7 -8 -6 -1 -2 -1 -1 0
0 -0 -0 0 0 -0 -1 -1 -1 -1 0 0 -0 -0 0 -0 -0 -0 0 -1 1 1 -0 1 0 0 -1 -3 -2 -0 1 1 2 2 4 3 2 3 2 2 0 0 -0 -4 -2 -1 -1 -3 -2 1 1 1 1 0
1 1 0 -1 -0 0 -0 -0 0 -0 0 -0 -0 -0 -0 0 1 1 1 -0 1 -2 -2 -0 0 0 1 2 2 -0 1 2 2 3 3 4 2 3 4 2 2 3 3 3 3 4 4 2 2 2 2 2 1 1
1 1 0 1 -0 -1 0 1 1 0 -0 -0 -0 -0 -0 0 0 1 1 -0 -1 -1 -0 -1 -0 2 1 2 1 1 1 0 2 2 2 4 4 3 1 0 1 1 2 2 3 3 3 3 3 3 2 2 2 1
-0 0 0 0 0 0 0 0 0 -0 0 0 -1 -1 -0 -1 -1 -1 -0 -1 -2 -2 -2 -1 -1 -1 -1 0 1 1 1 0 2 2 1 3 2 -1 -2 -1 -1 -0 1 2 3 3 2 3 3 2 2 2 1 1
-0 -0 -0 -0 -1 -1 -1 -0 -0 -0 -0 -1 -0 -1 -1 0 0 0 -0 -1 -2 -1 -0 -1 1 0 0 1 2 3 2 -0 0 1 2 4 -1 -2 -2 -3 -3 -2 -1 1 1 2 2 2 2 2 2 2 1 1
-0 -1 -1 -1 -1 -1 -0 -0 -2 -3 -1 -1 -2 -1 -0 1 1 -1 -1 -0 -1 -0 -1 -1 1 0 0 0 0 2 3 1 2 1 3 0 -2 -3 -3 -4 -4 -4 -3 -2 -0 0 1 1 1 1 1 1 1 0
-2 -3 -3 -2 -1 -1 -0 -0 -1 -1 -1 -0 -0 0 -1 -1 -1 -2 -0 -1 1 -1 -1 1 1 1 0 -0 -0 1 2 3 2 1 -1 -3 -3 -4 -4 -5 -5 -5 -4 -4 -4 -3 -3 -2 -1 -1 -1 -2 -1 -2
-4 -4 -5 -6 -3 -3 -3 -3 -1 -3 -4 -2 -1 -3 -2 -2 -2 -3 -3 -2 -2 -2 -2 -1 1 1 -0 -0 1 3 1 1 2 -1 -4 -5 -4 -5 -5 -5 -6 -6 -6 -6 -6 -6 -6 -5 -5 -5 -5 -6 -5 -6
-4 -3 -2 -2 -1 -2 -2 -3 -5 -5 -7 -6 -7 -4 -5 -4 -5 -5 -5 -3 -3 -4 -3 -1 1 1 1 1 0 1 -0 -3 -3 -5 -5 -6 -6 -6 -6 -7 -7 -7 -8 -8 -8 -8 -8 -7 -7 -8 -7 -7 -7 -7
-1 -2 -2 -2 -2 -2 -3 -7 -7 -8 -7 -8 -8 -7 -7 -9 -9 -6 -6 -5 -5 -4 -2 -1 0 0 -1 -2 -3 -3 -4 -5 -6 -7 -7 -8 -7 -7 -7 -8 -8 -8 -8 -9 -9 -9 -9 -9 -9 -9 -8 -8 -8 -8
-1 -2 -2 -3 -5 -6 -2 -8 -9 -8 -7 -6 -6 -7 -7 -7 -6 -6 -6 -6 -4 -3 -2 -3 -5 -3 -4 -6 -6 -5 -6 -7 -8 -9 -9 -9 -9 -9 -8 -8 -8 -8 -9 -9 -9 -9 -9 -9 -8 -9 -10 -10 -10 -10
-1 -3 -2 -1 -1 -5 -8 -8 -9 -8 -7 -7 -7 -7 -7 -8 -7 -6 -6 -6 -4 -4 -6 -5 -9 -8 -7 -7 -7 -7 -8 -9 -10 -10 -10 -10 -10 -9 -9 -10 -9 -9 -9 -9 -9 -10 -10 -10 -10 -10 -11 -11 -11 -11
-2 -3 -2 -1 -2 -3 -5 -6 -8 -6 -6 -7 -7 -7 -7 -8 -8 -8 -7 -7 -8 -9 -9 -11 -11 -9 -9 -9 -9 -9 -9 -10 -10 -11 -11 -11 -11 -11 -11 -10 -10 -10 -10 -10 -10 -11 -11 -11 -11 -11 -11 -12 -12 -12
-2 -2 -2 -2 -2 -3 -4 -6 -6 -6 -5 -7 -7 -8 -9 -9 -9 -10 -10 -8 -10 -11 -11 -11 -10 -10 -10 -11 -10 -10 -10 -10 -11 -11 -12 -12 -12 -12 -12 -13 -13 -12 -12 -12 -12 -12 -12 -12 -12 -12 -12 -13 -13 -13
-3 -4 -5 -5 -4 -4 -3 -4 -4 -4 -4 -5 -6 -9 -9 -11 -12 -12 -12 -13 -12 -11 -11 -11 -11 -11 -12 -12 -11 -11 -11 -12 -12 -12 -13 -13 -13 -13 -13 -13 -13 -13 -13 -13 -14 -14 -14 -15 -15 -16 -15 -15 -15 -15
-6 -7 -8 -8 -6 -5 -5 -5 -5 -6 -6 -7 -8 -8 -8 -9 -11 -12 -13 -12 -11 -11 -11 -11 -12 -11 -12 -12 -12 -13 -13 -13 -13 -13 -13 -13 -14 -14 -14 -15 -14 -15 -16 -17 -18 -18 -17 -17 -16 -16 -16 -17 -19 -19
-10 -11 -9 -7 -7 -6 -6 -6 -6 -6 -6 -7 -8 -8 -8 -9 -11 -13 -12 -11 -10 -12 -12 -12 -12 -12 -12 -12 -12 -12 -13 -13 -13 -14 -14 -14 -15 -15 -15 -15 -16 -16 -16 -17 -17 -17 -18 -19 -19 -19 -17 -18 -18 -19
-14 -11 -7 -5 -5 -5 -6 -6 -7 -7 -8 -8 -8 -9 -9 -9 -12 -12 -11 -11 -11 -11 -10 -11 -12 -13 -14 -14 -14 -14 -14 -13 -13 -13 -14 -16 -19 -21 -21 -17 -17 -17 -17 -18 -18 -19 -19 -20 -22 -23 -21 -20 -19 -20
-12 -8 -6 -7 -6 -7 -8 -8 -8 -8 -9 -8 -10 -9 -10 -11 -11 -10 -11 -11 -11 -12 -12 -12 -12 -13 -14 -14 -15 -15 -16 -18 -16 -14 -14 -14 -15 -16 -17 -20 -21 -18 -18 -18 -19 -20 -20 -19 -20 -23 -25 -23 -22 -21
-8 -8 -8 -7 -7 -8 -7 -8 -9 -9 -10 -10 -8 -9 -10 -12 -13 -11 -11 -12 -13 -13 -12 -12 -14 -15 -15 -15 -17 -16 -16 -16 -23 -28 -23 -17 -17 -17 -17 -19 -23 -23 -21 -19 -19 -21 -23 -23 -22 -23 -25 -26 -26 -24
-9 -8 -8 -8 -8 -8 -8 -9 -10 -10 -11 -9 -9 -11 -13 -14 -13 -11 -12 -13 -14 -14 -13 -13 -14 -15 -16 -17 -21 -26 -28 -28 -28 -25 -25 -26 -27 -26 -26 -27 -27 -26 -25 -26 -25 -25 -26 -26 -26 -25 -25 -25 -24 -24
-9 -9 -9 -10 -10 -10 -12 -12 -12 -12 -12 -10 -12 -14 -14 -13 -12 -13 -14 -14 -15 -15 -14 -14 -15 -16 -16 -16 -16 -17 -17 -17 -18 -17 -18 -19 -20 -25 -27 -26 -27 -26 -26 -28 -29 -29 -30 -30 -30 -29 -27 -26 -24 -24
-10 -12 -13 -13 -12 -12 -11 -11 -12 -12 -12 -10 -13 -14 -13 -13 -14 -14 -15 -15 -15 -15 -16 -17 -17 -18 -19 -21 -25 -27 -20 -17 -20 -17 -17 -18 -18 -22 -25 -26 -26 -26 -27 -27 -28 -29 -30 -29 -27 -26 -26 -26 -27 -26
-9 -12 -13 -13 -14 -13 -12 -11 -11 -14 -15 -15 -15 -14 -15 -14 -14 -15 -15 -15 -14 -15 -16 -16 -15 -16 -16 -16 -19 -25 -28 -27 -25 -22 -18 -19 -23 -26 -26 -27 -27 -27 -28 -28 -29 -29 -28 -27 -25 -23 -24 -25 -27 -27
-10 -12 -13 -13 -12 -13 -14 -14 -14 -14 -13 -14 -15 -16 -16 -16 -15 -15 -15 -15 -15 -16 -16 -16 -16 -16 -18 -19 -19 -22 -24 -26 -28 -29 -29 -29 -28 -28 -28 -28 -28 -28 -28 -29 -29 -29 -29 -28 -28 -27 -27 -26 -27 -27
-10 -12 -13 -14 -12 -13 -12 -11 -11 -12 -12 -14 -14 -15 -14 -14 -15 -16 -16 -16 -16 -15 -16 -16 -16 -17 -19 -24 -29 -29 -28 -28 -28 -29 -28 -29 -29 -28 -28 -28 -28 -28 -28 -27 -28 -28 -28 -27 -27 -27 -27 -27 -27 -26
-11 -13 -13 -12 -12 -11 -11 -11 -12 -12 -12 -12 -13 -13 -13 -13 -14 -15 -16 -16 -16 -15 -16 -17 -17 -18 -23 -29 -29 -28 -27 -28 -28 -29 -28 -28 -28 -28 -27 -27 -28 -28 -28 -27 -27 -27 -26 -26 -26 -26 -26 -26 -26 -26

GFSWCAN_850_dewp_066.txt.gz
Dewpoint
-1 -0 -0 -0 0 1 0 0 0 0 0 0 -1 -1 -0 -0 -1 -1 -1 -0 -1 -0 0 -0 -2 -2 -2 -2 -1 -2 -1 -1 1 1 1 0 1 2 3 3 5 5 6 6 6 7 6 3 3 3 2 2 1 1
0 1 0 1 1 1 -1 -1 -1 -1 -1 -0 0 0 -0 0 1 -0 -0 -0 -0 -0 0 0 -0 -3 -3 -3 -2 -2 -1 -2 -1 1 1 1 1 0 1 3 -0 4 4 5 5 4 3 2 4 3 3 3 3 2
0 0 -0 -0 -1 -1 -1 -1 0 0 0 0 0 -0 0 -0 -0 0 -0 -0 -0 -0 -0 0 0 -1 -2 -1 -2 -1 -1 -1 -1 -1 2 2 1 1 2 1 -1 -1 1 3 4 1 2 1 1 -3 -0 1 1 2
-0 -1 1 -0 -1 -1 -1 -1 -0 -0 -0 -1 -1 -0 -0 1 0 0 -1 -1 -0 -0 0 1 0 -0 -0 -1 -2 -1 -1 -0 0 -0 2 2 2 1 1 0 -0 -3 -0 0 3 2 2 2 1 0 -0 -1 -1 -0
-2 -1 0 0 -1 -2 -2 -1 -0 -0 -0 -0 -1 -1 -0 0 0 0 -1 -0 -1 -4 1 1 2 0 -1 -1 -1 -3 0 0 1 2 2 2 2 2 2 2 1 -0 1 4 3 2 2 2 -4 -4 -1 -1 -1 0
-0 -0 0 -0 -1 -2 -0 -1 0 -1 -0 -2 -1 0 -0 1 0 -1 -0 -0 -1 -3 0 2 2 2 2 2 -0 -0 0 0 1 1 1 2 2 2 3 3 3 3 4 2 2 2 0 -4 -4 -3 -4 -0 2 2
-0 0 -0 -1 -1 -0 -0 -0 0 -0 0 -0 0 -0 0 -0 -0 -0 -0 -1 -1 -0 0 2 2 2 0 1 2 1 1 1 0 1 2 2 2 1 2 3 1 2 2 3 3 3 2 2 1 0 2 2 1 1
-0 -0 -0 -1 -0 -1 -1 0 -0 -0 0 1 1 0 -0 -0 -0 1 -1 -2 -0 1 -0 -1 2 2 1 1 1 0 2 2 2 1 2 2 3 3 4 0 -0 1 1 2 3 3 3 3 3 2 2 2 2 1
-1 -0 0 -0 -0 0 -1 -0 0 -0 0 -0 -0 -0 -0 -0 0 1 1 1 -0 0 -1 -3 -2 1 1 2 1 0 1 1 1 -1 1 1 3 0 -1 -1 -1 -1 -0 1 2 2 3 3 2 2 2 2 2 2
0 0 -0 0 -0 -0 -0 -0 -0 -0 -0 -0 -0 -0 -0 0 0 1 1 0 -2 -2 -4 -2 -1 -0 -0 0 1 -0 1 -1 2 1 2 1 -0 -2 -3 -3 -2 -3 -2 -0 1 0 1 2 2 2 1 1 1 1
-0 -0 -0 -0 -0 -0 -0 0 0 0 0 -1 -2 -0 0 0 -0 -3 -1 -2 -2 -1 -1 -2 -1 -1 -0 -2 0 1 2 0 1 1 1 0 -2 -3 -4 -4 -4 -4 -3 -1 -1 -1 -0 1 1 1 1 1 0 -0
-1 -1 -1 -1 -1 -0 -0 -1 -2 -2 -2 -4 -3 -1 -0 -0 -1 -1 -0 -0 -2 1 0 -1 0 -0 -0 0 0 1 2 1 2 -0 -2 -4 -3 -4 -4 -5 -5 -5 -5 -3 -2 -2 -2 -1 -1 -1 -1 -1 -2 -2
-2 -2 -2 -1 -1 -0 -1 -0 -0 -1 -1 -0 -2 -2 -3 -4 -4 -4 -1 -0 -0 -1 -2 -1 1 0 0 0 -0 1 2 2 1 -2 -4 -5 -5 -5 -5 -6 -6 -6 -6 -6 -6 -5 -5 -5 -5 -5 -5 -5 -5 -5
-2 -1 -3 -3 -3 -3 -0 -2 -2 -4 -4 -5 -5 -6 -5 -5 -4 -4 -4 -3 -3 -3 -3 -3 -0 1 -0 -0 0 2 -0 -2 -2 -4 -6 -6 -6 -6 -7 -7 -8 -8 -8 -8 -8 -8 -7 -7 -8 -7 -7 -7 -6 -7
-2 -2 -1 -2 -2 -4 -4 -3 -6 -7 -10 -8 -8 -7 -7 -7 -7 -6 -6 -5 -4 -4 -4 -1 0 -0 -1 -1 -2 -2 -3 -5 -5 -7 -7 -7 -7 -7 -8 -8 -8 -9 -9 -9 -9 -9 -9 -9 -9 -9 -8 -8 -8 -8
-1 -1 -2 -5 -3 -3 -8 -7 -7 -9 -9 -10 -8 -9 -8 -11 -10 -7 -6 -6 -6 -4 -2 -2 -2 -1 -3 -4 -5 -5 -6 -7 -7 -8 -9 -8 -8 -8 -8 -9 -9 -9 -9 -9 -9 -10 -10 -9 -9 -9 -9 -9 -9 -9
-1 -1 -1 -5 -8 -5 -6 -11 -12 -9 -7 -7 -8 -8 -8 -7 -8 -7 -7 -7 -4 -4 -4 -4 -5 -4 -6 -6 -6 -7 -8 -8 -9 -9 -10 -10 -10 -10 -9 -9 -9 -9 -9 -10 -10 -10 -10 -10 -9 -9 -10 -10 -10 -10
-2 -1 -1 -2 -3 -8 -11 -11 -10 -9 -7 -7 -8 -8 -8 -9 -9 -8 -8 -7 -5 -6 -7 -7 -10 -9 -9 -8 -8 -9 -10 -11 -11 -11 -11 -11 -11 -10 -10 -10 -10 -10 -10 -10 -10 -10 -11 -11 -11 -12 -12 -11 -11 -12
-2 -2 -1 -1 -4 -6 -7 -8 -10 -7 -7 -8 -9 -9 -10 -9 -9 -9 -9 -11 -12 -13 -13 -12 -11 -10 -10 -10 -10 -10 -10 -11 -12 -12 -12 -12 -11 -11 -11 -11 -11 -11 -11 -11 -11 -11 -11 -11 -12 -12 -12 -12 -13 -13
-2 -2 -3 -2 -4 -5 -5 -6 -7 -7 -6 -8 -9 -10 -10 -10 -10 -12 -13 -12 -14 -13 -12 -12 -11 -11 -11 -11 -10 -11 -11 -12 -12 -13 -13 -13 -12 -11 -12 -12 -12 -12 -12 -12 -12 -12 -12 -13 -13 -13 -13 -13 -14 -14
-4 -5 -6 -6 -4 -4 -4 -4 -4 -7 -7 -7 -9 -9 -11 -13 -13 -13 -13 -14 -14 -11 -11 -12 -12 -12 -11 -10 -10 -11 -11 -11 -12 -13 -13 -13 -13 -13 -13 -13 -12 -12 -13 -13 -13 -14 -14 -16 -16 -16 -17 -17 -16 -16
-7 -8 -8 -8 -6 -6 -6 -6 -6 -7 -9 -7 -6 -9 -9 -10 -13 -14 -14 -13 -12 -11 -12 -12 -12 -12 -12 -12 -12 -12 -12 -13 -13 -13 -14 -14 -14 -14 -14 -14 -14 -16 -18 -19 -19 -18 -17 -17 -18 -19 -19 -20 -21 -21
-11 -10 -8 -8 -7 -7 -6 -6 -6 -6 -7 -7 -9 -9 -9 -10 -12 -15 -12 -11 -12 -12 -12 -13 -12 -12 -12 -13 -13 -13 -13 -14 -14 -14 -14 -15 -15 -16 -17 -18 -18 -19 -19 -19 -20 -21 -20 -18 -18 -19 -19 -20 -22 -24
-11 -8 -6 -5 -6 -6 -7 -7 -8 -8 -9 -9 -9 -9 -9 -11 -14 -13 -12 -11 -11 -12 -12 -13 -13 -14 -14 -14 -14 -13 -13 -15 -16 -16 -18 -22 -23 -19 -18 -19 -19 -19 -19 -19 -21 -22 -23 -25 -21 -21 -21 -22 -22 -23
-11 -8 -7 -10 -6 -9 -11 -11 -10 -10 -10 -10 -11 -10 -11 -12 -13 -13 -13 -12 -12 -12 -12 -14 -15 -15 -15 -16 -17 -18 -15 -14 -15 -16 -16 -16 -17 -19 -21 -20 -19 -19 -19 -21 -22 -24 -24 -24 -25 -26 -25 -24 -24 -23
-10 -8 -9 -10 -10 -10 -10 -10 -12 -12 -13 -13 -10 -10 -12 -15 -16 -13 -12 -13 -12 -12 -13 -14 -14 -15 -16 -16 -16 -17 -20 -23 -23 -19 -16 -16 -17 -17 -19 -23 -24 -22 -21 -21 -22 -24 -26 -28 -28 -28 -29 -27 -25 -25
-11 -10 -9 -9 -7 -9 -10 -10 -10 -13 -13 -11 -12 -14 -17 -17 -16 -12 -13 -13 -13 -13 -13 -14 -15 -17 -20 -24 -26 -27 -26 -26 -26 -27 -26 -26 -25 -26 -26 -28 -28 -27 -26 -25 -27 -29 -29 -30 -31 -30 -29 -29 -28 -26
-9 -11 -12 -12 -12 -11 -15 -16 -17 -15 -15 -10 -14 -17 -17 -17 -14 -13 -14 -14 -14 -14 -14 -14 -15 -16 -17 -18 -20 -20 -21 -21 -21 -20 -20 -22 -24 -27 -27 -28 -28 -28 -30 -31 -31 -31 -31 -30 -30 -29 -28 -28 -27 -27
-11 -13 -14 -15 -13 -13 -12 -16 -14 -12 -12 -11 -18 -18 -13 -14 -14 -14 -14 -15 -15 -16 -15 -15 -15 -17 -20 -23 -27 -26 -20 -19 -21 -19 -18 -19 -19 -25 -27 -27 -28 -29 -29 -28 -30 -30 -30 -29 -27 -26 -26 -26 -26 -26
-10 -14 -14 -14 -17 -15 -12 -13 -15 -15 -14 -15 -15 -15 -15 -15 -15 -15 -15 -15 -15 -16 -17 -17 -17 -17 -17 -18 -22 -27 -26 -21 -19 -19 -18 -19 -23 -27 -27 -28 -27 -28 -28 -29 -30 -28 -29 -28 -27 -26 -26 -26 -27 -27
-12 -14 -13 -13 -14 -13 -14 -15 -15 -16 -16 -16 -16 -16 -16 -15 -15 -15 -15 -14 -15 -15 -16 -16 -16 -16 -17 -20 -23 -24 -25 -27 -28 -29 -29 -29 -29 -28 -28 -28 -28 -28 -27 -28 -29 -28 -28 -28 -28 -27 -27 -27 -27 -27
-12 -14 -14 -14 -13 -13 -12 -12 -14 -14 -14 -15 -15 -16 -16 -16 -16 -16 -16 -16 -16 -16 -17 -17 -17 -17 -19 -22 -28 -30 -28 -28 -28 -29 -29 -29 -29 -28 -28 -28 -28 -28 -27 -27 -27 -27 -27 -28 -27 -27 -27 -27 -26 -26
-13 -14 -13 -13 -12 -12 -12 -11 -11 -11 -12 -13 -13 -13 -14 -14 -16 -16 -16 -16 -16 -16 -16 -16 -17 -17 -20 -28 -30 -28 -28 -28 -28 -28 -28 -28 -27 -27 -27 -27 -27 -27 -28 -28 -28 -27 -27 -27 -27 -27 -26 -26 -26 -27

GFSWCAN_850_dewp_069.txt.gz
Dewpoint
0 1 -0 0 0 -0 -0 -1 -1 -0 -2 -2 -2 -3 -3 -3 -3 -1 -0 -1 -1 -0 0 1 -0 -2 -2 -2 -1 -2 -1 -1 -0 -0 1 0 -0 1 1 2 4 4 5 4 6 6 4 3 4 8 4 3 3 2
0 -0 -1 -0 -0 0 1 0 0 1 0 -0 -0 -2 -3 -2 -2 -1 -0 -1 -1 -0 -0 1 0 -2 -3 -3 -3 -2 -2 -1 -1 0 -0 -1 -0 -1 1 3 1 3 2 3 3 3 1 -1 2 -1 3 4 3 2
-1 -1 0 -0 -0 -1 -1 -1 -0 -0 0 -0 -0 0 -2 -2 -2 -1 -1 -1 -1 -1 -1 -1 -1 1 -0 -2 -4 -2 -1 -2 -1 -1 0 0 0 -0 0 0 -1 -1 1 3 4 1 1 -2 -3 -0 2 2 0 2
-1 -1 0 -0 -1 -2 -2 -2 -1 -1 -0 -0 -0 0 -0 -0 -1 -0 -0 -0 -0 -1 -0 -1 -4 -0 1 -0 -3 -3 -3 -2 -1 -0 1 0 1 -0 -0 -1 -0 -1 -1 0 0 -1 0 1 -0 -0 -1 -0 0 1
-0 0 -1 -2 -1 -0 -0 -1 -2 -2 -1 -0 0 -0 -0 -0 0 -0 -0 -0 -1 -4 -1 -3 -2 -4 -1 1 -0 -1 -1 -0 1 2 2 1 1 2 1 1 2 3 3 4 2 3 4 1 -1 -3 -3 -1 0 0
-0 -1 -1 -1 -1 -1 0 -1 -1 -1 -0 -1 -0 0 0 0 0 -1 -0 -1 -0 -3 -1 1 -2 -2 -1 -0 1 -0 -1 -1 1 3 2 2 2 3 1 1 2 2 2 3 3 3 3 4 2 1 -1 -3 0 1
-0 -0 -1 -1 -0 1 -0 -1 -1 -1 -0 -0 -1 -0 0 0 0 -0 -1 -1 -0 -0 -0 0 2 3 2 1 1 2 0 -1 1 2 2 2 2 2 2 3 1 0 1 2 2 3 3 3 3 2 2 2 2 1
-0 -1 -2 -1 -1 -0 0 -1 -0 -0 -1 -1 -1 -0 0 0 0 -0 -3 -1 -1 -0 -0 1 2 2 2 1 1 1 1 1 1 1 1 1 2 2 3 -2 -1 -0 -0 1 1 2 3 3 2 2 2 2 2 2
-1 0 -2 0 -0 -0 0 0 0 0 -0 -0 0 -0 -0 0 0 -1 -0 -0 -1 -0 0 -1 0 2 1 1 1 1 1 1 0 -0 0 1 2 -1 -3 -3 -2 -2 -2 -1 0 1 2 2 2 2 2 2 1 0
-0 -0 -1 -1 -0 0 -0 -0 -0 -0 -0 -0 -1 -2 -0 1 -1 0 0 -0 0 0 -3 -2 -1 1 0 1 -1 -1 -0 -1 2 1 1 -1 -1 -3 -4 -3 -4 -4 -4 -3 -2 -0 -1 -0 0 1 0 -0 -1 -1
-0 -0 -0 -0 -0 -0 -0 -1 -0 -0 -1 -0 -0 -1 0 0 0 -0 -1 -1 -1 -1 -2 -0 -2 -2 -1 -1 0 -0 1 -2 -1 -0 1 -1 -3 -4 -5 -5 -5 -5 -4 -4 -3 -3 -3 -3 -3 -1 -1 -1 -2 -3
-1 -0 -0 -0 -0 -0 0 0 -0 -1 -2 -1 -0 0 0 -1 -2 -1 -1 -2 -1 1 -1 -2 -0 -1 -0 -0 -1 1 2 1 2 -1 -2 -4 -5 -5 -6 -6 -7 -7 -6 -6 -5 -5 -5 -4 -4 -5 -5 -5 -6 -6
-1 -1 -1 -0 0 -0 -0 -1 -1 -2 -0 -2 -4 -5 -6 -6 -6 -5 -2 -3 -3 -2 -3 -2 1 -0 -0 -0 -1 1 1 2 -2 -4 -6 -6 -6 -6 -7 -7 -8 -8 -7 -7 -7 -7 -7 -7 -7 -7 -7 -7 -7 -7
-1 -1 -2 -3 -1 -1 -2 -2 -4 -5 -6 -8 -7 -8 -8 -8 -6 -6 -5 -5 -4 -4 -4 -3 -1 0 -0 -0 0 1 -3 -3 -3 -6 -7 -7 -7 -7 -8 -8 -9 -9 -9 -9 -9 -8 -9 -9 -9 -9 -9 -8 -8 -8
-1 -1 -2 -2 -5 -2 -2 -4 -7 -8 -11 -9 -9 -8 -8 -8 -8 -7 -7 -5 -5 -5 -4 -2 -1 -1 -3 -3 -4 -5 -5 -6 -7 -8 -8 -8 -8 -8 -9 -9 -9 -10 -10 -10 -10 -10 -10 -10 -10 -10 -10 -9 -9 -9
-1 -2 -2 -6 -3 -8 -7 -7 -8 -11 -10 -10 -10 -10 -9 -11 -10 -9 -8 -7 -6 -5 -3 -3 -2 -2 -4 -5 -7 -6 -8 -7 -8 -9 -10 -9 -9 -9 -9 -10 -10 -10 -10 -10 -10 -10 -10 -10 -10 -10 -9 -10 -10 -10
-1 -4 -5 -7 -6 -5 -9 -10 -12 -10 -9 -8 -9 -9 -9 -9 -9 -9 -8 -8 -6 -5 -4 -5 -6 -5 -7 -6 -7 -8 -9 -10 -10 -11 -11 -11 -11 -11 -11 -10 -10 -10 -11 -11 -11 -11 -11 -11 -10 -10 -11 -11 -11 -11
-1 -2 -2 -5 -7 -10 -11 -11 -11 -9 -8 -9 -10 -9 -10 -10 -10 -9 -11 -11 -7 -8 -9 -8 -12 -10 -10 -9 -9 -10 -12 -12 -12 -12 -12 -11 -11 -10 -10 -10 -10 -10 -11 -11 -11 -11 -11 -11 -12 -12 -12 -12 -12 -12
-2 -2 -2 -4 -8 -8 -9 -10 -12 -9 -9 -10 -10 -11 -11 -11 -11 -12 -13 -14 -15 -15 -14 -13 -12 -11 -11 -11 -11 -11 -12 -12 -12 -12 -12 -11 -11 -11 -11 -11 -11 -10 -11 -11 -11 -11 -11 -12 -12 -12 -12 -12 -13 -13
-2 -3 -3 -5 -6 -6 -6 -6 -9 -9 -8 -10 -10 -10 -11 -11 -12 -13 -14 -13 -14 -14 -13 -13 -13 -12 -12 -11 -11 -12 -12 -12 -12 -13 -13 -13 -12 -12 -11 -11 -12 -12 -12 -12 -12 -12 -12 -13 -13 -13 -13 -14 -15 -15
-5 -6 -6 -7 -6 -4 -4 -5 -8 -8 -8 -9 -11 -12 -12 -14 -13 -13 -13 -15 -14 -11 -12 -12 -12 -12 -11 -11 -11 -11 -12 -12 -12 -13 -14 -14 -13 -13 -13 -13 -12 -12 -12 -13 -13 -13 -14 -15 -16 -17 -18 -19 -19 -19
-8 -9 -9 -8 -7 -7 -7 -7 -6 -7 -8 -8 -7 -9 -10 -11 -13 -14 -14 -13 -12 -12 -12 -12 -12 -12 -12 -12 -12 -12 -12 -12 -13 -13 -14 -13 -13 -13 -14 -14 -13 -14 -17 -19 -19 -19 -19 -19 -20 -21 -22 -23 -23 -23
-11 -9 -9 -8 -8 -7 -6 -6 -6 -5 -8 -7 -9 -9 -11 -11 -14 -15 -12 -12 -12 -12 -12 -12 -13 -13 -13 -13 -13 -13 -13 -13 -13 -13 -14 -14 -15 -16 -18 -19 -20 -21 -21 -21 -21 -20 -20 -19 -19 -22 -22 -23 -24 -25
-10 -8 -6 -6 -7 -7 -7 -7 -8 -9 -9 -9 -9 -9 -10 -12 -15 -14 -12 -12 -12 -13 -13 -13 -13 -14 -13 -13 -14 -14 -15 -17 -19 -19 -18 -19 -20 -19 -20 -21 -21 -21 -21 -21 -23 -24 -22 -21 -21 -23 -23 -24 -25 -26
-10 -8 -8 -11 -8 -10 -11 -12 -11 -10 -11 -11 -11 -10 -12 -13 -14 -14 -14 -13 -12 -12 -13 -14 -14 -14 -15 -15 -15 -14 -14 -14 -16 -17 -17 -18 -20 -21 -21 -21 -21 -21 -20 -22 -23 -24 -25 -25 -25 -27 -28 -27 -27 -28
-9 -8 -9 -10 -10 -10 -11 -11 -12 -12 -14 -12 -12 -11 -14 -17 -17 -15 -13 -13 -13 -13 -13 -14 -15 -15 -16 -16 -18 -20 -22 -21 -18 -18 -18 -17 -17 -18 -20 -24 -23 -22 -23 -23 -23 -25 -26 -26 -26 -27 -28 -27 -27 -26
-12 -11 -9 -10 -9 -10 -12 -11 -11 -13 -14 -13 -14 -18 -19 -19 -19 -14 -13 -13 -13 -13 -14 -15 -16 -17 -20 -20 -25 -28 -27 -26 -26 -27 -27 -25 -25 -26 -26 -27 -25 -27 -29 -27 -26 -28 -28 -29 -30 -30 -29 -28 -27 -27
-11 -12 -14 -13 -13 -13 -17 -18 -18 -16 -15 -12 -15 -19 -19 -19 -15 -13 -14 -13 -14 -14 -14 -15 -16 -18 -19 -20 -22 -21 -22 -22 -21 -21 -21 -23 -27 -28 -28 -28 -28 -29 -31 -30 -31 -31 -31 -31 -30 -30 -29 -29 -29 -28
-12 -13 -16 -18 -14 -13 -13 -17 -15 -13 -13 -13 -20 -19 -14 -14 -14 -14 -14 -14 -14 -14 -14 -15 -16 -17 -20 -23 -26 -27 -25 -21 -21 -20 -20 -20 -21 -27 -28 -28 -28 -28 -28 -27 -29 -30 -30 -29 -27 -27 -27 -27 -27 -27
-12 -15 -15 -15 -17 -16 -14 -15 -15 -14 -15 -15 -15 -15 -15 -15 -15 -15 -16 -16 -16 -16 -16 -17 -18 -17 -17 -19 -23 -26 -28 -27 -26 -23 -22 -21 -23 -28 -28 -29 -28 -28 -28 -29 -29 -29 -30 -29 -29 -28 -28 -27 -27 -27
-14 -15 -14 -14 -15 -14 -15 -16 -16 -16 -16 -16 -16 -16 -15 -15 -15 -15 -15 -15 -15 -16 -16 -16 -16 -17 -17 -19 -23 -25 -26 -26 -28 -29 -29 -29 -29 -29 -29 -28 -28 -28 -28 -28 -28 -28 -28 -28 -28 -27 -27 -27 -27 -27
-14 -14 -15 -15 -13 -13 -13 -13 -15 -15 -15 -16 -16 -16 -16 -16 -16 -16 -16 -16 -15 -15 -16 -16 -17 -17 -18 -20 -27 -30 -29 -28 -28 -29 -29 -29 -28 -28 -28 -28 -28 -28 -28 -28 -28 -27 -27 -27 -27 -26 -26 -26 -26 -26
-14 -14 -14 -13 -13 -13 -12 -12 -12 -13 -13 -14 -14 -14 -14 -16 -16 -16 -16 -16 -16 -16 -16 -16 -16 -17 -19 -28 -30 -29 -28 -28 -28 -28 -28 -28 -27 -27 -27 -27 -27 -27 -27 -27 -27 -27 -27 -27 -27 -27 -27 -27 -27 -27

GFSWCAN_850_dewp_072.txt.gz
Dewpoint
-0 0 -0 -1 -0 -1 -0 1 -0 -1 -2 -2 -3 -2 -1 -0 -0 -1 -0 -0 -0 -0 1 1 -0 0 -1 -2 -0 -1 -0 -0 0 1 1 1 1 -0 -1 2 3 4 4 6 5 6 5 0 4 6 4 1 1 1
-0 -1 -2 -1 0 0 -0 -1 0 -0 -1 -1 -2 -2 -2 -0 -0 -1 -1 -0 -0 -0 0 1 1 -1 -1 -3 -3 -2 -2 -1 -1 -0 -1 -1 -0 -1 1 2 1 2 1 3 3 3 0 0 -0 -1 -2 -2 -4 -2
-1 -1 -1 -0 -1 -1 -2 -2 -1 0 -1 -0 -0 -2 -2 -1 -0 -1 -1 -1 -1 -1 -1 -0 0 1 -0 -1 -2 -2 -2 -3 -2 -3 -1 -1 -1 -1 0 0 -1 -1 0 3 2 -3 -1 -3 -1 -1 -1 -1 -1 -2
-0 -1 -1 -1 -1 -1 -1 -2 -3 -1 -0 -0 -0 -1 -2 -3 -2 -1 -1 -1 -1 -1 -0 -2 -3 -0 0 0 -1 -2 -2 -3 -1 0 -0 -0 0 -1 -1 -2 -1 -2 -1 0 -0 -2 1 -2 -1 2 2 1 2 2
-0 -0 -2 -1 -0 -0 -1 -0 -1 -2 -1 0 0 -0 -1 -3 -3 -1 -1 -1 -1 -4 -1 -3 -3 -4 -2 -0 -0 -1 -2 -2 -1 1 0 0 0 1 0 1 1 2 1 2 1 3 3 3 3 4 3 3 1 0
-0 -1 -1 -1 -0 -1 -0 -2 -1 -2 -1 -0 -0 0 0 -2 -2 -1 -0 -1 -2 -2 -2 -0 -3 -2 -4 0 0 0 -1 -1 0 1 1 1 2 2 -0 1 2 1 1 2 2 2 2 3 3 3 3 3 3 3
-2 -1 -1 -1 -1 -1 -1 -1 -1 -1 -2 -0 0 -0 0 -0 -1 -0 -1 -2 -1 -1 -1 -3 1 -1 -1 1 2 2 2 2 2 2 1 1 2 1 2 3 0 0 0 -0 2 2 2 2 2 2 2 2 2 1
-0 -1 -0 0 -0 -1 -0 -1 -0 -0 -1 0 0 -0 0 -0 -0 -0 -1 -1 -0 -1 -0 -1 1 2 1 2 2 2 2 2 2 1 1 1 2 2 3 -2 -2 -2 -2 -0 0 0 1 2 2 1 1 1 1 1
-1 -0 -0 -0 -0 -0 -1 -0 -0 -0 0 -0 0 -0 -1 -0 -0 -0 -0 -0 -0 -1 -1 -0 0 2 1 1 2 1 1 1 1 1 -0 1 1 -0 -3 -3 -3 -3 -3 -3 -2 -0 1 1 -1 0 0 -0 -1 -1
-1 -1 -0 -0 -1 -0 -0 -0 -0 -0 -0 -1 -0 -0 -0 -0 -2 -1 0 -0 -0 -0 -0 -0 -1 1 1 0 -0 0 -0 0 1 1 -1 -3 -2 -4 -4 -5 -5 -5 -5 -4 -3 -2 -2 -2 -3 -2 -2 -3 -3 -3
-1 -2 -1 -0 0 -0 -0 -0 -1 -0 -0 -0 -0 -0 -0 -0 -0 -0 -1 -1 -1 -1 -1 -1 -1 -0 -1 -1 0 -1 0 -2 1 -0 1 -1 -4 -5 -6 -6 -7 -7 -6 -6 -5 -4 -4 -4 -4 -3 -4 -4 -5 -6
-0 -0 -1 -1 -0 -0 -1 0 -1 -1 -1 -0 -0 0 -0 -0 -1 -1 -1 -1 -1 -1 -2 -0 -1 -1 -1 -1 -1 0 -1 0 0 -2 -3 -5 -5 -7 -7 -7 -8 -8 -7 -7 -7 -7 -7 -6 -6 -6 -7 -7 -8 -8
-1 -1 -0 -0 0 -0 -1 -1 -1 -0 -1 -1 -5 -8 -8 -8 -8 -6 -3 -2 -2 -3 -4 -2 -1 -1 -1 -1 -1 1 1 1 -4 -5 -6 -7 -7 -7 -8 -8 -9 -9 -9 -9 -9 -9 -9 -9 -8 -8 -9 -9 -9 -9
-2 -2 -3 -1 -1 -2 -3 -5 -7 -5 -8 -9 -9 -9 -10 -9 -7 -6 -6 -6 -4 -5 -4 -3 -1 -0 -1 -1 -2 0 -3 -4 -5 -7 -7 -8 -8 -8 -9 -9 -10 -10 -10 -10 -10 -10 -10 -10 -10 -10 -10 -10 -10 -10
-1 -1 -3 -4 -3 -3 -5 -6 -9 -9 -11 -9 -10 -9 -9 -9 -8 -8 -8 -6 -6 -5 -4 -2 -2 -4 -4 -5 -6 -5 -6 -7 -7 -8 -8 -9 -10 -10 -10 -10 -10 -10 -11 -11 -11 -11 -11 -11 -11 -11 -11 -11 -10 -10
-2 -3 -5 -4 -7 -7 -7 -8 -10 -12 -11 -11 -11 -10 -10 -10 -10 -10 -9 -8 -7 -5 -3 -3 -3 -5 -5 -6 -7 -7 -8 -9 -10 -10 -11 -11 -11 -10 -10 -10 -11 -11 -11 -11 -11 -11 -11 -11 -11 -11 -11 -11 -11 -11
-5 -5 -7 -9 -8 -9 -9 -9 -12 -11 -9 -10 -10 -10 -10 -10 -10 -10 -9 -10 -7 -5 -5 -6 -7 -6 -7 -7 -9 -10 -11 -11 -11 -12 -11 -11 -11 -11 -10 -10 -11 -11 -11 -11 -11 -11 -12 -11 -11 -11 -12 -12 -12 -12
-2 -2 -5 -7 -7 -10 -11 -12 -11 -11 -10 -10 -12 -10 -10 -11 -11 -11 -13 -12 -9 -9 -8 -8 -9 -10 -10 -9 -10 -11 -12 -12 -12 -12 -12 -12 -11 -11 -10 -11 -11 -11 -11 -11 -11 -11 -11 -11 -11 -12 -12 -12 -12 -13
-2 -3 -5 -8 -9 -10 -10 -11 -13 -10 -10 -11 -11 -11 -11 -12 -12 -13 -14 -15 -15 -15 -14 -13 -12 -11 -11 -11 -11 -12 -12 -12 -13 -13 -13 -12 -12 -11 -11 -11 -11 -11 -11 -12 -11 -12 -12 -12 -12 -13 -13 -13 -13 -14
-4 -3 -5 -7 -8 -8 -7 -8 -12 -11 -10 -10 -11 -12 -12 -12 -13 -14 -14 -13 -14 -14 -13 -14 -14 -13 -12 -11 -12 -12 -12 -12 -13 -13 -13 -13 -13 -12 -12 -12 -12 -12 -12 -12 -12 -13 -13 -13 -13 -14 -15 -15 -16 -16
-6 -6 -6 -8 -6 -5 -6 -9 -9 -10 -9 -11 -11 -13 -14 -15 -13 -14 -14 -15 -14 -12 -13 -13 -13 -12 -11 -12 -12 -12 -12 -12 -12 -13 -14 -14 -13 -13 -13 -13 -13 -13 -13 -13 -13 -14 -17 -18 -18 -19 -20 -21 -20 -19
-8 -9 -10 -10 -8 -9 -9 -8 -9 -9 -9 -9 -8 -11 -12 -12 -13 -13 -16 -13 -13 -13 -13 -13 -13 -12 -12 -12 -12 -12 -13 -12 -13 -13 -13 -14 -14 -14 -14 -14 -14 -15 -17 -19 -20 -21 -21 -21 -22 -24 -26 -27 -26 -26
-10 -9 -10 -8 -8 -6 -5 -5 -6 -6 -8 -8 -9 -10 -12 -13 -14 -15 -12 -12 -13 -13 -13 -13 -13 -13 -13 -13 -13 -13 -13 -13 -13 -14 -14 -14 -16 -18 -20 -21 -21 -22 -23 -22 -20 -19 -20 -21 -22 -25 -26 -27 -28 -29
-9 -8 -7 -7 -7 -8 -8 -8 -9 -9 -10 -9 -9 -9 -12 -13 -16 -14 -13 -12 -13 -13 -13 -13 -13 -13 -14 -14 -14 -16 -17 -18 -19 -21 -20 -21 -22 -22 -22 -22 -23 -24 -24 -24 -25 -24 -22 -22 -23 -25 -26 -27 -28 -27
-10 -9 -8 -12 -8 -10 -12 -13 -12 -11 -12 -12 -12 -12 -13 -14 -15 -15 -16 -13 -12 -13 -14 -13 -14 -14 -14 -15 -15 -15 -15 -15 -17 -19 -19 -20 -21 -22 -23 -23 -23 -24 -25 -24 -26 -26 -27 -27 -26 -27 -27 -26 -26 -27
-9 -9 -10 -11 -10 -11 -12 -12 -13 -13 -14 -13 -13 -14 -15 -17 -17 -16 -14 -14 -13 -13 -14 -14 -15 -16 -17 -19 -20 -20 -20 -19 -18 -18 -19 -19 -19 -20 -21 -24 -24 -23 -24 -25 -26 -27 -28 -29 -29 -29 -29 -28 -28 -28
-12 -12 -11 -11 -10 -11 -13 -12 -12 -14 -15 -13 -15 -19 -19 -19 -19 -15 -13 -13 -13 -14 -14 -15 -16 -16 -17 -18 -25 -28 -27 -27 -26 -25 -26 -25 -25 -26 -26 -26 -24 -25 -27 -28 -28 -28 -29 -30 -30 -29 -28 -28 -27 -27
-12 -13 -14 -14 -14 -14 -18 -18 -19 -17 -15 -13 -16 -20 -20 -20 -16 -14 -13 -13 -13 -14 -14 -16 -18 -22 -23 -23 -24 -23 -23 -22 -21 -21 -21 -23 -26 -28 -28 -27 -27 -28 -30 -30 -31 -31 -31 -31 -30 -29 -28 -27 -27 -27
-14 -15 -16 -19 -16 -15 -16 -19 -16 -14 -14 -15 -21 -20 -15 -15 -15 -14 -13 -14 -14 -14 -15 -16 -17 -18 -21 -23 -25 -26 -23 -20 -20 -20 -19 -19 -20 -25 -27 -28 -27 -27 -27 -27 -28 -29 -28 -28 -27 -27 -25 -26 -26 -27
-14 -15 -15 -16 -19 -17 -16 -16 -15 -15 -15 -16 -16 -15 -15 -15 -14 -14 -15 -15 -15 -15 -15 -15 -19 -18 -17 -23 -25 -26 -27 -27 -26 -26 -26 -25 -26 -28 -28 -28 -28 -27 -27 -27 -27 -28 -28 -28 -28 -28 -27 -27 -27 -27
-15 -15 -15 -15 -16 -16 -16 -16 -16 -16 -16 -16 -16 -16 -16 -15 -16 -15 -15 -16 -16 -17 -17 -17 -17 -17 -17 -21 -24 -26 -25 -25 -27 -28 -29 -29 -29 -29 -29 -28 -28 -28 -28 -28 -27 -28 -28 -27 -27 -27 -26 -26 -26 -26
-15 -15 -16 -16 -15 -15 -13 -14 -15 -15 -16 -16 -16 -16 -16 -16 -16 -16 -15 -16 -16 -16 -16 -16 -16 -17 -18 -20 -27 -30 -28 -28 -28 -28 -29 -29 -28 -28 -28 -28 -27 -27 -28 -28 -28 -28 -27 -27 -27 -27 -27 -27 -26 -26
-15 -15 -14 -14 -14 -13 -13 -13 -14 -14 -14 -14 -14 -15 -15 -16 -16 -16 -16 -16 -16 -16 -16 -16 -16 -17 -19 -29 -30 -28 -28 -28 -29 -28 -28 -28 -27 -27 -27 -27 -27 -27 -27 -27 -27 -28 -28 -27 -27 -27 -27 -27 -28 -28

GFSWCAN_850_dewp_075.txt.gz
Dewpoint
-1 -1 -0 -0 -0 -1 -1 -1 0 -0 -0 -0 -1 -1 -1 -1 -1 -1 -1 -1 -0 -0 1 -1 -1 0 -0 -0 1 -0 1 1 2 2 2 1 1 0 -1 -0 3 3 3 4 4 4 4 -0 3 3 0 2 1 -2
-1 -0 -1 -1 -1 -1 -1 -1 -1 -0 -1 0 -1 -2 -1 -1 -1 -1 -1 -1 -0 -0 0 1 -0 -0 -2 -3 -1 -0 -1 -0 -0 0 0 -0 1 0 0 1 1 3 3 4 3 3 0 1 0 -2 -2 0 1 1
-0 -0 -1 -1 -2 -2 -1 -2 -1 -2 -1 -0 -1 -1 -1 -1 -1 -1 -1 -0 -1 -1 -0 0 1 1 1 0 -1 0 -1 -2 -2 -3 -0 -0 0 -1 2 1 1 0 -0 2 2 -1 -0 -2 -2 3 3 4 4 3
-0 -1 -1 -2 -3 -1 -1 -1 -1 -2 -1 -0 -1 -1 -1 -1 -1 -1 -1 -0 -0 -1 -0 -0 1 1 1 -0 -0 -1 -1 -1 -0 -2 0 1 1 -1 0 -1 -1 -2 -1 1 1 -1 1 -2 2 3 3 3 3 2
-3 -2 -2 -2 -2 -1 -1 -0 -1 -1 -2 0 -1 -1 -1 -1 -1 -1 -1 -1 -0 -2 -1 -2 -1 -2 -2 -0 0 0 -0 1 1 1 2 2 0 2 1 1 1 0 0 2 0 2 2 2 3 2 2 2 2 1
-0 -2 -0 -0 -0 -1 -0 -1 -1 -0 -2 0 -0 -1 -1 -1 -1 -1 -1 -1 -1 -1 -1 -0 -4 -3 -4 -0 -0 0 0 1 2 2 1 1 1 1 2 2 1 1 1 1 1 2 2 2 2 3 1 1 1 0
-1 -0 -1 -1 -1 -1 -1 -0 -2 -2 -1 -0 -0 -1 -1 -1 -1 -1 -2 -1 -2 -1 -3 -2 -0 -1 -2 -2 -1 1 1 1 1 2 2 1 1 2 1 2 0 -0 -1 -1 0 1 2 2 2 1 1 1 0 -1
-1 -1 -0 -0 -1 -0 -1 -1 -2 -2 -0 -0 -0 -1 -1 -1 -1 -0 -1 -2 -2 -2 -1 -1 -1 1 0 1 1 1 1 1 1 1 1 2 2 1 2 -2 -3 -3 -3 -2 -2 -2 -1 0 0 0 -0 1 -0 0
-0 -0 -0 -1 -0 -1 -1 -1 -2 -0 -0 -0 -1 -1 -1 -1 -1 -1 -0 -1 -1 -2 -1 -2 -1 1 1 1 1 -0 0 1 0 1 1 1 1 1 -3 -5 -5 -4 -4 -4 -3 -2 -1 -2 -2 -2 -2 -0 -2 -4
-2 -2 -1 -0 -1 -1 -0 0 -0 -0 0 0 -1 -0 -0 -0 -1 -1 -0 -0 -0 -1 -0 -1 -1 1 1 0 0 0 -1 1 2 1 -0 0 -3 -5 -6 -6 -6 -6 -6 -5 -5 -4 -4 -4 -5 -5 -5 -5 -5 -5
-1 -1 -0 -0 -1 -0 -1 -1 -1 -1 -0 -0 -0 -0 -1 -0 -0 -1 -1 -1 -1 -0 -1 -1 -1 0 -0 1 1 -1 1 -0 1 1 1 -2 -5 -7 -7 -7 -8 -8 -8 -7 -7 -6 -6 -6 -7 -7 -7 -8 -8 -8
-0 -0 0 0 -0 0 -1 -0 -1 -1 -1 -0 -1 -0 -0 -1 -2 -2 -1 -1 -1 -0 -2 0 -1 -1 -1 -0 0 -0 0 0 0 -3 -3 -5 -7 -7 -8 -8 -9 -9 -9 -9 -8 -8 -8 -8 -8 -8 -9 -10 -10 -10
-2 -0 0 -0 -1 -2 -1 -1 -1 -1 -2 -3 -6 -9 -8 -9 -8 -6 -3 -3 -2 -4 -4 -2 -1 -1 -1 -1 -0 -0 -1 -2 -6 -6 -7 -8 -8 -8 -8 -9 -9 -10 -10 -10 -10 -10 -10 -10 -10 -10 -11 -11 -11 -11
-2 -3 -0 -0 -1 -3 -6 -2 -2 -4 -8 -10 -10 -10 -11 -10 -8 -7 -7 -6 -5 -5 -5 -3 -1 -2 -3 -3 -3 -3 -5 -5 -6 -7 -8 -9 -9 -9 -9 -10 -10 -11 -11 -11 -11 -11 -12 -12 -11 -11 -11 -11 -11 -11
-3 -5 -4 -2 -5 -8 -9 -9 -7 -7 -11 -10 -11 -9 -9 -9 -9 -9 -9 -7 -7 -6 -4 -2 -4 -6 -5 -6 -6 -6 -7 -7 -8 -9 -10 -10 -10 -10 -10 -11 -11 -11 -11 -12 -12 -12 -12 -12 -12 -12 -12 -11 -11 -11
-3 -6 -6 -5 -5 -8 -8 -11 -11 -12 -11 -11 -11 -10 -11 -10 -10 -10 -10 -9 -7 -5 -4 -6 -5 -6 -6 -8 -9 -8 -9 -9 -10 -11 -10 -11 -11 -11 -11 -11 -11 -12 -12 -12 -12 -12 -12 -12 -12 -12 -12 -12 -12 -12
-4 -6 -7 -10 -9 -9 -10 -11 -12 -11 -11 -11 -10 -11 -11 -11 -11 -10 -10 -10 -7 -6 -6 -6 -7 -7 -7 -8 -10 -10 -10 -11 -11 -12 -12 -12 -12 -12 -11 -11 -12 -12 -12 -12 -12 -12 -12 -12 -12 -12 -12 -13 -12 -12
-4 -5 -7 -7 -8 -12 -12 -13 -13 -12 -10 -11 -11 -10 -11 -12 -11 -12 -12 -11 -9 -8 -8 -8 -9 -9 -9 -9 -10 -11 -12 -12 -13 -13 -13 -13 -12 -12 -12 -12 -12 -12 -12 -12 -12 -12 -12 -12 -12 -13 -13 -13 -13 -13
-3 -4 -6 -9 -10 -12 -12 -12 -13 -11 -10 -11 -11 -11 -12 -13 -13 -13 -14 -14 -13 -12 -12 -10 -11 -11 -11 -11 -12 -12 -12 -12 -13 -13 -13 -13 -12 -12 -12 -12 -12 -12 -12 -12 -12 -12 -12 -12 -13 -13 -13 -14 -15 -15
-3 -5 -8 -9 -11 -11 -9 -11 -12 -11 -11 -11 -12 -13 -13 -13 -14 -14 -14 -13 -14 -13 -14 -13 -13 -13 -13 -12 -12 -12 -12 -13 -13 -13 -14 -13 -13 -12 -12 -12 -12 -12 -12 -12 -13 -13 -13 -13 -14 -15 -16 -17 -17 -17
-5 -7 -9 -11 -8 -8 -9 -10 -11 -12 -11 -12 -12 -12 -15 -15 -14 -14 -13 -15 -14 -13 -14 -13 -13 -13 -12 -12 -12 -12 -12 -12 -12 -13 -14 -14 -13 -13 -13 -13 -13 -13 -13 -13 -14 -16 -19 -20 -20 -20 -20 -21 -20 -19
-8 -10 -11 -11 -10 -10 -10 -9 -10 -10 -10 -10 -8 -13 -13 -13 -13 -14 -15 -14 -13 -14 -13 -13 -13 -12 -12 -12 -12 -12 -12 -12 -13 -13 -13 -13 -14 -14 -14 -14 -14 -15 -18 -20 -21 -22 -23 -24 -25 -27 -27 -26 -24 -23
-9 -10 -9 -8 -7 -7 -5 -6 -6 -7 -8 -8 -10 -12 -12 -13 -14 -15 -13 -13 -13 -14 -13 -13 -13 -13 -13 -13 -13 -13 -13 -13 -13 -13 -14 -15 -17 -20 -21 -22 -22 -22 -22 -21 -20 -21 -23 -25 -26 -28 -29 -29 -29 -29
-9 -9 -8 -8 -8 -9 -7 -8 -9 -10 -10 -9 -9 -10 -12 -13 -15 -14 -13 -13 -13 -13 -13 -13 -13 -14 -14 -14 -14 -16 -16 -17 -19 -20 -20 -21 -22 -22 -22 -23 -23 -24 -24 -23 -22 -22 -23 -24 -25 -27 -27 -28 -28 -28
-11 -10 -9 -11 -9 -10 -12 -13 -12 -11 -11 -12 -11 -12 -14 -14 -15 -15 -14 -14 -13 -13 -14 -13 -14 -14 -14 -15 -15 -16 -16 -17 -18 -20 -20 -20 -21 -22 -22 -22 -23 -24 -25 -24 -24 -24 -24 -25 -25 -25 -26 -26 -27 -27
-10 -10 -11 -12 -12 -11 -12 -12 -14 -13 -14 -14 -14 -15 -16 -17 -17 -16 -14 -14 -13 -14 -14 -15 -16 -17 -18 -17 -18 -18 -18 -19 -18 -20 -20 -19 -20 -21 -23 -24 -24 -24 -25 -26 -26 -26 -27 -27 -27 -27 -27 -27 -27 -27
-12 -13 -12 -12 -11 -11 -14 -13 -12 -14 -15 -14 -16 -19 -19 -17 -18 -15 -14 -13 -13 -14 -14 -15 -16 -17 -17 -22 -27 -28 -27 -26 -26 -25 -26 -26 -26 -27 -27 -27 -27 -26 -28 -27 -28 -29 -29 -29 -29 -29 -28 -28 -27 -27
-13 -14 -15 -15 -15 -15 -18 -18 -18 -17 -14 -14 -17 -20 -19 -19 -15 -14 -13 -13 -13 -14 -15 -17 -21 -22 -23 -25 -26 -25 -25 -24 -23 -23 -23 -24 -26 -28 -28 -28 -28 -29 -31 -31 -31 -31 -31 -30 -30 -28 -26 -26 -26 -26
-15 -16 -17 -20 -17 -17 -17 -19 -16 -15 -15 -16 -20 -18 -16 -16 -15 -14 -13 -13 -13 -14 -15 -17 -18 -20 -23 -25 -28 -28 -26 -24 -23 -23 -23 -24 -24 -25 -28 -28 -28 -28 -29 -29 -29 -29 -28 -27 -27 -26 -26 -26 -26 -27
-15 -16 -17 -18 -20 -18 -17 -17 -16 -15 -16 -16 -16 -16 -16 -16 -15 -14 -14 -14 -14 -15 -15 -17 -19 -18 -23 -27 -28 -28 -27 -27 -27 -28 -28 -28 -28 -29 -28 -28 -28 -28 -28 -28 -27 -27 -28 -27 -27 -27 -27 -27 -27 -26
-15 -15 -16 -16 -17 -16 -16 -16 -16 -16 -16 -16 -16 -16 -16 -16 -16 -15 -16 -16 -16 -16 -17 -18 -17 -17 -21 -24 -27 -29 -27 -27 -28 -28 -29 -29 -29 -29 -28 -28 -28 -28 -27 -27 -27 -27 -27 -27 -27 -27 -27 -27 -26 -26
-15 -16 -17 -18 -16 -15 -15 -14 -16 -16 -16 -16 -16 -16 -16 -16 -16 -16 -16 -16 -16 -16 -16 -16 -17 -18 -21 -26 -30 -30 -29 -29 -29 -29 -28 -28 -28 -28 -28 -27 -27 -27 -27 -27 -27 -28 -28 -28 -27 -27 -27 -27 -27 -27
-15 -15 -15 -14 -15 -15 -14 -15 -15 -15 -15 -15 -15 -15 -16 -16 -16 -16 -16 -16 -16 -16 -16 -17 -17 -18 -24 -29 -29 -29 -28 -29 -29 -28 -28 -27 -27 -27 -27 -27 -27 -27 -27 -27 -27 -27 -28 -28 -27 -27 -27 -28 -28 -28

GFSWCAN_850_dewp_078.txt.gz
Dewpoint
-2 -2 -1 -1 -1 -1 -1 -1 -0 -1 -1 -0 -1 -0 -1 -1 -1 -2 -2 -3 -4 -1 -2 -2 -2 -2 -2 -1 -0 1 2 2 2 2 1 0 0 -2 -3 -2 1 1 2 4 2 3 4 -1 -1 0 -1 -2 -1 -0
-1 -0 -1 -1 -1 -1 -1 -2 -2 -2 -2 -1 -0 -0 -0 -1 -1 -1 -2 -2 -3 -1 -1 -0 -1 -1 -1 -0 -1 1 -1 0 -1 -0 -1 -1 -0 -0 -3 -1 -4 1 -1 0 -1 -1 -1 1 -1 1 3 3 3 3
-0 -1 -2 -2 -2 -2 -3 -3 -1 -1 -2 -1 -1 -0 -0 -1 -1 -1 -1 -2 -2 -1 -1 -0 0 -1 0 0 -0 1 0 -0 -0 -2 -1 -1 -0 -3 1 -1 -3 -2 -2 1 1 -3 -4 -2 0 2 3 2 3 2
-1 -1 -1 -1 -1 -0 -2 -2 -1 -1 -1 -2 -1 -0 -1 -1 -1 -1 -1 -1 -1 -1 0 -0 -1 -0 1 1 1 -0 0 0 0 0 -1 -0 -1 -3 -2 -4 -2 -4 -3 -3 -3 -4 -2 -3 1 2 2 2 2 1
-0 -0 -0 -1 -1 -1 -1 -1 -1 -0 -1 -2 -1 -0 -1 -1 -1 -1 -1 -0 -2 -1 0 -1 0 1 -1 1 1 1 1 2 2 2 3 1 -1 0 -0 0 -2 -5 -3 -1 -2 1 1 0 1 2 2 2 1 1
-1 -1 -0 -1 -1 -1 -1 -1 -1 -1 -1 -1 -1 -1 -1 -1 -1 -1 -1 -0 -1 -1 -0 0 -0 0 -0 1 1 1 1 1 1 2 3 1 1 1 1 -1 -1 1 1 0 0 1 1 1 2 2 1 0 -0 -1
-1 -1 -1 -0 -1 -1 -0 -1 -1 -0 -0 -1 -0 -1 -1 -1 -1 -1 -1 -1 -1 -1 -0 0 -0 -0 -1 0 1 2 1 1 1 1 2 1 1 -0 2 1 -0 -2 -2 -2 -2 -1 1 1 0 0 0 -1 -2 -2
-1 -1 -1 -0 -1 -1 -1 -1 -1 -1 -0 -1 -1 -1 -2 -1 -1 -0 -1 -1 -0 -1 -0 0 0 0 -0 0 1 1 2 2 2 1 2 1 0 0 2 -2 -4 -4 -4 -2 -3 -3 -2 -1 -1 -1 -1 -1 -2 -3
-1 -0 -1 -0 -1 -1 -1 -1 -1 -0 -0 -1 -1 -2 -1 -1 -1 -0 -1 -1 -2 -1 -1 -1 1 1 0 0 1 1 1 2 1 2 2 3 3 2 -4 -5 -6 -6 -5 -5 -5 -4 -2 -3 -3 -4 -4 -3 -4 -5
-1 -1 -1 -1 -0 -1 -0 -0 -0 -1 -1 -1 -1 -1 -1 -0 -1 -1 -1 -1 -1 0 -0 -0 0 1 1 0 1 1 -0 3 3 2 1 3 -3 -6 -6 -6 -7 -7 -7 -6 -6 -5 -5 -4 -4 -5 -6 -6 -7 -8
-0 -0 -0 -0 -1 -0 -1 -1 -1 -1 -1 -1 -0 -0 -1 -1 -0 -1 -1 -0 -0 -0 -1 -0 -0 1 -0 2 2 0 2 2 3 2 3 -0 -3 -7 -8 -8 -8 -8 -7 -7 -7 -6 -7 -7 -6 -7 -8 -9 -9 -9
-0 -0 -0 -0 -0 -0 -1 -1 -1 -1 -2 -1 -1 -1 -1 -1 -1 -1 0 0 0 -0 -1 1 -1 -1 -1 0 1 1 2 1 1 -2 -0 -2 -6 -9 -9 -9 -9 -8 -8 -8 -8 -8 -9 -9 -9 -9 -10 -11 -10 -10
-0 -0 -3 -3 -0 -1 -1 -0 -0 -1 -2 -2 -7 -8 -7 -7 -4 -2 -1 -1 -1 -3 -2 -1 0 -1 -0 0 1 1 1 -0 -4 -2 -4 -6 -9 -9 -9 -9 -9 -9 -9 -9 -10 -10 -10 -11 -11 -11 -12 -12 -12 -12
-1 -0 -2 -3 -0 -1 -2 -3 -3 -4 -8 -9 -7 -7 -6 -6 -6 -6 -5 -4 -4 -4 -3 -2 -1 -1 -2 -2 -2 -1 -3 -3 -2 -3 -5 -8 -9 -9 -9 -9 -9 -10 -11 -11 -11 -12 -12 -12 -12 -12 -12 -12 -12 -11
-5 -1 -0 -7 -6 -2 -3 -3 -4 -7 -11 -8 -8 -6 -7 -8 -8 -7 -7 -6 -6 -6 -4 -2 -3 -4 -4 -4 -5 -4 -4 -4 -6 -6 -8 -10 -9 -9 -9 -10 -10 -11 -11 -12 -12 -12 -13 -13 -12 -13 -12 -12 -12 -12
-4 -6 -3 -3 -5 -7 -10 -10 -10 -11 -10 -9 -9 -7 -8 -7 -7 -8 -7 -6 -7 -5 -3 -4 -4 -5 -5 -7 -7 -6 -6 -6 -8 -9 -10 -10 -10 -11 -11 -11 -11 -12 -12 -12 -13 -13 -13 -13 -13 -13 -13 -12 -13 -13
-5 -6 -9 -9 -8 -9 -10 -11 -12 -10 -10 -10 -9 -9 -9 -9 -9 -9 -9 -8 -7 -4 -3 -5 -5 -5 -8 -7 -8 -9 -8 -9 -10 -11 -11 -11 -11 -12 -12 -12 -12 -12 -12 -12 -12 -12 -13 -13 -13 -12 -13 -13 -13 -13
-5 -7 -8 -8 -12 -12 -12 -13 -11 -11 -10 -10 -10 -10 -10 -10 -9 -9 -9 -8 -6 -7 -7 -7 -9 -8 -7 -7 -8 -10 -11 -11 -12 -12 -12 -12 -12 -12 -12 -12 -12 -12 -12 -12 -12 -13 -13 -13 -13 -14 -14 -14 -14 -14
-4 -5 -8 -9 -10 -12 -11 -11 -11 -10 -10 -10 -10 -10 -10 -10 -10 -10 -9 -10 -10 -9 -9 -10 -10 -10 -10 -11 -11 -11 -11 -11 -11 -12 -13 -13 -12 -12 -12 -12 -12 -12 -12 -12 -12 -12 -13 -13 -14 -14 -15 -15 -16 -17
-5 -7 -8 -11 -12 -12 -9 -9 -10 -11 -10 -10 -11 -11 -12 -12 -11 -10 -11 -12 -12 -13 -12 -12 -11 -12 -11 -10 -10 -11 -11 -11 -11 -11 -12 -13 -13 -13 -13 -13 -13 -13 -13 -13 -13 -13 -14 -14 -15 -16 -16 -16 -17 -17
-7 -9 -11 -11 -11 -10 -8 -9 -9 -10 -10 -12 -11 -12 -13 -12 -11 -11 -12 -13 -13 -13 -13 -12 -12 -12 -13 -12 -12 -11 -12 -11 -11 -11 -12 -13 -14 -14 -14 -13 -13 -13 -14 -14 -14 -16 -18 -18 -19 -19 -19 -20 -20 -20
-8 -11 -11 -12 -11 -10 -8 -8 -9 -9 -10 -10 -10 -12 -11 -11 -11 -12 -13 -13 -13 -13 -12 -12 -12 -12 -13 -13 -13 -13 -13 -13 -13 -13 -13 -14 -14 -14 -15 -15 -15 -15 -16 -18 -19 -21 -24 -26 -26 -26 -25 -24 -22 -22
-9 -10 -9 -9 -8 -6 -6 -6 -7 -8 -8 -9 -11 -12 -12 -12 -12 -13 -12 -13 -13 -13 -13 -13 -14 -14 -14 -14 -13 -13 -13 -14 -14 -14 -14 -15 -17 -19 -20 -21 -19 -17 -17 -19 -20 -23 -26 -28 -28 -28 -28 -25 -25 -27
-11 -11 -9 -8 -6 -6 -6 -7 -9 -9 -9 -9 -10 -11 -12 -13 -13 -13 -12 -13 -13 -13 -13 -13 -13 -13 -14 -14 -14 -15 -16 -18 -20 -21 -21 -18 -18 -21 -22 -23 -24 -24 -22 -22 -22 -24 -26 -27 -28 -28 -29 -28 -28 -27
-11 -10 -9 -8 -8 -8 -8 -8 -9 -9 -8 -9 -10 -10 -11 -13 -12 -12 -12 -13 -13 -12 -13 -13 -13 -13 -14 -14 -16 -17 -18 -19 -18 -21 -22 -22 -23 -23 -23 -24 -25 -26 -27 -24 -25 -25 -27 -28 -28 -28 -28 -27 -27 -27
-9 -10 -9 -9 -8 -9 -9 -9 -9 -9 -9 -10 -11 -13 -13 -12 -12 -11 -13 -12 -12 -13 -14 -13 -13 -14 -14 -15 -15 -16 -19 -21 -21 -20 -21 -21 -22 -19 -18 -19 -18 -23 -26 -27 -27 -27 -28 -28 -28 -28 -28 -27 -28 -27
-9 -10 -11 -12 -11 -11 -10 -11 -11 -10 -9 -10 -12 -13 -13 -12 -12 -14 -13 -13 -13 -14 -15 -15 -15 -15 -18 -23 -25 -26 -26 -26 -25 -24 -25 -26 -27 -27 -26 -21 -21 -25 -27 -27 -27 -27 -27 -28 -28 -28 -28 -27 -27 -27
-12 -13 -12 -14 -14 -14 -13 -12 -12 -11 -11 -14 -14 -14 -14 -14 -13 -13 -14 -13 -14 -15 -16 -17 -17 -19 -24 -26 -27 -27 -25 -24 -24 -24 -24 -25 -27 -28 -28 -28 -28 -29 -30 -29 -28 -28 -28 -28 -29 -28 -27 -26 -26 -27
-14 -14 -16 -17 -16 -16 -15 -14 -14 -14 -14 -15 -15 -15 -15 -16 -17 -15 -14 -13 -14 -16 -18 -20 -21 -22 -25 -27 -28 -27 -25 -24 -22 -23 -24 -21 -23 -25 -28 -28 -27 -27 -28 -27 -28 -28 -28 -27 -27 -27 -27 -27 -27 -26
-14 -15 -16 -17 -17 -15 -16 -16 -16 -16 -16 -15 -15 -16 -16 -17 -15 -14 -14 -14 -15 -16 -17 -19 -20 -21 -26 -28 -29 -28 -27 -27 -27 -28 -27 -26 -28 -28 -28 -28 -28 -28 -27 -27 -27 -27 -27 -27 -27 -27 -27 -27 -26 -26
-14 -14 -16 -16 -16 -16 -16 -16 -16 -16 -16 -16 -15 -15 -16 -16 -16 -15 -15 -15 -15 -15 -17 -19 -18 -20 -25 -27 -28 -29 -27 -27 -28 -29 -29 -29 -29 -29 -28 -28 -28 -28 -27 -27 -27 -27 -27 -27 -27 -27 -27 -26 -26 -27
-15 -15 -16 -15 -15 -15 -15 -15 -15 -15 -14 -15 -15 -16 -16 -15 -15 -16 -16 -16 -16 -17 -18 -17 -17 -19 -23 -28 -30 -29 -29 -29 -29 -29 -28 -28 -28 -27 -27 -27 -27 -27 -27 -27 -27 -27 -27 -27 -27 -27 -27 -27 -27 -27
-15 -14 -14 -14 -14 -14 -15 -14 -14 -14 -14 -14 -15 -16 -16 -15 -15 -16 -16 -16 -16 -16 -16 -17 -17 -19 -25 -28 -28 -28 -29 -29 -28 -28 -28 -27 -27 -27 -26 -26 -26 -27 -27 -27 -27 -27 -27 -27 -27 -27 -27 -27 -28 -29

GFSWCAN_850_dewp_081.txt.gz
Dewpoint
-3 -2 -1 -1 -1 -0 -1 -1 -1 -1 -1 -0 -0 -0 -0 -1 -1 -1 -3 -3 -3 -2 -4 -6 -5 -3 -8 -1 3 1 2 2 2 4 1 0 0 -2 -4 -3 1 2 4 4 2 4 3 -6 -5 -0 2 -0 -0 -0
-2 -1 -0 -1 -1 -2 -2 -1 -1 -1 -1 -0 -1 -0 0 -0 -1 -1 -2 -3 -3 -2 -3 -4 -4 -3 -3 -1 0 1 -3 1 -1 -0 -1 -2 1 -1 -2 -1 -2 4 -2 0 -2 -1 -2 1 1 2 1 1 1 1
-1 -0 -0 -0 0 -0 -1 -2 -2 -2 -3 -3 -2 -1 -0 0 -0 -1 -2 -2 -2 -2 -2 -3 -2 -1 -2 -0 0 2 1 -1 2 -2 2 2 2 -3 0 -2 -1 -3 -2 1 4 -0 -0 2 2 2 1 1 1 1
-1 -0 -1 -1 -1 -1 -1 -1 -0 -1 -2 -2 -1 -2 -0 -0 -0 -1 -1 -2 -1 -2 -2 -4 -4 -3 0 0 1 1 0 1 1 2 1 1 1 -4 -2 -3 0 -4 -1 -4 -3 -2 -4 -2 1 2 1 1 1 1
-0 -1 -0 -1 -2 -1 -1 -1 -1 -1 -1 -1 -1 -2 -1 -0 -0 -1 -1 -2 -1 -4 -2 -5 -1 -2 -2 1 0 1 1 1 2 2 3 1 -2 -1 -3 -1 -1 -5 -1 -1 1 1 1 -0 0 2 0 1 0 1
-1 -0 -1 -1 -0 -1 -1 -0 -1 -1 -1 -1 -1 -2 -0 -0 -1 -1 -1 -1 -2 -3 0 1 -3 -0 0 1 0 1 1 2 2 1 2 -0 -1 0 2 1 1 -0 -1 -0 0 -1 -0 1 1 1 0 0 -0 -1
-1 -1 -0 -1 -1 -1 -1 -1 -1 -1 -0 -1 -1 -0 -0 -1 -1 -1 -1 -1 -2 -2 0 -0 -0 -1 0 1 1 2 2 1 1 2 2 -0 1 -0 2 2 -1 -2 -2 -1 -2 -2 -1 -1 0 -1 -1 -1 -1 -2
-1 -0 -1 -1 -1 -1 -1 -1 -1 -0 -1 -1 -1 -1 -1 -1 -1 -1 -3 -2 -2 -0 -0 1 1 1 1 2 1 1 1 1 1 1 2 1 -1 2 2 -3 -4 -4 -4 -3 -4 -4 -3 -2 -1 -2 -3 -3 -3 -4
-1 -1 -0 -0 -0 -1 -1 -0 -0 -0 -0 -1 -1 -1 -1 -1 -1 -1 -0 -1 -0 -1 0 1 1 3 -0 1 1 1 0 2 1 2 2 1 1 2 -3 -5 -5 -6 -5 -5 -5 -5 -4 -4 -3 -3 -4 -4 -4 -4
-1 -0 -1 -1 -0 -0 -0 -0 -1 -1 -1 -1 -1 -1 -1 -0 -1 -1 -1 -1 -0 0 -0 -1 0 2 -0 1 1 1 1 3 3 2 2 3 -2 -5 -6 -7 -7 -7 -7 -7 -6 -6 -6 -5 -5 -5 -5 -6 -6 -7
-0 -0 -1 -1 0 -0 -1 -1 -1 -2 -1 -1 -0 -1 -1 -1 -0 0 -0 -1 -0 -1 -2 -0 -0 1 1 1 1 -0 2 2 2 2 3 2 -2 -7 -7 -8 -8 -8 -8 -7 -7 -7 -7 -6 -6 -6 -6 -7 -8 -9
-2 -2 -1 -1 -1 -1 -1 -1 -1 -0 -1 -1 -1 -1 -1 -1 0 0 0 -0 -0 1 -1 -1 0 0 -0 0 1 1 3 2 3 1 3 0 -5 -8 -9 -9 -9 -9 -8 -8 -8 -8 -8 -8 -8 -8 -9 -10 -11 -11
-1 -3 -0 -1 -1 -1 -1 -0 -1 -1 -2 -3 -4 -3 -4 -4 -1 1 0 -0 -0 -2 -1 -1 1 -0 -0 0 2 3 3 2 -2 1 -2 -5 -8 -8 -8 -9 -9 -9 -9 -9 -9 -9 -10 -10 -10 -10 -11 -12 -12 -12
-2 -4 -0 -1 -0 -0 -1 -0 -3 -7 -9 -6 -5 -5 -3 -3 -4 -3 -2 -2 -3 -3 -2 -1 0 1 -0 -0 1 -0 -2 -2 -0 -0 -3 -6 -9 -9 -9 -9 -9 -10 -10 -10 -11 -11 -12 -12 -12 -12 -13 -13 -13 -13
-1 -2 -1 -1 -1 -1 -1 -3 -4 -6 -7 -6 -6 -4 -5 -6 -6 -5 -5 -4 -4 -4 -3 -0 -1 -1 -2 -2 -3 -3 -2 -2 -3 -3 -6 -9 -9 -9 -9 -9 -10 -10 -11 -11 -12 -12 -13 -13 -13 -14 -14 -13 -13 -14
-2 -2 -5 -2 -2 -3 -3 -3 -9 -10 -7 -7 -7 -5 -6 -4 -5 -5 -5 -4 -5 -4 -2 -2 -1 -2 -3 -4 -4 -4 -3 -3 -5 -7 -8 -9 -10 -10 -10 -11 -11 -11 -11 -12 -12 -13 -13 -13 -13 -14 -13 -13 -13 -13
-4 -2 -4 -3 -6 -8 -10 -11 -10 -9 -8 -8 -7 -7 -7 -7 -7 -7 -6 -6 -6 -3 -2 -3 -2 -3 -6 -5 -6 -7 -6 -7 -9 -10 -10 -10 -10 -11 -11 -11 -11 -12 -12 -12 -12 -13 -13 -13 -13 -13 -14 -14 -14 -14
-1 -8 -10 -9 -9 -11 -11 -9 -9 -9 -8 -7 -8 -8 -8 -7 -7 -7 -7 -6 -4 -5 -6 -6 -8 -6 -5 -5 -7 -9 -10 -10 -10 -10 -10 -10 -11 -11 -11 -11 -12 -12 -12 -12 -12 -13 -13 -13 -13 -14 -14 -14 -15 -15
-2 -3 -8 -10 -10 -10 -8 -9 -9 -8 -8 -8 -8 -8 -8 -8 -8 -8 -8 -8 -9 -8 -8 -9 -8 -8 -8 -9 -9 -10 -9 -10 -10 -11 -11 -12 -12 -12 -12 -12 -12 -12 -13 -13 -13 -13 -13 -14 -14 -14 -14 -14 -15 -15
-5 -8 -10 -11 -11 -8 -9 -8 -9 -8 -8 -9 -9 -9 -9 -9 -8 -8 -10 -11 -11 -11 -11 -10 -10 -9 -10 -9 -9 -10 -10 -10 -10 -11 -11 -11 -12 -12 -12 -11 -12 -13 -13 -13 -14 -14 -14 -14 -15 -15 -15 -15 -15 -16
-6 -10 -10 -6 -7 -7 -8 -8 -8 -9 -9 -9 -10 -10 -9 -9 -9 -10 -11 -11 -11 -11 -11 -11 -11 -11 -11 -11 -10 -10 -10 -10 -10 -10 -11 -11 -12 -12 -12 -13 -13 -13 -13 -13 -13 -14 -14 -15 -15 -16 -16 -17 -18 -18
-7 -9 -6 -8 -7 -7 -8 -8 -8 -9 -9 -9 -10 -10 -9 -8 -9 -11 -11 -12 -12 -11 -11 -11 -11 -11 -11 -12 -12 -12 -12 -12 -12 -12 -12 -12 -12 -12 -13 -13 -13 -14 -14 -14 -15 -15 -16 -16 -17 -17 -18 -18 -18 -18
-9 -9 -8 -7 -6 -6 -6 -5 -7 -8 -7 -10 -11 -10 -9 -9 -12 -12 -11 -13 -12 -11 -12 -12 -12 -12 -12 -13 -13 -13 -12 -12 -12 -12 -13 -13 -14 -14 -15 -15 -14 -14 -15 -16 -16 -17 -19 -23 -22 -18 -18 -18 -19 -20
-11 -11 -7 -4 -6 -6 -6 -7 -9 -9 -9 -9 -10 -9 -10 -10 -11 -11 -10 -12 -12 -12 -12 -12 -12 -12 -12 -13 -13 -14 -15 -15 -15 -15 -15 -16 -16 -16 -16 -16 -16 -16 -16 -16 -17 -17 -18 -19 -20 -19 -19 -19 -19 -19
-8 -9 -6 -6 -7 -7 -7 -7 -8 -8 -7 -9 -9 -9 -10 -11 -9 -10 -10 -12 -12 -12 -12 -12 -12 -12 -12 -13 -14 -15 -16 -16 -16 -16 -16 -16 -16 -17 -17 -17 -17 -18 -17 -17 -17 -18 -19 -19 -19 -19 -19 -19 -19 -20
-7 -9 -7 -7 -7 -7 -8 -7 -7 -8 -8 -9 -9 -11 -10 -9 -9 -9 -11 -11 -11 -11 -11 -11 -11 -13 -14 -14 -14 -15 -15 -18 -16 -16 -16 -16 -16 -15 -16 -16 -16 -17 -20 -18 -18 -18 -19 -19 -19 -20 -20 -23 -26 -22
-8 -8 -10 -11 -10 -9 -8 -9 -9 -8 -8 -9 -9 -10 -10 -10 -10 -12 -11 -11 -11 -11 -11 -12 -13 -14 -14 -15 -18 -24 -27 -27 -20 -19 -25 -26 -27 -26 -18 -17 -17 -18 -22 -23 -19 -19 -19 -20 -20 -20 -20 -20 -20 -23
-11 -11 -10 -11 -11 -11 -10 -10 -10 -9 -10 -12 -12 -11 -11 -11 -11 -11 -12 -12 -13 -13 -13 -14 -14 -15 -16 -20 -26 -28 -28 -27 -26 -26 -25 -25 -27 -28 -29 -29 -29 -29 -28 -29 -23 -27 -20 -20 -20 -20 -20 -20 -21 -21
-12 -13 -15 -15 -14 -14 -13 -12 -12 -13 -13 -13 -12 -13 -14 -14 -13 -13 -14 -14 -14 -14 -16 -18 -20 -22 -25 -27 -28 -22 -18 -17 -16 -20 -17 -17 -17 -18 -26 -23 -23 -23 -21 -21 -28 -29 -29 -28 -25 -22 -21 -21 -21 -22
-12 -13 -14 -15 -14 -13 -14 -14 -14 -14 -14 -14 -15 -15 -15 -15 -15 -15 -14 -14 -14 -14 -15 -17 -20 -17 -20 -20 -27 -27 -27 -27 -27 -21 -16 -17 -18 -21 -25 -23 -22 -25 -25 -21 -21 -21 -24 -24 -23 -24 -23 -22 -22 -21
-13 -13 -14 -15 -14 -14 -14 -15 -14 -13 -13 -13 -13 -14 -14 -15 -16 -15 -15 -15 -14 -16 -17 -18 -18 -22 -26 -24 -16 -19 -17 -27 -28 -29 -29 -29 -28 -27 -27 -28 -28 -27 -26 -26 -25 -23 -23 -23 -21 -21 -22 -22 -22 -24
-13 -13 -14 -14 -14 -14 -14 -12 -13 -13 -13 -13 -13 -13 -13 -13 -13 -15 -15 -15 -15 -15 -15 -15 -16 -18 -24 -28 -30 -30 -29 -29 -29 -29 -28 -28 -27 -27 -27 -28 -27 -27 -27 -27 -27 -27 -27 -27 -26 -23 -23 -23 -24 -27
-13 -13 -14 -13 -13 -13 -13 -12 -13 -13 -13 -13 -13 -13 -13 -13 -14 -16 -15 -15 -15 -15 -16 -16 -17 -19 -24 -27 -27 -28 -29 -29 -29 -28 -28 -27 -27 -27 -27 -27 -27 -27 -27 -27 -27 -27 -27 -27 -27 -27 -27 -28 -28 -29

GFSWCAN_850_dewp_084.txt.gz
Dewpoint
-4 -3 -3 -2 -1 -1 -1 -1 -1 -0 -0 -1 -1 -1 -0 -0 -1 -1 -3 -3 -3 -2 -3 -4 -5 -5 -5 -6 -0 0 2 2 2 3 4 -0 2 0 -0 -2 0 1 4 4 3 3 4 -4 -4 0 3 1 1 1
-3 -2 -1 -1 -1 -0 -0 -0 -1 -2 -1 -1 -0 -1 -0 -0 -0 -1 -1 -3 -2 -2 -4 -4 -4 -4 -3 -2 1 1 1 1 -2 0 -1 -0 4 2 -0 -0 -2 2 -1 1 -1 -0 -3 1 2 2 1 1 1 1
-2 -1 -1 -1 -0 -1 -2 -1 -2 -1 -2 -2 -1 -0 -0 -0 -0 -1 -1 -1 -2 -1 -3 -3 -4 -3 -3 -2 -0 1 1 2 2 2 3 3 3 -1 2 -1 1 2 -2 4 2 3 4 5 2 1 1 1 1 1
-1 -1 -1 -1 -1 -1 -1 -1 -1 -1 -1 -1 -2 -2 -1 -0 -0 -0 -2 -1 -2 -2 -2 -4 -4 -5 -4 -1 -2 -0 -0 0 1 1 2 3 4 -3 1 -1 -1 1 2 1 2 2 4 4 3 2 0 -0 -0 0
-1 -1 -1 -2 -1 -1 -1 -1 -1 -1 -1 -1 -1 -2 -2 -2 -0 -0 -1 -1 -2 -4 -2 -4 -5 -5 -4 -4 -0 0 1 1 1 1 2 4 -1 -0 -0 -0 3 2 3 4 6 1 3 2 1 1 1 0 -0 -1
-1 -1 -1 -1 -1 -1 -1 -1 -1 -1 -0 -1 -1 -2 -1 -2 -0 -1 -2 -1 -2 -3 -0 2 -1 -5 -2 -2 -1 0 1 1 1 1 2 1 -1 1 5 2 1 -1 -1 -1 -1 -2 0 -0 -0 -1 -1 -1 -1 -2
-1 -1 -1 -1 -1 -0 -1 -0 -1 -0 -1 -1 -1 -1 -1 -0 -0 -1 -1 -2 -3 -1 -0 1 2 -2 -2 -1 0 1 1 1 1 1 2 1 1 2 3 4 0 -3 -2 -3 -3 -3 -2 -1 -1 -2 -2 -3 -2 -3
-1 -1 -1 -1 -1 -0 -1 -1 -0 -0 -0 -0 -1 -1 -1 -0 -1 -1 -3 -3 -3 -0 -1 0 1 1 0 1 1 1 2 1 1 1 1 0 0 3 3 -3 -4 -5 -3 -4 -5 -4 -2 -3 -3 -3 -3 -3 -3 -4
-1 -1 -1 -1 -0 -0 -0 -0 -0 -0 -0 -1 -1 -0 -1 -1 -1 -1 -2 -1 -0 -1 -0 1 1 3 1 2 1 1 1 1 1 1 2 1 2 -1 -2 -4 -6 -6 -6 -6 -5 -4 -5 -5 -5 -5 -5 -5 -5 -5
-1 -1 -1 -1 -1 -1 -0 -0 -0 -1 -1 -1 -1 -1 -0 -1 -1 -1 -0 -0 -0 -0 1 1 -0 2 0 1 1 1 1 2 3 2 1 3 -3 -5 -6 -6 -7 -7 -7 -7 -7 -6 -6 -6 -6 -5 -6 -6 -7 -8
-1 -1 -0 -0 -1 -1 -0 -0 -1 -1 -1 -1 -0 -0 -0 -0 -1 -0 -1 1 0 2 -1 -1 0 1 1 2 2 0 2 2 2 2 2 2 -3 -5 -7 -7 -8 -8 -8 -8 -8 -7 -7 -7 -6 -6 -7 -8 -9 -10
-1 -1 -1 -1 -1 -1 -2 -0 -0 -0 -0 -1 -1 -1 -1 -0 0 0 1 -0 -2 -1 -1 0 1 1 0 0 1 0 1 1 2 1 2 -1 -5 -8 -8 -7 -9 -9 -8 -8 -8 -8 -8 -8 -8 -9 -10 -11 -11 -11
-1 -1 -1 -1 -1 -1 -1 -1 -1 -1 -1 -2 -2 -2 -2 -2 1 -0 -0 0 0 -0 -0 -0 0 -0 0 0 0 1 3 2 -0 2 -2 -4 -7 -8 -8 -8 -9 -9 -9 -10 -10 -10 -11 -11 -11 -11 -11 -12 -12 -12
-1 -1 -1 -1 -1 -1 -1 -3 -7 -8 -5 -4 -4 -4 -2 -3 -3 -3 -2 -2 -3 -2 -1 0 0 1 0 -0 1 -0 -1 -0 1 0 -4 -7 -8 -8 -8 -9 -10 -10 -11 -11 -11 -12 -12 -13 -13 -13 -13 -13 -13 -13
-1 -1 -1 -1 -0 -1 -3 -5 -3 -4 -7 -5 -5 -3 -5 -5 -4 -4 -3 -3 -3 -2 -1 1 0 -0 -1 -1 -2 -1 -1 -1 -3 -4 -6 -8 -8 -9 -9 -10 -10 -11 -12 -12 -12 -12 -13 -13 -13 -13 -13 -13 -13 -13
-2 -1 -1 -1 -1 -1 -1 -4 -9 -8 -6 -7 -6 -4 -3 -4 -4 -4 -3 -3 -4 -2 -1 -0 -0 -1 -2 -3 -3 -3 -1 -3 -5 -7 -8 -9 -9 -10 -10 -10 -11 -11 -12 -12 -12 -13 -13 -13 -13 -14 -13 -13 -13 -13
-1 -2 -2 -2 -4 -5 -10 -10 -8 -7 -7 -7 -7 -6 -4 -5 -5 -5 -5 -4 -3 -2 -2 -1 -3 -4 -5 -4 -6 -7 -6 -7 -9 -9 -9 -9 -10 -11 -11 -11 -11 -11 -12 -12 -12 -13 -13 -13 -13 -13 -14 -14 -14 -14
-2 -4 -3 -6 -9 -10 -10 -7 -7 -8 -7 -6 -7 -6 -6 -5 -5 -6 -6 -5 -4 -5 -5 -5 -7 -6 -5 -4 -6 -8 -8 -9 -9 -9 -10 -10 -11 -11 -11 -12 -12 -12 -12 -12 -12 -12 -13 -13 -13 -14 -14 -14 -15 -15
-2 -8 -10 -10 -9 -9 -7 -7 -7 -8 -7 -7 -6 -6 -7 -7 -7 -7 -7 -7 -8 -7 -7 -8 -7 -7 -7 -8 -9 -9 -9 -9 -10 -10 -11 -12 -12 -12 -12 -12 -12 -12 -12 -12 -12 -13 -13 -13 -13 -14 -14 -14 -14 -15
-6 -8 -10 -11 -8 -7 -7 -7 -7 -7 -6 -7 -7 -8 -8 -7 -7 -7 -9 -9 -10 -10 -10 -9 -8 -8 -8 -8 -8 -9 -9 -10 -10 -10 -10 -11 -11 -12 -11 -11 -12 -12 -12 -13 -13 -13 -13 -14 -14 -14 -14 -14 -15 -16
-8 -9 -8 -5 -6 -6 -7 -7 -8 -8 -7 -8 -8 -8 -7 -8 -8 -8 -9 -10 -10 -10 -10 -10 -10 -10 -9 -9 -9 -9 -9 -8 -9 -8 -10 -11 -11 -11 -11 -12 -12 -12 -12 -13 -13 -14 -14 -14 -15 -15 -16 -16 -17 -18
-6 -6 -5 -7 -6 -6 -7 -7 -8 -8 -7 -8 -9 -7 -6 -7 -9 -10 -11 -11 -11 -9 -9 -10 -11 -10 -11 -11 -11 -11 -11 -11 -11 -11 -12 -11 -11 -11 -12 -12 -12 -13 -13 -14 -14 -14 -15 -15 -16 -16 -17 -17 -17 -17
-5 -4 -4 -6 -6 -6 -6 -5 -6 -7 -6 -9 -9 -8 -8 -9 -10 -10 -11 -12 -11 -10 -10 -10 -11 -11 -12 -12 -12 -11 -11 -11 -11 -12 -12 -12 -13 -13 -14 -14 -13 -13 -14 -15 -15 -16 -18 -19 -18 -17 -18 -17 -18 -19
-9 -10 -4 -4 -6 -6 -5 -7 -8 -9 -9 -8 -9 -8 -8 -9 -10 -10 -10 -11 -11 -11 -11 -11 -11 -11 -12 -12 -13 -14 -14 -14 -14 -14 -15 -15 -15 -15 -16 -15 -15 -15 -15 -15 -16 -16 -17 -19 -18 -18 -18 -18 -18 -18
-7 -8 -5 -5 -6 -6 -6 -7 -8 -8 -7 -8 -8 -8 -9 -9 -8 -9 -9 -11 -11 -11 -11 -11 -11 -10 -11 -12 -13 -15 -15 -15 -15 -15 -15 -15 -15 -15 -16 -17 -16 -17 -16 -16 -16 -17 -17 -18 -18 -18 -18 -18 -18 -19
-7 -8 -6 -6 -6 -6 -7 -6 -6 -7 -8 -8 -9 -10 -9 -8 -8 -9 -10 -10 -9 -10 -11 -10 -11 -12 -13 -13 -14 -14 -14 -15 -15 -15 -15 -15 -15 -14 -14 -15 -15 -16 -17 -17 -17 -17 -18 -18 -18 -19 -19 -20 -22 -22
-7 -7 -10 -10 -9 -8 -7 -8 -8 -8 -8 -8 -8 -8 -8 -8 -9 -10 -9 -10 -10 -11 -10 -10 -12 -12 -13 -13 -15 -18 -23 -28 -20 -18 -23 -25 -26 -25 -19 -16 -16 -17 -19 -20 -18 -18 -18 -18 -19 -19 -19 -19 -19 -20
-10 -10 -9 -9 -9 -9 -8 -8 -8 -8 -9 -10 -11 -10 -9 -10 -10 -10 -10 -10 -11 -11 -12 -12 -13 -14 -14 -15 -21 -27 -29 -29 -27 -25 -20 -18 -18 -24 -27 -28 -29 -27 -27 -27 -22 -22 -19 -19 -19 -19 -19 -19 -20 -20
-10 -12 -13 -13 -12 -12 -12 -10 -11 -12 -12 -11 -10 -11 -13 -12 -11 -11 -12 -12 -13 -13 -13 -14 -16 -19 -22 -23 -21 -16 -15 -16 -15 -19 -17 -16 -15 -17 -19 -22 -20 -21 -19 -19 -21 -25 -27 -26 -24 -24 -21 -21 -20 -20
-11 -12 -13 -14 -13 -13 -13 -12 -12 -12 -12 -13 -14 -13 -13 -13 -13 -13 -13 -13 -13 -13 -14 -14 -15 -16 -19 -18 -21 -24 -27 -28 -28 -20 -16 -16 -17 -20 -22 -19 -20 -20 -22 -20 -20 -20 -20 -21 -21 -21 -20 -20 -21 -20
-11 -11 -13 -14 -13 -13 -13 -12 -11 -12 -13 -13 -13 -14 -14 -14 -14 -13 -13 -13 -13 -14 -14 -14 -14 -16 -18 -16 -15 -17 -16 -22 -28 -29 -29 -28 -26 -21 -24 -26 -25 -23 -21 -21 -21 -21 -21 -23 -21 -20 -20 -21 -21 -21
-11 -12 -14 -14 -14 -12 -12 -11 -12 -12 -12 -12 -12 -12 -12 -12 -13 -15 -15 -15 -14 -14 -14 -14 -15 -15 -19 -26 -27 -28 -28 -29 -29 -29 -28 -27 -26 -27 -27 -27 -27 -26 -25 -26 -24 -23 -23 -24 -24 -22 -21 -22 -22 -24
-11 -12 -13 -13 -13 -13 -12 -11 -12 -11 -12 -11 -11 -11 -11 -12 -13 -15 -15 -14 -14 -14 -14 -15 -15 -17 -23 -27 -26 -26 -28 -29 -29 -28 -28 -28 -28 -27 -27 -27 -27 -27 -27 -26 -25 -23 -24 -24 -25 -26 -28 -28 -28 -29

GFSWCAN_850_dewp_087.txt.gz
Dewpoint
-5 -4 -5 -4 -3 -2 -2 -1 -1 -1 -1 -1 -1 -1 -1 -1 -1 -1 -2 -5 -4 -3 -4 -4 -4 -3 -2 -0 -0 0 -0 1 1 1 1 1 0 1 1 1 4 2 3 4 3 3 3 -0 -1 3 4 2 1 1
-4 -6 -4 -3 -2 -1 -1 -2 -2 -2 -1 -1 -1 -1 -1 -0 -1 -0 -1 -3 -4 -3 -4 -4 -5 -6 -5 -2 0 1 2 1 1 0 0 1 2 2 4 5 3 4 1 2 1 1 4 4 3 3 1 1 1 1
-5 -4 -3 -2 -1 -1 -0 -1 -2 -3 -2 -2 -1 -1 -0 -0 -0 -1 -1 -1 -2 -1 -2 -4 -6 -5 -4 -5 -3 0 1 1 2 2 2 3 2 2 4 3 4 3 2 2 2 4 4 3 3 1 1 0 0 0
-4 -3 -2 -1 -1 -0 -1 -1 -2 -3 -3 -2 -2 -1 -1 -0 -0 -1 -1 -1 -1 -2 -2 -4 -6 -8 -11 -4 -2 -2 -3 0 0 1 1 2 3 1 3 2 2 4 3 4 5 3 3 3 2 2 0 -0 -0 -0
-3 -2 -1 -1 -2 -2 -2 -1 -2 -2 -2 -2 -2 -1 -2 -0 -0 -0 -0 -1 -1 -4 -2 -4 -6 -6 -5 -8 -4 0 -1 -0 1 1 1 2 2 2 2 2 4 0 2 4 3 1 2 1 1 0 -0 -0 -1 -1
-2 -2 -2 -1 -1 -1 -1 -1 -1 -0 -1 -1 -1 -2 -2 -1 -0 0 -2 -2 -1 -2 -1 -1 -2 -2 -6 -4 -6 -1 -1 1 1 0 1 1 1 2 3 3 1 -1 -2 -1 -0 1 1 -0 -1 -2 -2 -2 -2 -2
-2 -2 -2 -1 -1 -1 -1 -1 -1 -1 -1 -0 -1 -1 -1 -1 -1 -0 -2 -3 -2 -1 -1 -0 -1 -3 -4 -2 -2 -2 0 1 0 1 1 1 1 0 2 2 -1 -2 -2 -3 -3 0 -2 -3 -3 -3 -3 -3 -3 -4
-2 -2 -1 -1 -1 -1 -1 -1 -1 -0 -0 -1 -1 -0 -1 -0 -1 -0 -0 -2 -2 -1 -1 -1 -1 0 -2 0 1 0 1 1 1 1 1 2 1 1 -0 -4 -5 -4 -4 -4 -3 -5 -4 -4 -4 -4 -4 -4 -5 -5
-1 -1 -1 -1 -1 -1 -0 -1 -1 -1 -1 -0 -0 -1 -0 -1 -1 -0 -1 -1 -1 -2 -1 -1 -1 1 -0 0 1 1 1 1 0 1 1 1 -1 -2 -3 -4 -6 -7 -7 -7 -6 -6 -6 -6 -5 -5 -5 -6 -7 -7
-1 -1 -1 -0 -0 -1 -0 -2 -0 -0 -0 -0 -1 -1 -1 -1 -1 -1 -0 -0 -1 -0 -0 0 -1 1 1 0 1 0 0 1 2 0 1 -2 -4 -4 -5 -7 -8 -8 -7 -7 -7 -7 -7 -7 -6 -7 -8 -8 -9 -9
-1 -0 -1 -1 -1 -0 -0 -1 -0 -1 -1 -0 -0 -0 -1 -1 -0 -1 -1 -1 -1 -1 -1 -1 -0 1 1 1 1 0 0 1 1 1 2 -1 -4 -5 -7 -8 -9 -8 -8 -8 -8 -8 -8 -8 -8 -9 -9 -10 -11 -11
-1 -1 -1 -1 -1 -1 -1 -1 -1 -0 0 -0 -1 -1 -1 -0 -0 0 -1 0 -0 0 0 0 1 1 0 0 1 1 1 1 2 1 1 -3 -5 -7 -7 -8 -9 -10 -9 -10 -10 -10 -10 -9 -10 -10 -11 -11 -12 -13
-1 -1 -1 -1 -1 -1 -1 -1 -1 -1 -1 -1 -2 -1 -1 -2 0 -2 -0 0 -0 -0 -0 1 0 -0 -1 0 0 -1 1 0 -0 -1 -5 -6 -7 -8 -9 -9 -10 -11 -11 -11 -12 -12 -12 -11 -11 -12 -12 -12 -13 -13
-1 -1 -1 -1 -1 -3 -3 -3 -2 -3 -3 -4 -4 -6 -3 -3 -3 -3 -2 -2 -2 -1 0 -1 -0 0 1 -1 0 -2 -1 -1 1 -3 -7 -7 -8 -9 -10 -11 -12 -11 -12 -12 -13 -13 -13 -13 -13 -13 -13 -13 -13 -13
-1 -1 -1 -1 -1 -3 -3 -4 -4 -5 -8 -6 -6 -4 -5 -4 -3 -3 -3 -3 -3 -1 0 0 -1 -2 -1 -3 -2 -3 -2 -2 -4 -7 -8 -8 -9 -10 -10 -10 -12 -12 -12 -12 -13 -13 -13 -13 -13 -13 -13 -13 -14 -14
-1 -1 -1 -1 -2 -1 -2 -3 -6 -9 -7 -7 -6 -3 -4 -4 -5 -4 -3 -3 -3 -2 -1 -0 -2 -2 -3 -2 -3 -4 -3 -6 -8 -8 -9 -10 -10 -11 -11 -11 -11 -12 -12 -13 -13 -13 -13 -13 -13 -14 -14 -14 -14 -14
-2 -1 -1 -1 -1 -1 -2 -10 -8 -7 -7 -7 -6 -6 -5 -6 -5 -5 -5 -4 -3 -2 -3 -2 -3 -3 -3 -5 -7 -7 -8 -9 -8 -9 -9 -10 -11 -11 -11 -11 -11 -12 -12 -13 -13 -13 -13 -14 -14 -14 -14 -14 -14 -14
-2 -2 -5 -3 -2 -8 -8 -7 -8 -8 -6 -6 -7 -6 -6 -6 -6 -6 -6 -5 -5 -5 -6 -6 -8 -7 -8 -6 -8 -8 -8 -9 -9 -10 -10 -10 -10 -11 -12 -12 -12 -13 -13 -13 -13 -13 -13 -13 -13 -14 -14 -14 -15 -15
-2 -1 -6 -7 -6 -8 -7 -7 -8 -7 -6 -7 -7 -8 -8 -7 -7 -7 -7 -8 -8 -7 -8 -8 -8 -6 -7 -8 -9 -9 -10 -11 -11 -11 -11 -12 -12 -12 -12 -13 -12 -12 -12 -12 -13 -13 -13 -13 -13 -13 -13 -14 -15 -15
-8 -9 -8 -7 -7 -7 -7 -7 -7 -6 -5 -6 -7 -7 -7 -7 -8 -9 -9 -10 -10 -10 -9 -8 -8 -8 -8 -8 -9 -9 -11 -12 -13 -12 -12 -12 -12 -12 -11 -11 -13 -13 -13 -13 -13 -13 -13 -14 -14 -14 -14 -14 -15 -16
-9 -7 -8 -9 -8 -7 -7 -7 -7 -7 -6 -7 -7 -7 -7 -8 -9 -9 -10 -11 -11 -9 -9 -10 -10 -9 -9 -9 -9 -9 -9 -9 -9 -12 -12 -11 -11 -12 -13 -12 -12 -12 -12 -12 -14 -13 -14 -15 -15 -15 -16 -17 -17 -17
-7 -7 -9 -9 -7 -6 -7 -7 -7 -8 -7 -7 -7 -6 -5 -7 -9 -10 -12 -11 -9 -9 -10 -11 -10 -10 -11 -11 -11 -11 -11 -11 -11 -11 -12 -12 -11 -13 -13 -12 -13 -14 -14 -14 -14 -15 -15 -16 -16 -16 -17 -17 -17 -18
-5 -6 -6 -6 -6 -7 -6 -5 -6 -7 -6 -8 -8 -7 -7 -9 -10 -11 -12 -11 -10 -10 -10 -10 -11 -12 -12 -12 -12 -12 -12 -13 -13 -13 -13 -14 -14 -13 -14 -14 -13 -13 -14 -15 -16 -16 -17 -20 -17 -18 -17 -17 -18 -19
-9 -9 -5 -5 -7 -5 -5 -7 -8 -9 -9 -6 -7 -7 -8 -9 -10 -10 -9 -10 -11 -11 -12 -13 -13 -12 -11 -12 -13 -14 -13 -14 -14 -14 -14 -14 -15 -16 -16 -17 -18 -16 -15 -16 -17 -17 -18 -20 -18 -18 -18 -18 -18 -18
-8 -8 -6 -7 -6 -7 -8 -8 -7 -6 -7 -8 -8 -9 -9 -9 -9 -10 -11 -10 -11 -12 -11 -11 -11 -11 -12 -13 -14 -15 -15 -14 -14 -16 -15 -15 -14 -15 -16 -16 -16 -17 -19 -16 -16 -17 -18 -18 -18 -18 -18 -18 -18 -18
-9 -9 -7 -7 -6 -7 -7 -8 -8 -7 -8 -9 -9 -10 -9 -9 -11 -10 -10 -10 -11 -11 -11 -10 -10 -12 -12 -13 -14 -15 -16 -15 -15 -15 -19 -19 -15 -14 -15 -15 -15 -16 -17 -18 -17 -17 -17 -19 -19 -19 -20 -19 -19 -22
-9 -9 -9 -9 -8 -7 -7 -7 -8 -8 -9 -10 -10 -10 -11 -12 -11 -9 -9 -11 -11 -12 -11 -11 -11 -12 -13 -13 -14 -15 -24 -18 -15 -16 -26 -26 -27 -27 -22 -16 -16 -17 -18 -23 -21 -17 -18 -18 -19 -19 -19 -19 -19 -19
-10 -9 -11 -9 -10 -10 -8 -9 -9 -10 -10 -10 -10 -12 -12 -13 -11 -9 -10 -10 -11 -10 -11 -11 -12 -12 -13 -16 -22 -29 -30 -27 -25 -22 -19 -17 -17 -19 -22 -27 -28 -26 -24 -27 -26 -23 -19 -19 -20 -19 -19 -19 -19 -20
-10 -12 -13 -14 -12 -12 -12 -11 -11 -11 -11 -10 -14 -14 -12 -11 -11 -11 -11 -11 -12 -12 -12 -13 -13 -15 -19 -22 -23 -20 -18 -16 -15 -20 -16 -16 -16 -17 -20 -25 -25 -24 -24 -22 -21 -21 -23 -24 -24 -24 -22 -21 -22 -21
-11 -12 -13 -14 -14 -13 -12 -11 -12 -12 -13 -13 -13 -12 -12 -12 -12 -12 -12 -13 -13 -14 -15 -16 -19 -21 -21 -21 -24 -26 -27 -26 -25 -22 -17 -17 -17 -19 -22 -24 -24 -24 -24 -22 -21 -20 -21 -20 -22 -21 -20 -21 -21 -21
-11 -12 -13 -13 -13 -12 -11 -13 -13 -13 -13 -13 -14 -14 -14 -13 -13 -13 -12 -13 -13 -14 -14 -14 -14 -15 -16 -19 -22 -23 -20 -26 -29 -30 -30 -29 -28 -26 -26 -27 -27 -27 -27 -26 -25 -25 -24 -24 -24 -22 -21 -21 -21 -22
-11 -13 -14 -14 -12 -11 -11 -13 -13 -12 -13 -14 -14 -15 -14 -14 -14 -14 -14 -14 -14 -14 -14 -14 -17 -18 -18 -19 -22 -26 -28 -29 -29 -29 -29 -28 -28 -28 -28 -27 -28 -28 -28 -28 -27 -27 -27 -26 -26 -26 -26 -25 -26 -27
-12 -13 -14 -14 -13 -12 -11 -10 -12 -11 -11 -11 -11 -11 -12 -13 -14 -15 -14 -14 -14 -14 -14 -15 -15 -18 -25 -28 -26 -26 -27 -28 -29 -28 -28 -28 -28 -28 -28 -28 -29 -29 -29 -29 -28 -27 -27 -27 -28 -28 -28 -28 -27 -26